[[{"header":{"parameterUnit":"m.s-1","parameterCategory":1,"la1":30.6,"la2":29.2853,"lo1":-89.7004,"lo2":-87.6739,"dy":0.0162,"dx":0.0183,"nx":112,"ny":82,"refTime":"2024-07-14T18:00:00:Z","depth":0,"parameterNumber":2,"parameterNumberName":"U-component_of_WINDS"},"data":[0.0,0.0,0.0,0.0,0.0,0.0,0.0,0.0,0.0,0.0,0.0,0.0,0.0,0.0,0.0,0.0,0.0,0.0,0.0,0.0,0.0,0.0,0.0,0.0,0.0,0.0,0.0,0.0,0.0,0.0,0.0,0.0,0.0,0.0,0.0,0.0,0.0,0.0,0.0,0.0,0.0,0.0,0.0,0.0,0.0,0.0,0.0,0.0,0.0,0.0,0.0,0.0,0.0,0.0,0.0,0.0,0.0,0.0,0.0,0.0,0.0,0.0,0.0,0.0,0.0,0.0,0.0,0.0,0.0,0.0,0.0,0.0,0.0,0.0,0.0,0.0,0.0,0.0,0.0,0.0,0.0,0.0,0.0,0.0,0.0,0.0,0.0,0.0,0.0,0.0,-4.0977,-4.2258,-4.3528,-4.4297,-4.4297,-4.3216,-4.1369,-3.8669,0.0,0.0,0.0,0.0,0.0,0.0,0.0,0.0,0.0,0.0,0.0,0.0,0.0,0.0,0.0,0.0,0.0,0.0,0.0,0.0,0.0,0.0,0.0,0.0,0.0,0.0,0.0,0.0,0.0,0.0,0.0,0.0,0.0,0.0,0.0,0.0,0.0,0.0,0.0,0.0,0.0,0.0,0.0,0.0,0.0,0.0,0.0,0.0,0.0,0.0,0.0,0.0,0.0,0.0,0.0,0.0,0.0,0.0,0.0,0.0,0.0,0.0,0.0,0.0,0.0,0.0,0.0,0.0,0.0,0.0,0.0,0.0,0.0,0.0,0.0,0.0,0.0,0.0,0.0,0.0,0.0,0.0,0.0,0.0,0.0,0.0,0.0,0.0,0.0,0.0,0.0,0.0,0.0,0.0,0.0,0.0,0.0,0.0,0.0,0.0,0.0,0.0,0.0,0.0,-4.167,-4.471,-4.4586,-4.4297,-4.4297,-4.2984,-4.1123,-3.8658,0.0,0.0,0.0,0.0,0.0,0.0,0.0,0.0,0.0,0.0,0.0,0.0,0.0,0.0,0.0,0.0,0.0,0.0,0.0,0.0,0.0,0.0,0.0,0.0,0.0,0.0,0.0,0.0,0.0,0.0,0.0,0.0,0.0,0.0,0.0,0.0,0.0,0.0,0.0,0.0,0.0,0.0,0.0,0.0,0.0,0.0,0.0,0.0,0.0,0.0,0.0,0.0,0.0,0.0,0.0,0.0,0.0,0.0,0.0,0.0,0.0,0.0,0.0,0.0,0.0,0.0,0.0,0.0,0.0,0.0,0.0,0.0,0.0,0.0,0.0,0.0,0.0,0.0,0.0,0.0,0.0,0.0,0.0,0.0,0.0,0.0,0.0,0.0,0.0,0.0,0.0,0.0,0.0,0.0,0.0,0.0,0.0,0.0,0.0,0.0,0.0,0.0,0.0,-4.065,-4.2167,-4.5278,-4.4277,-4.3369,-4.3369,-4.1578,-3.9621,-3.765,-3.605,0.0,0.0,0.0,0.0,0.0,0.0,0.0,0.0,0.0,0.0,0.0,0.0,0.0,0.0,0.0,0.0,0.0,0.0,0.0,0.0,0.0,0.0,0.0,0.0,0.0,0.0,0.0,0.0,0.0,0.0,0.0,0.0,0.0,0.0,0.0,0.0,0.0,0.0,0.0,0.0,0.0,0.0,0.0,0.0,0.0,0.0,0.0,0.0,0.0,0.0,0.0,0.0,0.0,0.0,0.0,0.0,0.0,0.0,0.0,0.0,0.0,0.0,0.0,0.0,0.0,0.0,0.0,0.0,0.0,0.0,0.0,0.0,0.0,0.0,0.0,0.0,0.0,0.0,0.0,0.0,0.0,0.0,0.0,0.0,0.0,0.0,0.0,0.0,0.0,0.0,0.0,0.0,0.0,0.0,0.0,0.0,0.0,0.0,0.0,0.0,0.0,0.0,-4.2131,-4.2804,-4.4698,-4.3513,-4.2484,-4.2212,-4.0121,-3.8218,-3.6795,-3.47,0.0,0.0,0.0,0.0,0.0,0.0,0.0,0.0,0.0,0.0,0.0,0.0,0.0,0.0,0.0,0.0,0.0,0.0,0.0,0.0,0.0,0.0,0.0,0.0,0.0,0.0,0.0,0.0,0.0,0.0,0.0,0.0,0.0,0.0,0.0,0.0,0.0,0.0,0.0,0.0,0.0,0.0,0.0,0.0,0.0,0.0,0.0,0.0,0.0,0.0,0.0,0.0,0.0,0.0,0.0,0.0,0.0,0.0,0.0,0.0,0.0,0.0,0.0,0.0,0.0,0.0,0.0,0.0,0.0,0.0,0.0,0.0,0.0,0.0,0.0,0.0,0.0,0.0,0.0,0.0,0.0,0.0,0.0,0.0,0.0,0.0,0.0,0.0,0.0,0.0,0.0,0.0,0.0,0.0,0.0,0.0,0.0,0.0,0.0,0.0,0.0,0.0,-4.2212,-4.3768,-4.2889,-4.2677,-4.2163,-4.1108,-3.9139,-3.7621,-3.6758,-3.4164,0.0,0.0,0.0,0.0,0.0,0.0,0.0,0.0,0.0,0.0,0.0,0.0,0.0,0.0,0.0,0.0,0.0,0.0,0.0,0.0,0.0,0.0,0.0,0.0,0.0,0.0,0.0,0.0,0.0,0.0,0.0,0.0,0.0,0.0,0.0,0.0,0.0,0.0,0.0,0.0,0.0,0.0,0.0,0.0,0.0,0.0,0.0,0.0,0.0,0.0,0.0,0.0,0.0,0.0,0.0,0.0,0.0,0.0,0.0,0.0,0.0,0.0,0.0,0.0,0.0,0.0,0.0,0.0,0.0,0.0,0.0,0.0,0.0,0.0,0.0,0.0,0.0,0.0,0.0,0.0,0.0,0.0,0.0,0.0,0.0,0.0,0.0,0.0,0.0,0.0,0.0,0.0,0.0,0.0,0.0,0.0,0.0,0.0,0.0,0.0,0.0,0.0,-3.9994,-4.1648,0.0,-4.1647,-4.1048,-4.062,-3.9231,-3.7603,-3.5757,0.0,0.0,0.0,0.0,0.0,0.0,0.0,0.0,0.0,0.0,0.0,0.0,0.0,0.0,0.0,0.0,0.0,0.0,0.0,0.0,0.0,0.0,0.0,0.0,0.0,0.0,0.0,0.0,0.0,0.0,0.0,0.0,0.0,0.0,0.0,0.0,0.0,0.0,0.0,0.0,0.0,0.0,0.0,0.0,0.0,0.0,0.0,0.0,0.0,0.0,0.0,0.0,0.0,0.0,0.0,0.0,0.0,0.0,0.0,0.0,0.0,0.0,0.0,0.0,0.0,0.0,0.0,0.0,0.0,0.0,0.0,0.0,0.0,0.0,0.0,0.0,0.0,0.0,0.0,0.0,0.0,0.0,0.0,0.0,0.0,0.0,0.0,0.0,0.0,0.0,0.0,0.0,0.0,0.0,0.0,0.0,0.0,0.0,0.0,0.0,0.0,0.0,-3.6539,-3.8731,-4.0347,0.0,-4.0705,-4.024,-3.989,-3.8685,-3.711,-3.5133,0.0,0.0,0.0,0.0,0.0,0.0,0.0,0.0,0.0,0.0,0.0,0.0,0.0,0.0,0.0,0.0,0.0,0.0,0.0,0.0,0.0,0.0,0.0,0.0,0.0,0.0,0.0,0.0,0.0,0.0,0.0,0.0,0.0,0.0,0.0,0.0,0.0,0.0,0.0,0.0,0.0,0.0,0.0,0.0,0.0,0.0,0.0,0.0,0.0,0.0,0.0,0.0,0.0,0.0,0.0,0.0,0.0,0.0,0.0,0.0,0.0,0.0,0.0,0.0,0.0,0.0,0.0,0.0,0.0,0.0,0.0,0.0,0.0,0.0,0.0,0.0,0.0,0.0,0.0,0.0,0.0,0.0,0.0,0.0,0.0,0.0,0.0,0.0,0.0,0.0,0.0,0.0,0.0,0.0,0.0,0.0,0.0,0.0,0.0,0.0,0.0,0.0,-3.5771,-3.8803,-4.0408,-3.9213,-3.9857,-3.9923,-3.8793,-3.7221,-3.5936,0.0,0.0,0.0,0.0,0.0,0.0,0.0,0.0,0.0,0.0,0.0,0.0,0.0,0.0,0.0,0.0,0.0,0.0,0.0,0.0,0.0,0.0,0.0,0.0,0.0,0.0,0.0,0.0,0.0,0.0,0.0,0.0,0.0,0.0,0.0,0.0,0.0,0.0,0.0,0.0,0.0,0.0,0.0,0.0,0.0,0.0,0.0,0.0,0.0,0.0,0.0,0.0,0.0,0.0,0.0,0.0,0.0,0.0,0.0,0.0,0.0,0.0,0.0,0.0,0.0,0.0,0.0,0.0,0.0,0.0,0.0,0.0,0.0,0.0,0.0,0.0,0.0,0.0,0.0,0.0,0.0,0.0,0.0,0.0,0.0,0.0,0.0,0.0,0.0,0.0,0.0,0.0,0.0,0.0,0.0,0.0,0.0,0.0,0.0,0.0,0.0,0.0,0.0,-3.4278,-3.6976,-3.8784,-3.8822,-3.9036,-3.9065,-3.8741,-3.7734,-3.6285,-3.4284,0.0,0.0,0.0,0.0,0.0,0.0,0.0,0.0,0.0,0.0,0.0,0.0,0.0,0.0,0.0,0.0,0.0,0.0,0.0,0.0,0.0,0.0,0.0,0.0,0.0,0.0,0.0,0.0,0.0,0.0,0.0,0.0,0.0,0.0,0.0,0.0,0.0,0.0,0.0,0.0,0.0,0.0,0.0,0.0,0.0,0.0,0.0,0.0,0.0,0.0,0.0,0.0,0.0,0.0,0.0,0.0,0.0,0.0,0.0,0.0,0.0,0.0,0.0,0.0,0.0,0.0,0.0,0.0,0.0,0.0,0.0,0.0,0.0,0.0,0.0,0.0,0.0,0.0,0.0,0.0,0.0,0.0,0.0,0.0,0.0,0.0,0.0,0.0,0.0,0.0,0.0,0.0,0.0,0.0,0.0,0.0,0.0,0.0,0.0,0.0,0.0,0.0,-3.3227,-3.5628,-3.7401,-3.7709,-3.8028,-3.8083,-3.7771,-3.7294,-3.5954,-3.3476,0.0,0.0,0.0,0.0,0.0,0.0,0.0,0.0,0.0,0.0,0.0,0.0,0.0,0.0,0.0,0.0,0.0,0.0,0.0,0.0,0.0,0.0,0.0,0.0,0.0,0.0,0.0,0.0,0.0,0.0,0.0,0.0,0.0,0.0,0.0,0.0,0.0,0.0,0.0,0.0,0.0,0.0,0.0,0.0,0.0,0.0,0.0,0.0,0.0,0.0,0.0,0.0,0.0,0.0,0.0,0.0,0.0,0.0,0.0,0.0,0.0,0.0,0.0,0.0,0.0,0.0,0.0,0.0,0.0,0.0,0.0,0.0,0.0,0.0,0.0,0.0,0.0,0.0,0.0,0.0,0.0,0.0,0.0,0.0,0.0,0.0,0.0,0.0,0.0,0.0,0.0,0.0,0.0,0.0,0.0,0.0,0.0,0.0,0.0,0.0,0.0,0.0,-3.2583,-3.4688,-3.6211,-3.6285,-3.696,-3.7088,-3.6358,-3.6229,-3.5183,-3.2858,0.0,0.0,0.0,0.0,0.0,0.0,0.0,0.0,0.0,0.0,0.0,0.0,0.0,0.0,0.0,0.0,0.0,0.0,0.0,0.0,0.0,0.0,0.0,0.0,0.0,0.0,0.0,0.0,0.0,0.0,0.0,0.0,0.0,0.0,0.0,0.0,0.0,0.0,0.0,0.0,0.0,0.0,0.0,0.0,0.0,0.0,0.0,0.0,0.0,0.0,0.0,0.0,0.0,0.0,0.0,0.0,0.0,0.0,0.0,0.0,-3.0395,0.0,0.0,0.0,0.0,0.0,0.0,0.0,0.0,0.0,0.0,0.0,0.0,0.0,0.0,0.0,0.0,0.0,0.0,0.0,0.0,0.0,0.0,0.0,0.0,0.0,0.0,0.0,0.0,0.0,0.0,0.0,0.0,0.0,0.0,0.0,0.0,0.0,0.0,0.0,0.0,0.0,-3.2436,-3.4179,-3.5536,-3.6229,-3.645,-3.6486,-3.6303,-3.5665,-3.4784,-3.3623,-3.2192,0.0,0.0,0.0,0.0,0.0,0.0,0.0,0.0,0.0,0.0,0.0,0.0,0.0,0.0,0.0,0.0,0.0,0.0,0.0,0.0,0.0,0.0,0.0,0.0,0.0,0.0,0.0,0.0,0.0,0.0,0.0,0.0,0.0,0.0,0.0,0.0,0.0,0.0,0.0,0.0,0.0,0.0,0.0,0.0,0.0,0.0,0.0,0.0,0.0,0.0,0.0,0.0,0.0,0.0,0.0,0.0,0.0,0.0,0.0,0.0,-3.2339,0.0,0.0,0.0,0.0,0.0,0.0,0.0,0.0,0.0,0.0,0.0,0.0,0.0,0.0,0.0,0.0,0.0,0.0,0.0,0.0,0.0,0.0,0.0,0.0,0.0,0.0,0.0,0.0,0.0,0.0,0.0,0.0,0.0,0.0,0.0,0.0,0.0,0.0,0.0,0.0,-3.1916,-3.3426,-3.4614,-3.5055,-3.544,-3.5532,-3.5128,-3.5041,-3.4491,-3.3311,-3.2449,0.0,0.0,0.0,0.0,0.0,0.0,0.0,0.0,0.0,0.0,0.0,0.0,0.0,0.0,0.0,0.0,0.0,0.0,0.0,0.0,0.0,0.0,0.0,0.0,0.0,0.0,0.0,0.0,0.0,0.0,0.0,0.0,0.0,0.0,0.0,0.0,0.0,0.0,0.0,0.0,0.0,0.0,0.0,0.0,0.0,0.0,0.0,0.0,0.0,0.0,0.0,0.0,0.0,0.0,-3.8029,-3.8392,-3.7002,-3.7877,-4.0195,-3.4582,-3.3758,-3.6329,0.0,0.0,0.0,0.0,0.0,0.0,0.0,0.0,0.0,0.0,0.0,0.0,0.0,0.0,0.0,0.0,0.0,0.0,0.0,0.0,0.0,0.0,0.0,0.0,0.0,-3.6339,-3.5241,0.0,0.0,0.0,0.0,0.0,0.0,0.0,0.0,0.0,0.0,0.0,0.0,-3.1397,-3.2797,-3.3807,-3.3807,-3.438,-3.4509,-3.3862,-3.4399,-3.4215,-3.2894,-3.2674,-3.1702,0.0,0.0,0.0,0.0,0.0,0.0,0.0,0.0,0.0,0.0,0.0,0.0,0.0,0.0,0.0,0.0,0.0,0.0,0.0,0.0,0.0,0.0,0.0,0.0,0.0,0.0,0.0,0.0,0.0,0.0,0.0,0.0,-2.8151,-2.9035,0.0,0.0,0.0,0.0,0.0,0.0,0.0,0.0,0.0,0.0,0.0,0.0,0.0,0.0,-3.7679,-3.8726,-3.9005,-3.8538,-3.9689,-4.0204,-4.0169,-3.995,-4.0085,-4.0446,-3.9558,0.0,-3.9615,-3.6701,0.0,0.0,0.0,0.0,0.0,0.0,0.0,0.0,0.0,0.0,0.0,0.0,0.0,0.0,0.0,0.0,0.0,0.0,0.0,0.0,0.0,0.0,-3.4856,-3.5972,-3.5544,-3.4973,0.0,-3.4509,-3.345,-3.266,0.0,0.0,0.0,0.0,0.0,0.0,0.0,0.0,-3.1397,-3.2797,-3.3807,-3.3807,-3.3899,-3.3917,-3.3807,-3.3899,-3.3862,-3.366,-3.2986,-3.2454,-3.2142,-3.0216,0.0,0.0,0.0,0.0,0.0,0.0,0.0,0.0,0.0,0.0,0.0,0.0,0.0,0.0,0.0,0.0,0.0,0.0,0.0,0.0,0.0,0.0,0.0,0.0,0.0,0.0,0.0,0.0,0.0,-2.8236,-2.9859,-3.023,-3.1054,-3.1202,0.0,0.0,0.0,0.0,0.0,0.0,0.0,0.0,0.0,-3.7054,-3.8053,-3.8714,-3.898,-4.0393,-4.0663,-3.9758,-4.0308,-4.0552,-4.0496,-4.0496,-4.0496,-4.0496,-4.0496,-4.05,-4.0383,-3.8929,-3.776,-3.6874,0.0,0.0,0.0,0.0,0.0,-3.3776,-3.4718,0.0,0.0,0.0,0.0,0.0,0.0,0.0,0.0,0.0,0.0,0.0,0.0,0.0,0.0,-3.4714,-3.4496,-3.4545,-3.5851,-3.5642,-3.5,0.0,-3.37,-3.2889,-3.1617,0.0,0.0,0.0,0.0,-3.2063,-3.2063,-3.3073,-3.3807,-3.3807,-3.3807,-3.3807,-3.3807,-3.3807,-3.3807,-3.3807,-3.3476,-3.306,-3.2619,-3.1574,-3.0803,0.0,0.0,0.0,0.0,0.0,0.0,0.0,0.0,0.0,0.0,0.0,0.0,0.0,0.0,0.0,0.0,0.0,0.0,0.0,0.0,0.0,0.0,0.0,0.0,0.0,0.0,0.0,0.0,-2.9807,-3.1601,-3.1836,-3.3317,-3.3737,0.0,0.0,0.0,0.0,0.0,0.0,-3.6737,-3.683,-3.7365,-3.8483,-3.9793,-4.0389,-4.0233,-4.1707,-4.1821,-4.0581,-4.0643,-4.0617,-4.0496,-4.0496,-4.0496,-4.0496,-4.0496,-4.0504,-4.05,-4.0508,-3.9595,-3.8149,-3.7611,-3.6757,-3.5827,-3.6058,-3.5584,-3.5045,-3.6526,-3.6481,-3.5808,-3.5808,0.0,-3.3696,-3.3096,0.0,0.0,0.0,0.0,-3.3443,-3.4436,0.0,-3.3814,-3.3796,-3.3807,-3.4205,-3.5652,-3.5807,-3.5598,0.0,-3.4692,-3.366,-3.226,0.0,0.0,0.0,0.0,-3.2601,-3.2601,-3.3311,-3.3807,-3.3807,-3.3807,-3.3807,-3.3807,-3.3807,-3.3807,-3.3807,-3.3807,-3.3532,-3.2931,-3.2711,-3.232,-3.1715,0.0,0.0,0.0,0.0,0.0,0.0,0.0,0.0,0.0,0.0,0.0,0.0,0.0,0.0,0.0,0.0,0.0,0.0,0.0,0.0,0.0,0.0,0.0,0.0,0.0,0.0,0.0,0.0,0.0,-3.4394,-3.6035,0.0,0.0,0.0,0.0,-3.669,-3.6941,-3.7785,-3.9419,-3.9623,-4.0449,-4.209,-4.2226,-4.217,-4.1976,-4.2568,-4.2171,-4.0793,-4.1036,-4.0933,-4.0496,-4.0496,-4.0496,-4.0496,-4.0496,-4.0496,-4.0496,-4.05,-3.9807,-3.8703,-3.8169,-3.743,-3.6731,-3.7565,-3.7315,-3.6692,-3.7623,-3.7373,-3.6635,-3.6635,-3.5354,-3.3791,-3.3753,-3.3557,0.0,0.0,-3.4035,-3.4381,-3.4627,-3.4255,-3.3802,-3.3808,-3.3802,-3.4041,-3.4876,-3.4472,-3.4137,0.0,-3.4981,-3.4674,-3.3825,0.0,-3.2528,-3.2491,-3.2546,-3.2601,-3.2601,-3.3311,-3.3807,-3.3807,-3.3807,-3.3807,-3.3807,-3.3807,-3.3807,-3.3807,-3.3807,-3.377,-3.3733,-3.3005,-3.2583,-3.2546,-3.0999,0.0,0.0,0.0,0.0,0.0,0.0,0.0,0.0,0.0,0.0,0.0,0.0,0.0,0.0,0.0,0.0,0.0,0.0,0.0,0.0,0.0,0.0,0.0,0.0,0.0,0.0,0.0,0.0,-3.6269,-3.791,0.0,-3.6931,-3.7302,-3.7749,-3.8014,-3.8588,-3.9431,-4.0601,-4.1191,-4.1756,-4.2325,-4.338,-4.3582,-4.2818,-4.3514,-4.2772,-4.06,-4.101,-4.0952,-4.0496,-4.0496,-4.0496,-4.0496,-4.0496,-4.0496,-4.0439,-3.9708,-3.9592,-3.9831,-3.9111,-3.8296,-3.7565,-3.7892,-3.745,-3.6904,-3.8334,-3.7892,-3.6615,-3.6096,-3.5465,-3.4897,-3.4897,-3.4833,-3.4737,-3.4661,-3.4613,-3.4567,-3.4528,-3.4165,-3.3805,-3.3797,-3.3807,-3.388,-3.4174,-3.4009,-3.388,-3.416,-3.4215,-3.3959,-3.3183,-3.322,-3.3201,-3.2674,-3.3041,-3.3366,-3.3366,-3.3623,-3.3807,-3.3807,-3.3807,-3.3807,-3.3807,-3.3807,-3.3587,-3.3073,-3.3036,-3.2797,-3.2265,-3.2485,-3.2601,-3.2601,-3.2032,-3.1225,0.0,0.0,0.0,0.0,0.0,0.0,0.0,0.0,0.0,0.0,0.0,0.0,0.0,0.0,0.0,0.0,0.0,0.0,0.0,0.0,0.0,0.0,0.0,0.0,0.0,0.0,-3.6669,-3.7553,-3.9257,-3.9766,-3.832,-3.8965,-3.9473,-3.9473,-4.0019,-4.0586,-4.1172,-4.1931,-4.2487,-4.2728,-4.4053,-4.4359,-4.3505,-4.4441,-4.3412,-4.0507,-4.0826,-4.0795,-4.0496,-4.0496,-4.0496,-4.0496,-4.0496,-4.0496,-4.0439,-3.9681,-3.9815,-4.0419,-3.9611,-3.8957,-3.843,-3.843,-3.7892,-3.7257,-3.8123,-3.768,-3.6577,-3.5769,-3.55,-3.55,-3.55,-3.55,-3.5453,-3.5289,-3.4972,-3.4653,-3.4442,-3.4099,-3.3807,-3.3807,-3.3807,-3.3807,-3.3807,-3.3807,-3.3807,-3.3807,-3.3807,-3.3623,-3.3096,-3.3458,-3.3623,-3.3091,-3.3458,-3.3807,-3.3807,-3.3807,-3.3807,-3.3807,-3.3807,-3.3807,-3.3807,-3.3807,-3.3568,-3.3041,-3.2999,-3.2651,-3.1843,-3.232,-3.2472,-3.221,-3.221,-3.1549,-3.021,0.0,0.0,0.0,0.0,0.0,0.0,0.0,0.0,0.0,0.0,0.0,0.0,0.0,0.0,0.0,0.0,0.0,0.0,0.0,0.0,0.0,0.0,0.0,-3.4163,-3.5979,-3.7372,-3.8374,-4.0072,-4.084,-4.0019,-4.0703,-4.1191,-4.1191,-4.1191,-4.1211,-4.123,-4.1933,-4.2744,-4.36,-4.4343,-4.4545,-4.4144,-4.5305,-4.413,-4.066,-4.0558,-4.0496,-4.0496,-4.0496,-4.0496,-4.0496,-4.0496,-4.0496,-4.0496,-4.0477,-4.0458,-4.04,-3.9631,-3.9323,-3.9304,-3.9304,-3.8738,-3.7873,-3.7,-3.6692,-3.6577,-3.5769,-3.55,-3.55,-3.55,-3.55,-3.55,-3.5493,-3.5105,-3.4646,-3.4456,-3.4102,-3.3807,-3.3807,-3.3807,-3.3807,-3.3807,-3.3807,-3.3807,-3.3807,-3.3807,-3.3807,-3.3807,-3.3807,-3.3807,-3.3807,-3.3807,0.0,-3.3807,-3.3807,-3.3807,-3.3807,-3.3807,-3.3807,-3.3807,-3.3807,-3.3788,-3.3752,-3.3733,-3.3385,-3.2583,-3.2564,-3.2228,-3.1488,-3.1452,-3.1054,-3.0283,0.0,0.0,0.0,0.0,0.0,0.0,0.0,0.0,0.0,0.0,0.0,0.0,0.0,0.0,0.0,0.0,0.0,0.0,0.0,0.0,0.0,-3.0348,-3.1611,-3.4918,-3.652,-3.8126,-4.0191,-4.0331,-4.041,-4.0801,-4.1055,-4.1191,-4.1191,-4.1191,-4.1424,-4.1968,-4.2793,-4.3556,-4.4228,-4.5068,-4.5396,-4.5186,-4.5515,-4.519,-4.4166,-4.1678,-4.0496,-4.0496,-4.0496,-4.0496,-4.0496,-4.0496,-4.0496,-4.0458,-3.9881,-3.9631,-3.9669,-4.0035,-3.9804,-3.9304,-3.9304,-3.8738,-3.7873,-3.7,-3.6692,-3.6577,-3.5769,-3.55,-3.55,-3.55,-3.55,-3.5453,-3.5254,-3.4963,-3.4624,-3.4334,-3.4037,-3.3807,-3.3807,-3.3807,-3.3807,-3.3807,-3.3807,-3.3807,-3.3807,-3.3807,-3.3807,-3.3807,-3.3807,-3.3807,-3.3807,0.0,0.0,-3.3807,-3.3807,-3.3807,-3.3807,-3.3807,-3.3807,-3.3807,-3.3807,-3.355,-3.2981,-3.2375,-3.1966,-3.1733,-3.1733,-3.2173,-3.3109,-3.2577,-3.2161,0.0,0.0,0.0,0.0,0.0,0.0,0.0,0.0,0.0,0.0,0.0,0.0,0.0,0.0,0.0,0.0,0.0,0.0,0.0,0.0,0.0,0.0,-3.0456,-3.162,-3.5118,-3.6277,-3.7455,-3.9336,-3.9616,-3.9744,-3.9959,-4.0328,-4.0524,-4.0524,-4.0833,-4.1228,-4.1655,-4.2785,-4.3598,-4.3944,-4.5095,-4.5688,-4.5612,-4.5607,-4.4875,-4.3437,-4.1447,-4.0496,-4.0496,-4.0496,-4.0496,0.0,-4.0496,-4.0496,-4.0439,-3.9631,-3.9304,0.0,0.0,0.0,0.0,0.0,-3.7988,-3.6892,-3.6365,-3.6192,-3.6115,-3.5654,-3.55,-3.55,-3.55,-3.55,-3.5479,-3.5304,-3.499,-3.4653,-3.4456,-3.4111,-3.3807,-3.3807,-3.3807,-3.3807,-3.3807,-3.3807,-3.3807,-3.3807,0.0,0.0,-3.3807,-3.3807,-3.3807,-3.3807,-3.3807,-3.3807,0.0,-3.3807,-3.3807,-3.3807,-3.3807,-3.3807,-3.3807,-3.3807,0.0,0.0,0.0,-3.2247,-3.1916,-3.158,0.0,0.0,0.0,0.0,0.0,0.0,0.0,0.0,-3.5114,-3.5646,0.0,0.0,0.0,0.0,0.0,0.0,0.0,0.0,0.0,0.0,0.0,0.0,0.0,0.0,0.0,0.0,-3.0727,-3.2026,-3.5074,-3.5604,-3.6026,-3.6987,-3.8252,-3.888,-3.8487,-3.9142,-3.9648,-3.9723,-4.0396,-4.0832,-4.0937,0.0,0.0,0.0,0.0,-4.5603,-4.561,-4.5588,-4.3888,-4.0499,-4.05,-4.0496,-4.0496,-4.0496,-4.0496,-4.0496,-4.0496,-4.0496,-4.0439,-3.9727,-3.9381,-3.9284,-3.9188,-3.915,-3.9053,-3.8161,-3.6853,0.0,0.0,0.0,0.0,-3.55,-3.55,-3.55,-3.55,-3.55,-3.55,-3.55,-3.513,-3.4734,-3.4704,-3.426,-3.3842,-3.382,-3.3807,-3.3807,-3.3807,-3.3733,-3.366,-3.366,-3.3587,-3.3532,-3.3532,-3.3678,-3.3807,-3.3807,-3.3807,0.0,-3.3807,-3.3807,-3.3807,-3.3807,0.0,0.0,-3.3807,-3.3807,-3.3807,-3.3807,-3.3807,-3.344,-3.2619,-3.199,-3.2008,-3.2711,-3.2729,-3.3482,-3.5004,-3.5881,-3.6707,-3.7474,-3.6083,-3.6211,0.0,0.0,0.0,0.0,0.0,0.0,0.0,0.0,0.0,0.0,0.0,0.0,0.0,0.0,0.0,-2.989,-3.2711,-3.4736,-3.5412,-3.5515,-3.5614,-3.5811,-3.6789,-3.7955,-3.9213,-3.9509,-3.9878,-4.0509,-4.0704,-4.1086,-4.1732,-4.2685,0.0,-4.4075,-4.5073,-4.5603,-4.561,-4.5588,-4.3888,-4.0499,0.0,0.0,-4.0496,-4.0496,-4.0496,-4.0496,-4.0496,-4.0496,-4.0496,-4.0323,-3.99,-3.9227,-3.8527,-3.8257,-3.8142,-3.7276,-3.6346,-3.55,-3.55,-3.55,-3.55,-3.55,-3.55,-3.55,-3.55,-3.55,0.0,-3.55,-3.5273,-3.4972,-3.4773,-3.4401,-3.408,-3.3855,-3.3807,-3.3807,-3.3807,-3.3293,-3.2821,-3.2821,-3.2302,-3.1856,-3.1856,-3.2944,-3.3807,-3.3807,-3.3807,-3.3807,-3.3807,-3.3807,-3.3807,-3.3807,-3.3807,-3.3807,-3.3807,-3.3807,-3.3807,-3.3807,-3.3807,-3.344,-3.2619,-3.3073,-3.3403,-3.3568,-3.3568,-3.4045,-3.5004,-3.5881,-3.6707,-3.7511,-3.7826,-3.8157,0.0,0.0,0.0,0.0,0.0,0.0,0.0,0.0,0.0,0.0,0.0,-2.8639,-3.1241,0.0,-3.0964,-3.2679,-3.439,-3.55,-3.55,-3.55,-3.5509,-3.5493,-3.5945,-3.6744,-3.8023,-3.8546,-3.9146,-3.9993,-4.0413,-4.0822,-4.124,-4.2037,-4.2726,-4.3228,-4.4209,-4.5024,-4.5585,-4.5594,-4.3893,-4.0511,-4.0508,-4.0496,-4.0496,-4.0593,-4.0605,-4.0504,-4.0574,-4.0566,-4.0439,-3.9592,-3.9008,-3.8527,-3.7257,-3.6988,-3.7296,-3.6865,-3.6192,-3.55,-3.55,-3.55,-3.55,-3.55,-3.55,-3.55,-3.55,-3.55,-3.55,-3.55,-3.5304,-3.5044,-3.4764,-3.4445,-3.4135,-3.385,-3.3807,-3.3697,-3.3293,-3.2876,-3.2472,-3.2082,-3.1659,-3.1397,-3.1397,-3.2076,-3.2742,-3.3146,-3.3201,-3.3348,-3.3752,-3.3458,-3.3348,-3.3752,-3.344,-3.3366,-3.377,-3.3807,-3.3807,-3.3807,-3.3807,-3.3623,-3.322,-3.3587,-3.3807,-3.3807,-3.3807,-3.4412,-3.5646,-3.6083,-3.6909,-3.8102,-3.8505,-3.8707,0.0,0.0,0.0,0.0,0.0,0.0,0.0,0.0,-2.5569,-2.6162,-2.8472,-3.1447,-3.4864,-3.5489,-3.5489,-3.5502,-3.5501,-3.55,-3.55,-3.55,-3.55,-3.55,-3.55,-3.5885,-3.6865,-3.7584,-3.843,-3.9457,-4.0131,-4.0496,-4.0496,-4.1335,-4.1912,-4.2189,-4.3198,-4.4347,-4.5591,-4.4938,-4.3238,-4.0496,-4.0496,-4.0519,-4.0557,-4.0739,-4.0707,-4.0556,-4.0487,-4.0378,-4.015,-3.8623,-3.7892,-3.7603,-3.625,-3.6038,-3.6462,-3.6462,-3.6058,-3.55,-3.55,-3.55,-3.55,-3.55,-3.55,-3.55,-3.55,-3.55,-3.55,-3.55,-3.5304,-3.5044,-3.4764,-3.4445,-3.4135,-3.385,-3.3807,-3.3587,-3.2766,-3.2472,-3.2137,-3.1323,-3.1035,-3.0925,-3.0925,-3.0925,-3.1256,-3.2216,-3.2375,-3.2596,-3.3256,-3.2779,-3.2687,-3.3476,-3.2986,-3.2931,-3.3733,-3.3807,-3.3807,-3.3807,-3.3807,-3.3807,-3.3807,-3.3807,-3.3807,-3.3807,-3.3807,-3.4541,-3.6046,-3.6211,-3.7055,-3.8469,-3.8634,-3.8707,-2.2476,-2.3291,-2.4136,-2.4196,-2.4235,-2.4441,0.0,0.0,-2.9737,-2.9809,-3.0135,-3.1436,-3.4866,-3.549,-3.5502,-3.5494,-3.55,-3.55,-3.55,-3.55,-3.55,-3.55,-3.55,-3.6115,-3.77,-3.795,-3.8661,-4.0246,-4.0458,-4.0496,-4.0496,-4.1335,-4.1912,-4.2189,-4.2835,-4.3965,-4.5571,-4.2582,-4.0877,-4.0496,-4.0496,-4.0586,-4.077,-4.0788,-4.0784,-4.0716,-3.9906,-3.9496,-3.9361,-3.8392,-3.7546,-3.6827,-3.6635,-3.6173,-3.5635,-3.5635,-3.5577,-3.55,-3.55,-3.55,-3.55,-3.55,-3.55,-3.55,-3.55,-3.55,-3.55,-3.55,-3.5304,-3.5044,-3.4764,-3.4445,-3.4135,-3.385,-3.3807,-3.3587,-3.2766,-3.2045,-3.1305,-3.0485,-2.9769,-2.9262,-2.9262,-2.9262,-2.9776,-3.1311,-3.1531,-3.158,-3.1672,-3.1599,-3.1843,-3.2638,-3.2656,-3.2931,-3.3733,-3.3807,-3.3807,-3.3807,-3.3807,-3.3807,-3.3807,-3.3807,-3.3807,-3.3807,-3.3807,-3.4247,-3.5151,-3.5917,-3.6762,-3.7658,-3.8377,-3.8707,-2.231,-2.3229,-2.4298,-2.472,-2.4842,-2.4915,-2.5237,-2.7945,-3.0397,-3.0403,-3.0402,-3.0834,-3.2263,-3.4161,-3.5502,0.0,-3.55,-3.55,-3.55,-3.55,-3.55,-3.55,-3.5904,-3.6673,-3.7873,-3.8007,-3.87,-4.0362,-4.0496,-4.0496,-4.0496,-4.0854,-4.1085,-4.1208,-4.1458,-4.1909,-4.2633,-4.1208,-4.05,-4.0496,-4.0788,-4.0868,-4.08,-4.0963,-4.0708,-4.0109,-3.9073,-3.863,-3.8537,-3.7627,-3.7019,-3.6654,-3.6173,-3.5808,-3.55,-3.55,-3.55,-3.55,-3.55,-3.55,-3.55,-3.55,-3.55,-3.55,-3.55,-3.55,-3.55,-3.55,-3.5304,-3.5044,-3.4764,-3.4445,-3.4135,-3.385,-3.3807,-3.344,-3.2173,-3.1641,-3.1029,-2.9739,-2.9225,-2.9005,-2.9005,-2.9005,-2.9225,-2.9898,-3.0393,-3.087,-3.1342,-3.0993,-3.0999,-3.1825,-3.2742,-3.344,-3.377,-3.3807,-3.3807,-3.3807,-3.3807,-3.3807,-3.3807,-3.3807,-3.3807,-3.3807,-3.3807,-3.4211,-3.5004,-3.5371,-3.5991,-3.6831,-3.7639,-3.7991,-2.2811,-2.351,-2.4372,-2.5121,-2.53,-2.5298,-2.5296,-2.7226,-2.8988,-2.8989,-2.9729,-3.039,-3.04,-3.3186,-3.5496,-3.5501,-3.5507,-3.55,-3.55,-3.55,-3.5615,-3.593,-3.6404,-3.7142,-3.8257,-3.8142,-3.87,-4.0362,-4.0285,-4.0265,-4.0496,-4.0496,-4.0496,-4.0496,-4.0496,-4.0496,-4.0496,-4.0496,-4.05,-4.0514,-4.0978,-4.1098,-4.0903,-4.0857,-4.0421,-3.9622,-3.84,-3.7822,-3.7705,-3.6781,-3.6394,-3.6308,-3.5731,-3.55,-3.55,-3.55,-3.55,-3.55,-3.55,-3.55,-3.55,-3.55,-3.55,-3.55,-3.55,-3.55,-3.55,-3.55,-3.5304,-3.5044,-3.4764,-3.4445,-3.4135,-3.385,-3.3623,-3.3091,-3.1709,-3.1231,-3.065,-2.9262,-2.9005,-2.9005,-2.9005,-2.9005,-2.9005,-2.9005,-2.95,-3.0081,-3.065,-3.0613,-3.0742,-3.1342,-3.2834,-3.3807,-3.3807,-3.3807,-3.3807,-3.3807,-3.3807,-3.3807,-3.3807,-3.3807,-3.3807,-3.3807,-3.3807,-3.41,-3.4674,-3.4894,-3.5316,-3.5973,-3.6795,-3.718,-2.4144,-2.4173,-2.4383,-2.5113,-2.5291,-2.5293,-2.5311,-2.5388,-2.544,-2.5452,-2.8088,-3.0409,-3.039,-3.3197,-3.5502,-3.5496,-3.5501,-3.55,-3.55,-3.55,-3.5911,-3.7014,-3.6873,-3.7373,0.0,-3.8488,-3.87,-4.0362,-3.9785,-3.9688,-4.0458,-4.0496,-4.0496,-4.0496,-4.0496,-4.0496,-4.0496,-4.0496,-4.0509,-4.0511,-4.0974,-4.1193,-4.1168,-4.0327,-3.9857,-3.9607,-3.7948,-3.7112,-3.6864,-3.5993,-3.5595,-3.5538,-3.5519,-3.55,-3.55,-3.55,-3.55,-3.55,-3.55,-3.55,-3.55,-3.55,-3.55,-3.55,-3.55,-3.55,-3.55,-3.55,-3.5304,-3.5044,-3.4764,-3.4445,-3.4135,-3.385,-3.3201,-3.2399,-3.158,-3.0797,-2.9989,-2.9152,-2.9005,-2.9005,-2.9005,-2.9005,-2.9005,-2.9005,-2.9023,-2.906,-2.9078,-3.0411,-3.1378,-3.1397,-3.2834,-3.3807,-3.3807,-3.3807,-3.3807,-3.3807,-3.3807,-3.3807,-3.3807,-3.3807,-3.3807,-3.3807,-3.3807,-3.3807,-3.3844,-3.4619,-3.5023,-3.5059,-3.5936,-3.634,-2.4192,-2.4188,-2.4389,-2.5113,-2.5296,-2.5303,-2.5298,-2.5302,-2.5309,-2.5302,-2.6217,-2.7022,-2.702,-2.9811,-3.2863,-3.5123,-3.5501,-3.5494,-3.5494,-3.6456,-3.7098,-3.6892,-3.7796,0.0,-3.9246,0.0,0.0,-4.0362,-3.9746,-3.965,-4.0458,-4.0496,-4.0496,-4.0496,-4.0496,-4.0496,-4.0496,-4.0496,-4.0651,-4.0955,-4.031,-4.0118,-4.0289,-3.8847,-3.8144,-3.8042,-3.6851,-3.6291,-3.62,-3.5775,-3.5579,-3.5562,-3.5528,-3.55,-3.55,-3.55,-3.55,-3.55,-3.55,-3.55,-3.55,-3.55,-3.55,-3.55,-3.55,-3.55,-3.55,-3.55,-3.5304,-3.5044,-3.4764,-3.4445,-3.4135,-3.385,-3.3587,-3.3183,-3.2375,-3.1977,-3.1549,-3.0742,-3.0595,-3.0595,-3.0595,-3.0155,-2.961,-2.9078,-2.9005,-2.9005,-2.9005,-3.0393,-3.1397,-3.1397,-3.2834,-3.3807,-3.3807,-3.3807,-3.3807,-3.3807,-3.3807,-3.3807,-3.3807,-3.3807,-3.3807,-3.3807,-3.3807,-3.3807,-3.3807,-3.4082,-3.4197,-3.4215,-3.5041,-3.5445,-2.3874,-2.4388,-2.4707,-2.5183,-2.5291,-2.5298,-2.5302,-2.529,-2.5329,-2.5429,-2.5364,-2.5309,-2.5297,-2.8184,-3.1709,-3.5123,-3.5588,-3.5651,-3.6074,-3.7043,-3.7702,-3.7642,-3.8623,-3.9419,-3.9708,-3.895,0.0,-4.04,-3.9746,-3.965,-4.0458,-4.0496,-4.0496,-4.0504,-4.0496,-4.0496,-4.0504,-4.0506,-4.0423,-4.0261,-3.928,-3.9016,-3.9394,-3.7949,-3.7305,-3.7246,-3.6321,-3.5916,-3.5896,-3.5714,-3.5611,-3.5595,-3.5534,-3.55,-3.55,-3.55,-3.55,-3.55,-3.55,-3.55,-3.55,-3.55,-3.55,-3.55,-3.55,-3.55,-3.55,-3.55,-3.5376,-3.519,-3.4917,-3.4614,-3.43,-3.4006,-3.3661,-3.3238,-3.2711,-3.2362,-3.2027,-3.1507,-3.1397,-3.1323,-3.1029,-3.0301,-2.9684,-2.9464,-2.9427,-2.9427,-2.9427,-3.0577,-3.1513,-3.1806,-3.2999,-3.3807,-3.3807,-3.3807,-3.3807,-3.3807,-3.3807,-3.3807,-3.3807,-3.3807,-3.3807,-3.3807,-3.3807,-3.3807,-3.3807,-3.3807,-3.3807,-3.3807,-3.4325,-3.4564,-2.3393,-2.4766,-2.5309,-2.5296,-2.5302,-2.5307,-2.5298,-2.5309,-2.5379,-2.5654,-2.5498,-2.5313,-2.5321,-2.8512,-3.2182,-3.5353,-3.5665,-3.5906,-3.7044,-3.7244,-3.7765,0.0,0.0,0.0,-4.0439,0.0,0.0,-4.0439,0.0,-3.965,-4.0458,-4.0496,-4.0504,-4.0508,-4.0427,-4.0408,-4.0488,-4.0443,-3.9746,-3.8454,-3.7925,-3.7988,-3.8496,-3.7637,-3.7226,-3.7187,-3.6367,-3.5952,-3.5882,-3.5761,-3.5667,-3.5605,-3.5534,-3.55,-3.55,-3.55,-3.55,-3.55,-3.55,-3.55,-3.55,-3.55,-3.55,-3.55,-3.55,-3.55,-3.55,-3.55,-3.55,-3.5439,-3.5174,-3.4917,-3.4624,-3.4269,-3.342,-3.2682,-3.2656,-3.2063,-3.1525,-3.1525,-3.1525,-3.1268,-3.0467,-2.9684,-2.9427,-3.0099,-3.0246,-3.0246,-3.021,-3.0944,-3.1751,-3.2509,-3.333,-3.377,-3.3733,-3.3733,-3.3733,-3.3733,-3.3733,-3.3752,-3.3807,-3.3807,-3.3807,-3.3807,-3.3807,-3.3807,-3.3807,-3.3807,-3.3807,-3.3807,-3.3807,-3.3807,-2.4636,-2.5164,-2.5294,-2.5294,-2.5302,-2.5298,-2.5305,-2.5446,-2.5621,-2.5693,-2.5652,-2.5593,-2.5601,-3.058,0.0,-3.414,-3.4952,0.0,-3.5994,-3.7398,0.0,-3.8334,-3.9438,-4.0265,-4.0477,-4.0304,0.0,0.0,-3.9746,-3.965,-4.0458,-4.0496,-4.0504,-4.0508,-3.93,-3.9242,-4.0492,-3.9566,-3.8266,-3.6674,-3.7164,-3.748,-3.7598,-3.6738,-3.6328,-3.6328,-3.6094,-3.5996,-3.5953,-3.5783,-3.5689,-3.5667,-3.5546,-3.55,-3.55,-3.55,-3.55,-3.55,-3.55,-3.55,-3.55,-3.55,-3.55,-3.55,-3.55,-3.55,-3.55,-3.55,-3.55,-3.5439,-3.5174,-3.5062,-3.487,-3.4327,-3.3992,-3.3747,-3.3548,-3.333,-3.3183,-3.3183,-3.3183,-3.2926,-3.2124,-3.1812,-3.1335,-3.0356,-3.0705,-3.087,-3.0283,-3.1439,-3.2362,-3.2583,-3.333,-3.3568,-3.2949,-3.2913,-3.2913,-3.2913,-3.2913,-3.3183,-3.377,-3.3807,-3.3807,-3.3807,-3.3807,-3.3807,-3.3807,-3.3807,-3.3807,-3.3807,-3.3807,-3.3807,-2.5094,-2.5298,-2.5297,-2.5307,-2.5303,-2.5339,-2.5441,-2.5591,-2.5698,-2.5694,-2.5697,-2.569,-2.5695,-2.9709,-3.302,0.0,0.0,0.0,-3.6584,-3.7745,-3.8611,0.0,-3.9938,0.0,-4.0496,-4.0496,-4.0496,0.0,-4.0073,-4.0015,-4.0477,-4.0169,-4.0146,-4.0484,-3.8865,-3.8161,-3.8518,-3.7815,-3.698,-3.6001,-3.6502,-3.6738,-3.6719,-3.6211,-3.5996,-3.5996,0.0,-3.5996,-3.5996,-3.5855,-3.5758,-3.5689,-3.5574,-3.5534,-3.55,-3.55,-3.55,-3.55,-3.55,-3.55,-3.55,-3.55,-3.55,-3.55,-3.55,-3.55,-3.55,-3.55,-3.55,-3.5479,-3.5312,-3.519,-3.4971,-3.4521,-3.4311,-3.4123,-3.3868,-3.3807,-3.3807,-3.3807,-3.322,-3.2724,-3.2619,-3.172,-3.0821,-3.0283,-3.087,-3.125,-3.0779,-3.1825,-3.2729,-3.3091,-3.322,-3.3091,-3.2638,-3.2601,-3.2601,-3.2601,-3.2931,-3.333,-3.377,-3.3807,-3.3807,-3.3807,-3.3807,-3.3807,-3.3807,-3.3807,-3.3807,-3.3807,-3.3807,-3.3807,-2.5106,-2.5296,-2.5293,-2.5293,-2.5297,-2.5363,-2.5634,-2.5696,-2.5691,-2.5703,-2.5698,-2.5704,-2.5699,-2.7735,-3.0062,-3.2051,0.0,-3.4494,-3.7689,-3.8056,-3.8594,-4.015,-4.0439,-4.0458,-4.0342,-4.0342,-4.0285,-4.0189,-4.0169,-4.0227,-4.0323,-3.9688,-3.9569,-4.0145,-3.8549,-3.7127,-3.602,-3.5997,-3.6004,-3.5996,-3.5996,-3.5996,-3.5996,-3.5996,-3.5996,-3.5996,0.0,0.0,-3.5996,-3.5938,-3.5812,-3.5696,-3.5621,-3.5556,-3.55,-3.55,-3.55,-3.55,-3.55,-3.55,-3.55,-3.55,-3.55,-3.55,-3.55,-3.55,-3.55,-3.55,-3.55,-3.55,-3.55,-3.5339,-3.5049,-3.4671,-3.4414,-3.4157,-3.3773,-3.3742,-3.377,-3.366,-3.2504,-3.1751,-3.2339,-3.0693,-2.9519,-3.0118,-3.087,-3.136,-3.125,-3.2137,-3.3036,-3.3733,-3.3091,-3.2564,-3.2454,-3.2344,-3.2271,-3.2271,-3.2944,-3.3366,-3.3476,-3.3476,-3.3532,-3.3642,-3.3642,-3.3697,-3.3807,-3.3807,-3.3807,-3.3807,-3.3807,-3.3807,-2.5106,-2.5304,-2.5307,-2.5307,-2.529,-2.5379,-2.5644,-2.5697,-2.5703,-2.5703,-2.5703,-2.5702,-2.5702,-2.8398,-3.0722,-3.1132,-3.2968,-3.5027,-3.6952,-3.772,-3.844,0.0,-4.0092,-4.0246,-3.9573,-3.9515,0.0,0.0,0.0,-3.8738,-3.9477,-3.9381,-3.9034,-3.8445,-3.6815,-3.5948,-3.6001,-3.5992,-3.5994,-3.5996,-3.5996,-3.5996,-3.5996,-3.5996,-3.5996,-3.5996,0.0,0.0,-3.5996,-3.5938,-3.5812,-3.5696,-3.5621,-3.5556,-3.55,-3.55,-3.55,-3.55,-3.55,-3.55,-3.55,-3.55,-3.55,-3.55,-3.55,-3.55,-3.55,-3.55,-3.55,-3.55,-3.55,-3.5479,-3.5177,-3.4181,-3.4283,-3.4331,-3.3341,-3.348,-3.3605,-3.2931,-3.2583,-3.2228,-3.1696,-3.1256,-3.0797,-3.0283,-3.087,-3.1158,-3.0485,-3.2265,-3.3642,-3.3788,-3.3091,-3.2326,-3.1659,-3.0999,-3.0632,-3.0632,-3.076,-3.1109,-3.1801,-3.1819,-3.2137,-3.2803,-3.2803,-3.3146,-3.3807,-3.3807,-3.3807,-3.3807,-3.3807,-3.3807,-2.2597,-2.2699,-2.3115,-2.4864,-2.5392,-2.5537,-2.563,-2.5661,-2.5703,-2.5703,-2.5703,-2.5703,-2.5703,-2.7812,-2.9707,-3.0156,-3.1908,-3.4083,-3.6646,-3.7209,-3.7855,-3.9157,-3.965,-3.9554,-3.87,-3.8623,-3.845,0.0,0.0,-3.818,-3.8604,-3.8618,-3.8041,-3.6738,-3.592,-3.5605,-3.5833,-3.5939,-3.6002,-3.5996,-3.5996,-3.5996,-3.5996,-3.5996,-3.5996,-3.5996,0.0,0.0,-3.5996,-3.5972,-3.5892,-3.5797,-3.569,-3.5611,-3.5546,-3.5515,-3.55,-3.55,-3.55,-3.55,-3.55,-3.55,-3.55,-3.55,-3.55,-3.55,-3.55,-3.55,-3.55,-3.5404,-3.4949,-3.4814,-3.4536,-3.339,-3.3167,-3.2999,-3.2321,-3.2366,-3.243,-3.2045,-3.1641,-3.1237,-3.0834,-3.043,-3.0026,-2.9629,-3.0265,-3.0632,-3.0246,-3.1586,-3.254,-3.254,-3.221,-3.1641,-3.0834,-3.0411,-3.021,-3.021,-3.0595,-3.0999,-3.1378,-3.1397,-3.1568,-3.1971,-3.2381,-3.2784,-3.3183,-3.3605,-3.3807,-3.3807,-3.3807,-3.3807,-2.0299,-2.0294,-2.1092,-2.446,-2.5499,-2.5682,-2.5612,-2.5642,-2.5703,-2.5703,-2.5703,-2.5703,-2.5703,-2.7129,-2.8594,-2.9453,-3.1067,-3.3279,-3.6301,-3.6903,-3.7533,-3.8869,-3.9188,0.0,-3.7815,-3.7719,0.0,0.0,0.0,0.0,-3.7815,-3.7599,-3.6867,-3.5538,-3.549,-3.5596,-3.5762,-3.5914,-3.6,-3.5996,-3.5801,-3.582,-3.5996,-3.5801,-3.582,-3.5996,0.0,0.0,0.0,-3.5996,-3.5951,-3.5898,-3.5758,-3.5663,-3.559,-3.5528,-3.55,-3.5462,-3.5288,-3.5346,-3.5442,-3.5058,-3.5192,-3.55,-3.55,-3.5365,-3.5212,-3.5212,-3.5096,-3.4788,-3.4103,-3.3917,-3.3678,-3.2741,-3.2043,-3.1581,-3.15,-3.1434,-3.136,-3.1182,-3.0632,-3.0155,-2.9971,-2.9427,-2.9005,-2.9005,-2.9537,-2.9953,-2.9953,-3.065,-3.1085,-3.0889,-3.1035,-3.0889,-3.0246,-3.0044,-2.9953,-2.9953,-3.054,-3.0889,-3.0889,-3.0889,-3.0962,-3.114,-3.177,-3.2161,-3.2339,-3.3146,-3.3532,-3.355,-3.3715,-3.3807,-2.0305,-2.0295,-2.1099,-2.4463,-2.5509,-2.5682,-2.5612,-2.5642,-2.5703,-2.5703,-2.5703,-2.5703,-2.5703,-2.7129,-2.8594,-2.9453,0.0,-3.3852,-3.5587,-3.7164,-3.8147,-3.812,0.0,0.0,-3.6981,-3.6808,0.0,0.0,0.0,0.0,0.0,-3.6295,-3.5654,-3.55,-3.549,-3.5654,-3.5979,-3.5992,-3.6,-3.5996,-3.5195,-3.5234,-3.5976,-3.5176,-3.5254,-3.5996,0.0,0.0,0.0,-3.5996,-3.5951,-3.5898,-3.5758,-3.5663,-3.559,-3.5528,-3.55,-3.5385,-3.4584,-3.4834,-3.5231,-3.366,-3.4212,-3.55,-3.55,-3.4949,-3.4321,-3.4321,-3.3757,-3.3122,-3.3045,-3.3026,-3.2923,-3.2581,-3.1715,-3.1129,-3.1648,-3.1572,-3.1182,-3.0448,-3.0246,-2.9971,-2.9244,-2.906,-2.9005,-2.9005,-2.906,-2.9115,-2.9115,-2.9812,-3.0026,-2.9299,-2.9879,-3.0283,-3.021,-2.9537,-2.9115,-2.9115,-2.9189,-2.9225,-2.9225,-2.9225,-2.9555,-3.0301,-3.0393,-3.0779,-3.1513,-3.232,-3.2711,-3.2729,-3.3458,-3.3807,-2.0293,-2.0292,-2.086,-2.3219,-2.4681,-2.5563,-2.5552,-2.5622,-2.5703,-2.5703,-2.5703,-2.5703,-2.5703,-2.6699,-2.7793,-2.8672,-3.0005,-3.1867,-3.4535,-3.5456,-3.618,-3.7118,-3.7526,0.0,0.0,0.0,0.0,0.0,0.0,0.0,0.0,-3.575,-3.5489,-3.5498,-3.5504,-3.4675,-3.2954,-3.3926,-3.4431,-3.4434,-3.4082,-3.4101,-3.4414,-3.4082,-3.4101,-3.4434,0.0,0.0,0.0,-3.4648,-3.4725,-3.5168,-3.5071,-3.4675,-3.4209,-3.4626,-3.4416,-3.3891,-3.3545,-3.3641,-3.3814,-3.3122,-3.3372,-3.3949,-3.3949,-3.3699,-3.341,-3.341,-3.316,-3.2795,-3.2295,-3.1795,-3.1322,-3.1061,-3.0585,-3.0217,-3.0329,-3.0142,-2.9849,-2.9537,-2.9482,-2.9372,-2.906,-2.9005,-2.9005,-2.9005,-2.9005,-2.9005,-2.9005,-2.928,-2.9354,-2.9023,-2.9721,-3.0008,-2.9519,-2.9189,-2.9005,-2.9005,-2.9005,-2.9005,-2.9005,-2.9005,-2.9152,-2.9464,-2.9941,-3.0595,-3.1397,-3.221,-3.2839,-3.333,-3.3642,-3.3807,-2.0308,-2.102,-2.2062,-2.3249,-2.4542,-2.5524,-2.5493,-2.5603,-2.5703,-2.5703,-2.5918,-2.6016,-2.5742,-2.6836,-2.7891,0.0,-2.9521,-3.1318,-3.3715,-3.4801,-3.5682,-3.6584,0.0,-3.7046,0.0,0.0,0.0,0.0,0.0,0.0,0.0,-3.5496,-3.55,-3.5509,-3.4614,-3.3104,-3.0915,-3.2417,-3.3242,-3.3398,-3.3164,-3.3164,-3.3398,-3.3144,-3.3164,0.0,0.0,0.0,0.0,-3.3652,-3.3769,-3.4316,-3.4237,-3.3811,-3.329,-3.3749,-3.3492,-3.2894,-3.2634,-3.2699,-3.2814,-3.2314,-3.2333,-3.2506,-3.2237,-3.2333,-3.2545,-3.2545,-3.2352,-3.2025,-3.1462,-3.0865,-3.0355,-3.0157,-2.9958,-2.972,-2.9542,-2.9291,-2.9089,-2.9017,-2.9005,-2.9005,-2.9005,-2.9005,-2.9005,-2.9005,-2.9005,-2.9005,-2.9005,-2.9005,-2.9005,-2.9005,-2.95,-2.961,-2.906,-2.9005,-2.9005,-2.9005,-2.9005,-2.9005,-2.9005,-2.9005,-2.9115,-2.9354,-2.9684,-3.0246,-3.1048,-3.1623,-3.2192,-3.2742,-3.2981,-3.3091,-2.0308,-2.2714,-2.5247,-2.5263,-2.5437,-2.5583,-2.5513,-2.5603,-2.5703,-2.5703,-2.6387,-2.6719,-2.5859,-2.7812,-2.9297,-2.8437,-3.108,-3.3243,-3.3226,-3.6018,-3.7711,0.0,0.0,-3.8584,-3.6865,0.0,0.0,0.0,0.0,0.0,0.0,-3.5502,-3.5509,-3.5489,-3.2544,-3.0937,-3.0895,-3.2046,-3.2871,-3.3398,-3.2598,-3.2637,-3.3379,-3.2578,0.0,0.0,0.0,0.0,0.0,-3.3398,-3.3418,-3.3418,-3.3339,-3.3301,-3.3288,-3.3087,-3.3016,-3.288,-3.2016,-3.2237,-3.2622,-3.0962,-3.1,-3.1545,-3.0692,-3.1019,-3.1718,-3.1718,-3.1096,-3.0423,-3.0423,-3.0404,-3.0404,-3.0404,-3.0196,-2.9947,-2.9748,-2.9542,-2.932,-2.9044,-2.9005,-2.9005,-2.9005,-2.9005,-2.9005,-2.9005,-2.9005,-2.9005,-2.9005,-2.9005,-2.9005,-2.9005,-2.9005,-2.9005,-2.9005,-2.9005,-2.9005,-2.9005,-2.9005,-2.9005,-2.9005,-2.9005,-2.9372,-3.0173,-2.9409,-2.9409,-3.021,-3.0228,-3.0228,-3.0265,-3.1054,-3.1415,-2.3582,-2.449,-2.5306,-2.5302,-2.545,-2.5574,-2.5513,-2.5603,-2.5879,-2.6465,-2.6816,-2.7109,-2.7422,-2.8144,-2.9004,-2.9922,-3.0846,0.0,-3.3848,0.0,0.0,-3.5834,-3.6365,-3.6481,0.0,0.0,0.0,0.0,0.0,0.0,0.0,-3.5503,-3.549,-3.5492,-3.2519,-3.09,-3.0894,-3.1269,-3.1523,-3.1699,-3.1426,-3.1445,-3.168,-3.1426,0.0,0.0,0.0,0.0,0.0,-3.1934,-3.2031,-3.2578,-3.2556,-3.2136,-3.1583,-3.2065,-3.1841,-3.125,-3.0918,-3.0981,-3.1096,-3.0577,-3.0596,-3.075,-3.0481,-3.0596,-3.0808,-3.0808,-3.0615,-3.0404,-3.0404,-3.0404,-3.0404,-3.0404,-3.0196,-2.9947,-2.9738,-2.9533,-2.932,-2.9044,-2.9005,-2.9005,-2.9005,-2.9005,-2.9005,-2.9005,-2.9005,-2.9005,-2.9005,-2.9005,-2.9005,-2.9005,-2.9005,-2.9005,-2.9005,-2.9005,-2.9005,-2.9005,-2.9005,-2.9244,-2.9794,-2.9824,-3.021,-3.0999,-3.0228,-3.0228,-3.1029,-3.0467,-3.0485,-3.1017,-3.1286,-3.1397,-2.5089,-2.5291,-2.5298,-2.5298,-2.541,-2.5518,-2.5506,-2.5573,-2.5916,-2.6816,-2.7266,-2.7656,-2.8203,-2.8848,-2.9531,-3.0293,-3.1084,0.0,0.0,0.0,0.0,-3.636,0.0,0.0,0.0,0.0,0.0,0.0,0.0,0.0,0.0,0.0,-3.4975,-3.3806,-3.1893,-3.0901,-3.0898,-3.0898,-3.0898,-3.0898,-3.0898,-3.0898,-3.0898,-3.0898,0.0,0.0,0.0,0.0,0.0,-3.1113,-3.1211,-3.1719,-3.1719,-3.1326,-3.0826,-3.1274,-3.105,-3.0525,-3.0462,-3.0417,-3.0404,-3.0404,-3.0404,-3.0404,-3.0404,-3.0404,-3.0404,-3.0404,-3.0404,-3.0404,-3.0404,-3.0404,-3.0404,-3.0404,-3.0267,-3.0095,-2.9861,-2.9652,-2.9435,-2.9192,-2.9067,-2.9005,-2.9005,-2.9005,-2.9005,-2.9005,-2.9005,-2.9005,-2.9005,-2.9005,-2.9005,-2.9005,-2.9005,-2.9005,-2.9005,-2.9005,-2.9005,-2.9005,-2.9005,-2.9225,-2.9721,-2.9739,-3.0136,-3.0925,-3.0173,-3.0136,-3.0944,-3.0136,-3.0008,-3.0485,-3.0485,-3.0485,0.0,-2.5265,-2.5274,-2.5303,-2.5346,-2.5418,-2.5476,-2.5554,0.0,-2.6894,-2.7734,-2.8359,-2.8535,-2.9902,-3.0762,-3.0078,-3.1882,0.0,0.0,-3.5359,0.0,0.0,-3.7123,0.0,0.0,0.0,0.0,0.0,0.0,0.0,0.0,0.0,-3.3832,-3.0992,-3.0893,-3.0907,-3.0898,-3.0898,-3.0898,-3.0898,-3.0898,-3.0898,-3.0898,-3.0898,0.0,0.0,0.0,0.0,0.0,-3.0898,-3.0898,-3.0898,-3.0898,-3.0898,-3.0879,-3.0746,-3.0663,-3.0594,-3.0517,-3.0452,-3.0404,-3.0404,-3.0404,-3.0404,-3.0404,-3.0404,-3.0404,-3.0404,-3.0404,-3.0404,-3.0404,-3.0404,-3.0404,-3.0404,-3.0404,-3.0336,-3.0061,-2.9845,-2.9634,-2.9434,-2.9171,-2.9005,-2.9005,-2.9005,-2.9005,-2.9005,-2.9005,-2.9005,-2.9005,-2.9005,-2.9005,-2.9005,-2.9005,-2.9005,-2.9005,-2.9005,-2.9005,-2.9005,-2.9005,-2.9023,-2.9078,-2.9097,-2.9464,-3.0265,-2.95,-2.9427,-3.0118,-2.9354,-2.9005,-2.9005,-2.9005,-2.9005,-2.4911,0.0,-2.5042,-2.5244,-2.5346,-2.5418,0.0,-2.5554,-2.6059,-2.7656,-2.8164,-2.8906,-3.0918,-3.1621,-3.2246,-3.332,0.0,-3.4495,-3.5032,0.0,0.0,-3.6065,0.0,0.0,0.0,0.0,0.0,0.0,0.0,0.0,0.0,0.0,-3.1388,-3.0911,-3.0896,-3.0898,-3.0898,-3.0898,-3.0898,-3.0898,-3.0898,-3.0898,-3.0898,-3.0898,0.0,0.0,0.0,0.0,0.0,-3.0898,-3.0898,-3.0898,-3.0898,-3.0898,-3.0879,-3.0746,-3.0663,-3.0594,-3.0517,-3.0452,-3.0404,-3.0404,-3.0404,-3.0404,-3.0404,-3.0404,-3.0404,-3.0404,-3.0404,-3.0404,-3.0404,-3.0404,-3.0404,-3.0404,-3.0404,-3.0336,-3.0061,-2.9845,-2.9634,-2.9434,-2.9171,-2.9005,-2.9005,-2.9005,-2.9005,-2.9005,-2.9005,-2.9005,-2.9005,-2.9005,-2.9005,-2.9005,-2.9005,-2.9005,-2.9005,-2.9005,-2.9005,-2.9005,-2.9005,-2.928,-2.9886,-2.9922,-3.0301,-3.1103,-3.0338,-2.9702,-2.928,-2.9097,-2.9005,-2.9005,-2.9005,-2.9005,-2.4663,-2.4836,-2.5097,-2.5739,-2.561,-2.548,-2.5942,-2.5785,-2.5959,-2.7375,-2.8007,-2.8848,-3.0664,-3.166,-3.25,-3.3418,-3.4148,0.0,0.0,0.0,-3.55,-3.55,0.0,0.0,0.0,0.0,0.0,0.0,0.0,0.0,0.0,0.0,-3.0716,-3.0892,-3.0898,-3.0898,-3.0898,-3.0898,-3.0898,-3.0898,-3.0898,-3.0898,-3.0898,-3.0898,0.0,0.0,0.0,0.0,-3.0898,-3.0898,-3.0898,-3.0898,-3.0837,-3.0814,-3.0793,-3.068,-3.062,-3.0556,-3.0501,-3.0452,-3.0404,-3.0404,-3.0404,-3.0404,-3.0404,-3.0404,-3.0404,-3.0404,-3.0404,-3.0404,-3.0404,-3.0404,-3.0404,-3.0404,-3.0404,-3.0336,-3.0061,-2.9845,-2.9634,-2.9434,-2.9171,-2.9005,-2.9005,-2.9005,-2.9005,-2.9005,-2.9005,-2.9005,-2.9005,-2.9005,-2.9005,-2.9005,-2.9005,-2.9005,-2.9005,-2.9005,-2.9005,-2.9005,-2.9005,-2.9207,-2.9629,-2.9647,-2.9861,-3.0283,-2.9879,-2.9445,-2.9005,-2.9005,-2.9005,-2.9005,-2.9005,-2.9005,-2.4462,-2.473,-2.5182,-2.6115,-2.5812,-2.5515,-2.6323,-2.5968,-2.5749,-2.6681,-2.7628,-2.8632,-2.9743,-3.1289,-3.2461,0.0,0.0,0.0,-3.5524,-3.5534,-3.55,0.0,0.0,0.0,0.0,0.0,0.0,0.0,0.0,0.0,0.0,0.0,0.0,-3.0898,-3.0896,-3.0898,-3.0898,-3.0898,-3.0898,-3.0898,-3.0898,-3.0898,-3.0898,-3.0898,0.0,0.0,0.0,0.0,-3.0898,-3.0898,-3.0898,-3.0898,-3.0746,-3.0695,-3.069,-3.0614,-3.057,-3.0498,-3.05,-3.0456,-3.0404,-3.0404,-3.0404,-3.0404,-3.0404,-3.0404,-3.0404,-3.0404,-3.0404,-3.0404,-3.0404,-3.0404,-3.0404,-3.0404,-3.0404,-3.0336,-3.0061,-2.9845,-2.9634,-2.9434,-2.9171,-2.9005,-2.9005,-2.9005,-2.9005,-2.9005,-2.9005,-2.9005,-2.9005,-2.9005,-2.9005,-2.9005,-2.9005,-2.9005,-2.9005,-2.9005,-2.9005,-2.9005,-2.9005,-2.9005,-2.9005,-2.9005,-2.9005,-2.9005,-2.9005,-2.9005,-2.9005,-2.9005,-2.9005,-2.9005,-2.9005,-2.9005,-2.4462,-2.467,-2.4907,-2.5176,-2.5264,-2.5341,-2.5557,-2.5498,-2.5674,-2.6629,-2.756,-2.8901,-3.114,-3.2464,-3.3671,0.0,0.0,-3.555,0.0,0.0,0.0,0.0,0.0,0.0,0.0,0.0,0.0,0.0,0.0,0.0,0.0,0.0,0.0,-3.0897,-3.0898,-3.0898,-3.0898,-3.0898,-3.0898,-3.0898,-3.0898,-3.0898,-3.0898,-3.0898,-3.0898,0.0,0.0,0.0,-3.0898,-3.0898,-3.0898,-3.0898,-3.0746,-3.0695,-3.069,-3.0614,-3.057,-3.0485,-3.0444,-3.0402,-3.0404,-3.0404,-3.0404,-3.0404,-3.0404,-3.0404,-3.0404,-3.0404,-3.0404,-3.0404,-3.0404,-3.0404,-3.0404,-3.0404,-3.0404,-3.0336,-3.0061,-2.9845,-2.9634,-2.9434,-2.9171,-2.9005,-2.9005,-2.9005,-2.9005,-2.9005,-2.9005,-2.9005,-2.9005,-2.9005,-2.9005,-2.9005,-2.9005,-2.9005,-2.9005,-2.9005,-2.9005,-2.9005,-2.9005,-2.9005,-2.9005,-2.9005,-2.9005,-2.9005,-2.9005,-2.9005,-2.9005,-2.9005,-2.9005,-2.9005,-2.9005,-2.9005,-2.4312,-2.4551,-2.492,-2.542,-2.5765,-2.6251,-2.7195,-2.7084,-2.6924,-2.7359,-2.8174,-2.9297,-3.0898,0.0,-3.383,-3.547,0.0,-3.5616,0.0,0.0,0.0,0.0,0.0,0.0,0.0,0.0,0.0,0.0,0.0,0.0,0.0,0.0,0.0,0.0,-3.0898,-3.0898,-3.0898,-3.0898,-3.0898,-3.0898,-3.0898,-3.0898,-3.0898,-3.0898,-3.0898,0.0,0.0,-3.0898,-3.0898,-3.0898,-3.0898,-3.0898,-3.0746,-3.068,-3.0621,-3.0525,-3.0463,-3.0441,-3.0408,-3.0404,-3.0404,-3.0404,-3.0404,-3.0404,-3.0404,-3.0404,-3.0404,-3.0404,-3.0404,-3.0404,-3.0404,-3.0404,-3.0404,-3.0404,-3.0404,-3.0336,-3.0061,-2.9845,-2.9634,-2.9434,-2.9171,-2.9005,-2.9005,-2.9005,-2.9005,-2.9005,-2.9005,-2.9005,-2.9005,-2.9005,-2.9005,-2.9005,-2.9005,-2.9005,-2.9005,-2.9005,-2.9005,-2.9005,-2.9005,-2.9005,-2.9005,-2.9005,-2.9005,-2.9005,-2.9005,-2.9005,-2.9005,-2.9005,-2.9005,-2.9005,-2.9005,-2.9005,-2.3914,-2.4322,-2.4934,-2.5797,-2.6149,-2.6736,-2.8434,-2.8391,-2.7989,-2.7989,-2.883,-2.9781,0.0,-3.2147,0.0,-3.5103,-3.5475,0.0,0.0,0.0,0.0,0.0,0.0,0.0,0.0,0.0,0.0,0.0,0.0,0.0,0.0,0.0,0.0,0.0,-3.0508,-3.0391,-3.0586,-3.0391,-3.0508,-3.0898,-3.0898,-3.0898,-3.0898,-3.0898,-3.0898,-3.0898,-3.0898,-3.0898,-3.0898,-3.0898,-3.0898,-3.0898,-3.0746,-3.0657,-3.0558,-3.0462,-3.0414,-3.0404,-3.0404,-3.0404,-3.0404,-3.0404,-3.0404,-3.0404,-3.0404,-3.0404,-3.0404,-3.0404,-3.0404,-3.0404,-3.0404,-3.0404,-3.0404,-3.0404,-3.0404,-3.0336,-3.0061,-2.9845,-2.9634,-2.9434,-2.9171,-2.9005,-2.9005,-2.9005,-2.9005,-2.9005,-2.9005,-2.9005,-2.9005,-2.9005,-2.9005,-2.9005,-2.9005,-2.9005,-2.9005,-2.9005,-2.9005,-2.9005,-2.9005,-2.9005,-2.9005,-2.9005,-2.9005,-2.9005,-2.9005,-2.9005,-2.9005,-2.9005,-2.9005,-2.9005,-2.9005,-2.9005,-2.3098,-2.3793,-2.4765,-2.5759,-2.5685,-2.5846,-2.7582,-2.7958,-2.7906,-2.7906,-2.9231,-3.0418,-3.0403,-3.2506,-3.427,-3.4376,-3.5068,0.0,0.0,0.0,0.0,0.0,0.0,0.0,0.0,0.0,0.0,0.0,0.0,0.0,0.0,0.0,0.0,0.0,0.0,-2.8887,-2.9687,-2.8887,-2.9297,-3.0898,-3.0898,-3.0898,-3.0898,-3.0898,-3.0898,-3.0898,-3.0898,-3.0898,-3.0898,-3.0898,-3.0898,-3.0898,-3.0746,-3.0611,-3.0511,-3.0494,-3.0447,-3.0404,-3.0404,-3.0404,-3.0404,-3.0404,-3.0404,-3.0404,-3.0404,-3.0404,-3.0404,-3.0404,-3.0404,-3.0404,-3.0404,-3.0404,-3.0404,-3.0404,-3.0404,-3.0336,-3.0061,-2.9845,-2.9634,-2.9434,-2.9171,-2.9005,-2.9005,-2.9005,-2.9005,-2.9005,-2.9005,-2.9005,-2.9005,-2.9005,-2.9005,-2.9005,-2.9005,-2.9005,-2.9005,-2.9005,-2.9005,-2.9005,-2.9005,-2.9005,-2.9005,-2.9005,-2.9005,-2.9005,-2.9005,-2.9005,-2.9005,-2.9005,-2.9005,-2.9005,-2.9005,-2.9005,-2.3006,-2.4108,-2.5332,-2.5712,-2.5842,-2.6355,-2.822,-2.9063,-2.9621,-3.016,-3.0783,-3.1248,-3.1204,0.0,-3.3431,-3.3431,0.0,0.0,0.0,0.0,0.0,0.0,0.0,0.0,0.0,0.0,0.0,0.0,0.0,0.0,0.0,0.0,0.0,0.0,0.0,-2.8086,-2.8789,-2.8457,-2.8633,-2.9277,-2.9277,-2.9277,-2.9297,-2.9844,-3.0098,-3.0117,-3.0664,-3.0898,-3.0898,-3.0898,-3.0898,-3.0879,-3.07,-3.0614,-3.0544,-3.0477,-3.0417,-3.0404,-3.0404,-3.0404,-3.0404,-3.0404,-3.0404,-3.0404,-3.0404,-3.0404,-3.0404,-3.0404,-3.0404,-3.0404,-3.0404,-3.0404,-3.0404,-3.0404,-3.0404,-3.0521,-3.0964,-3.0863,-3.0785,-3.1083,-3.0918,-3.0528,-2.986,-2.9739,-2.9574,-2.9078,-2.9005,-2.9005,-2.9005,-2.9005,-2.9005,-2.9005,-2.9005,-2.9005,-2.9005,-2.9005,-2.9005,-2.9005,-2.9005,-2.9005,-2.9005,-2.9005,-2.9005,-2.9005,-2.9005,-2.9005,-2.9005,-2.9005,-2.9005,-2.9005,-2.9005,-2.9005,-2.2933,-2.4091,-2.5328,-2.5706,-2.5967,-2.6663,-2.8658,-2.9563,-3.0237,-3.1115,-3.1288,-3.1288,-3.1288,0.0,0.0,0.0,0.0,0.0,0.0,0.0,0.0,0.0,0.0,0.0,0.0,0.0,0.0,0.0,0.0,0.0,0.0,0.0,0.0,0.0,0.0,0.0,-2.7871,-2.7617,-2.748,-2.748,-2.748,-2.7773,-2.832,-2.8926,-2.9199,-2.9238,-3.0117,-3.0488,-3.0508,-3.0781,-3.0898,-3.0898,-3.075,-3.0662,-3.0591,-3.0509,-3.0444,-3.0404,-3.0404,-3.0404,-3.0404,-3.0404,-3.0404,-3.0404,-3.0404,-3.0404,-3.0404,-3.0404,-3.0404,-3.0404,-3.0404,-3.0404,-3.0404,-3.0404,-3.0404,-3.0635,-3.1506,-3.1485,-3.1424,-3.1846,-3.1843,-3.141,-3.0157,-3.0085,-2.9934,-2.9115,-2.9005,-2.9005,-2.9005,-2.9005,-2.9005,-2.9005,-2.9005,-2.9005,-2.9005,-2.9005,-2.9005,-2.9005,-2.9005,-2.9005,-2.9005,-2.9005,-2.9005,-2.9005,-2.9005,-2.9005,-2.9005,-2.9005,-2.9005,-2.9005,-2.9005,-2.9005,-2.2786,-2.3584,-2.4506,-2.5705,-2.6012,-2.6558,-2.8641,-2.9107,-2.9357,-3.0231,-3.0404,-3.0404,-3.0404,-3.1115,0.0,0.0,0.0,0.0,0.0,0.0,0.0,0.0,0.0,0.0,0.0,0.0,0.0,0.0,0.0,0.0,0.0,0.0,0.0,0.0,0.0,0.0,-2.6973,-2.6133,-2.5703,-2.5703,-2.5703,-2.6602,-2.8281,-2.8281,-2.8281,-2.834,-2.9219,-2.9609,-2.9668,-3.0547,-3.0898,-3.0898,-3.0898,-3.0781,-3.0603,-3.0603,-3.052,-3.0404,-3.0404,-3.0404,-3.0404,-3.0404,-3.0404,-3.0404,-3.0404,-3.0404,-3.0404,-3.0404,-3.0404,-3.0404,-3.0404,-3.0404,-3.0404,-3.0404,-3.0404,-3.0635,-3.1506,-3.1511,-3.1299,-3.1318,-3.1591,-3.1326,-2.9692,-2.9854,-2.9934,-2.9115,-2.9005,-2.9005,-2.9005,-2.9005,-2.9005,-2.9005,-2.9005,-2.9005,-2.9005,-2.9005,-2.9005,-2.9005,-2.9005,-2.9005,-2.9005,-2.9005,-2.9005,-2.9005,-2.9005,-2.9005,-2.9005,-2.9005,-2.9005,-2.9005,-2.9005,-2.9005,-2.2933,-2.4109,-2.5328,-2.5697,-2.6435,-2.7385,-2.8606,-2.9473,-3.025,-3.1135,-3.1308,-3.1135,-3.0519,-3.0615,0.0,0.0,0.0,0.0,0.0,0.0,0.0,0.0,0.0,0.0,0.0,0.0,0.0,0.0,0.0,0.0,0.0,0.0,0.0,0.0,0.0,0.0,-2.6074,-2.582,-2.5703,-2.5703,-2.5703,-2.5977,-2.6484,-2.7109,-2.7383,-2.7461,-2.8965,-2.9609,-2.9668,-3.0547,-3.0898,-3.0898,-3.0793,-3.0698,-3.0597,-3.0556,-3.0467,-3.0404,-3.0404,-3.0404,-3.0404,-3.0404,-3.0404,-3.0404,-3.0404,-3.0404,-3.0404,-3.0404,-3.0404,-3.0404,-3.0404,-3.0404,-3.0404,-3.0404,-3.0404,-3.0635,-3.1506,-3.2084,-3.2375,-3.2184,-3.3204,-3.3308,-3.0686,-3.0838,-3.0802,-2.9223,-2.9005,-2.9005,-2.9005,-2.9005,-2.9005,-2.9005,-2.9005,-2.9005,-2.9005,-2.9005,-2.9005,-2.9005,-2.9005,-2.9005,-2.9005,-2.9005,-2.9005,-2.9005,-2.9005,-2.9005,-2.9005,-2.9005,-2.9005,-2.9005,-2.9005,-2.9005,-2.3391,-2.433,-2.5388,-2.6149,-2.6938,-2.7783,-2.8715,-2.9697,-3.0442,-3.0621,-3.066,-3.041,-2.9563,-2.941,0.0,0.0,0.0,0.0,0.0,0.0,0.0,0.0,0.0,0.0,0.0,0.0,0.0,0.0,0.0,0.0,0.0,0.0,0.0,0.0,0.0,0.0,-2.5703,-2.5703,-2.5703,-2.5703,-2.5703,-2.5703,-2.5723,-2.623,-2.6484,-2.6562,-2.7969,-2.8769,-2.9121,-2.9648,-3.0078,-3.0371,-3.0287,-3.042,-3.0621,-3.0561,-3.0494,-3.0449,-3.0408,-3.0404,-3.0404,-3.0404,-3.0404,-3.0404,-3.0404,-3.0404,-3.0404,-3.0404,-3.0404,-3.0404,-3.0404,-3.0404,-3.0404,-3.0404,-3.0404,-3.0635,-3.1506,-3.2083,-3.2378,-3.2199,-3.3199,-3.3278,-3.079,-3.0959,-3.092,-2.9377,-2.9167,-2.9192,-2.9262,-2.9272,-2.9249,-2.9178,-2.9167,-2.9123,-2.9017,-2.9005,-2.9005,-2.9005,-2.9005,-2.9005,-2.9005,-2.9005,-2.9005,-2.9005,-2.9005,-2.9005,-2.9005,-2.9005,-2.9005,-2.9005,-2.9005,-2.9005,-2.4006,-2.4357,-2.4949,-2.6733,-2.7407,-2.7867,-2.8772,-2.9602,-2.9942,-2.9146,0.0,-2.878,-2.803,-2.7895,0.0,0.0,0.0,0.0,0.0,0.0,0.0,0.0,0.0,0.0,0.0,0.0,0.0,0.0,0.0,0.0,0.0,0.0,0.0,0.0,0.0,0.0,-2.5703,-2.5703,-2.5703,0.0,-2.5703,-2.5703,-2.5703,-2.5703,-2.5742,-2.5859,-2.666,-2.748,-2.8301,-2.8301,-2.8769,-2.9473,-2.9473,-2.9877,-3.045,-3.0475,-3.0447,-3.037,-3.0398,-3.0404,-3.0404,-3.0404,-3.0404,-3.0404,-3.0404,-3.0404,-3.0404,-3.0404,-3.0404,-3.0404,-3.0404,-3.0404,-3.0404,-3.0404,-3.0404,-3.0615,-3.141,-3.1641,-3.1679,-3.1602,-3.2098,-3.2004,-3.0292,-3.0519,-3.0584,-2.9576,-2.9404,-2.9465,-2.967,-2.9705,-2.9625,-2.9444,-2.9424,-2.9341,-2.9089,-2.9067,-2.9067,-2.9067,-2.9067,-2.9055,-2.9051,-2.9051,-2.9051,-2.9051,-2.9051,-2.9044,-2.9067,-2.9044,-2.9044,-2.9067,-2.9044,-2.9051,-2.4153,-2.4461,-2.4979,-2.6031,-2.7051,-2.7896,-2.8115,-2.8294,-2.8371,-2.8203,-2.8165,-2.8107,-2.7934,0.0,0.0,0.0,0.0,0.0,0.0,0.0,0.0,0.0,0.0,0.0,0.0,0.0,0.0,0.0,0.0,0.0,0.0,0.0,0.0,0.0,0.0,-2.5703,-2.5703,-2.5703,-2.5703,0.0,-2.5703,-2.5703,-2.5703,-2.5703,-2.6074,-2.6738,-2.6914,-2.748,-2.8301,-2.8301,-2.8418,-2.8574,-2.8574,-2.8618,-2.8737,-2.9358,-2.9505,-2.9498,-3.0165,-3.0404,-3.0404,-3.0404,-3.0404,-3.0404,-3.0404,-3.0404,-3.0404,-3.0404,-3.0404,-3.0404,-3.0404,-3.0404,-3.0404,-3.0404,-3.0404,-3.0442,-3.0635,-3.1212,-3.1506,-3.0808,-3.184,-3.221,-3.034,-3.0681,-3.0845,-2.9801,-2.9494,-2.9465,-2.967,-2.9705,-2.9687,-2.9634,-2.9644,-2.9607,-2.9551,-2.9551,-2.9551,-2.9551,-2.9551,-2.9475,-2.932,-2.931,-2.931,-2.931,-2.931,-2.9385,-2.9542,-2.9385,-2.9404,-2.9542,-2.9394,-2.931,-2.419,-2.4495,-2.5036,-2.604,-2.7092,-2.7799,-2.7371,-2.7274,-2.7159,-2.6736,-2.6986,-2.7159,0.0,0.0,0.0,0.0,0.0,0.0,0.0,0.0,0.0,0.0,0.0,0.0,0.0,0.0,0.0,0.0,0.0,0.0,0.0,0.0,0.0,0.0,-2.5703,-2.5703,-2.5703,-2.5703,-2.5703,-2.5703,-2.5703,-2.5703,-2.5703,-2.5703,-2.5957,-2.6387,-2.6387,-2.6641,-2.7051,-2.7051,-2.7305,-2.7676,-2.7676,-2.7885,-2.8246,-2.8581,-2.8676,-2.8726,-2.9511,-2.9775,-2.9852,-3.0269,-3.0404,-3.0404,-3.0404,-3.0404,-3.0404,-3.0404,-3.0404,-3.0404,-3.0404,-3.0404,-3.0404,-3.0404,-3.0404,-3.0404,-3.0404,-3.075,-3.0942,-3.05,-3.1115,-3.1379,-3.0369,-3.0452,-3.0521,-3.0106,-2.9832,-2.9773,-3.0007,-3.003,-2.9992,-2.9853,-2.9845,-2.9804,-2.9713,-2.9705,-2.9705,-2.9705,-2.9705,-2.9652,-2.9561,-2.9644,-2.9598,-2.9412,-2.9494,-2.9598,-2.9705,-2.9598,-2.9598,-2.9696,-2.9598,-2.9533,-2.419,-2.4495,-2.5046,-2.611,-2.6928,-2.7255,-2.6544,-2.639,-2.6173,-2.5442,-2.5865,0.0,0.0,0.0,0.0,0.0,0.0,0.0,0.0,0.0,0.0,0.0,0.0,0.0,0.0,0.0,0.0,0.0,0.0,0.0,0.0,0.0,-2.5703,-2.5703,-2.5703,-2.5703,-2.5703,-2.5703,-2.5703,-2.5703,-2.5703,-2.5703,-2.5703,-2.5703,-2.5703,-2.5703,-2.5703,-2.5703,-2.5703,-2.5703,-2.6113,-2.6777,-2.6777,-2.7207,-2.7849,-2.7864,-2.7868,-2.7974,-2.8806,-2.9107,-2.9242,-3.0115,-3.0404,-3.0404,-3.0404,-3.0404,-3.0404,-3.0404,-3.0404,-3.0404,-3.0404,-3.0404,-3.0404,-3.0404,-3.0404,-3.0404,-3.0404,-3.0404,-3.0404,-3.0404,-3.0404,-3.0404,-3.0404,-3.0189,-3.0089,-3.0361,-3.0163,-3.0089,-3.0361,-3.0404,-3.0311,-3.0089,-3.0075,-3.0011,-2.9832,-2.9823,-2.9823,-2.9823,-2.9823,-2.9807,-2.9746,-2.9966,-2.9885,-2.9513,-2.9661,-2.9763,-2.9823,-2.9763,-2.9782,-2.9823,-2.9763,-2.9746,-2.419,-2.4495,-2.4907,-2.5357,-2.5558,-2.5615,0.0,0.0,-2.5442,0.0,0.0,0.0,0.0,0.0,0.0,0.0,0.0,0.0,0.0,0.0,0.0,0.0,0.0,0.0,0.0,0.0,0.0,0.0,0.0,0.0,0.0,-2.57,-2.5703,-2.5703,-2.5703,-2.5703,-2.5703,-2.5703,-2.5703,-2.5703,-2.5703,-2.5703,-2.5703,-2.5703,-2.5703,-2.5703,-2.5703,-2.5703,-2.5703,-2.5703,-2.5762,-2.5879,-2.5879,-2.5915,-2.6032,-2.6712,-2.6935,-2.7106,-2.8597,-2.9107,-2.9242,-3.0115,-3.0404,-3.0404,-3.0404,-3.0404,-3.0404,-3.0404,-3.0404,-3.0404,-3.0404,-3.0404,-3.0404,-3.0404,-3.0404,-3.0404,-3.0404,-3.0404,-3.0404,-3.0404,-3.0404,-3.0404,-3.0404,-3.0189,-3.0089,-3.0361,-3.0163,-3.0089,-3.0361,-3.0404,-3.0392,-3.0355,-3.0349,-3.0343,-3.0305,-3.0318,-3.0318,-3.0318,-3.0318,-3.0196,-2.9969,-3.0202,-3.0202,-2.9931,-2.9947,-3.0068,-3.0318,-3.0068,-3.0068,-3.0299,-3.0061,-2.9962,-2.4469,-2.4662,-2.4888,-2.5222,-2.5308,-2.5308,-2.5308,-2.5308,-2.5308,0.0,0.0,0.0,0.0,0.0,0.0,0.0,0.0,0.0,0.0,0.0,0.0,0.0,0.0,0.0,0.0,0.0,0.0,0.0,0.0,0.0,-2.5681,-2.5703,-2.57,-2.5703,-2.5703,0.0,-2.5703,-2.5703,-2.5703,-2.5703,-2.5703,-2.5703,-2.5703,-2.5703,-2.5703,-2.5703,-2.5703,-2.5703,-2.5703,-2.5703,-2.5703,-2.5703,-2.5703,-2.5683,-2.5695,-2.5968,-2.6072,-2.6232,-2.7325,-2.8033,-2.8618,-2.9413,-3.0,-3.0404,-3.0404,-3.0404,-3.0404,-3.0404,-3.0404,-3.0404,-3.0404,-3.0404,-3.0404,-3.0404,-3.0404,-3.0404,-3.0404,-3.0404,-3.0404,-3.0404,-3.0404,-3.0404,-3.0404,-3.0305,-3.026,-3.0373,-3.0305,-3.026,-3.0373,-3.0404,-3.0404,-3.0404,-3.0404,-3.0404,-3.0404,-3.0404,-3.0404,-3.0404,-3.0404,-3.0355,-3.0241,-3.0349,-3.0329,-3.0235,-3.0215,-3.0273,-3.0404,-3.0273,-3.0273,-3.0404,-3.0273,-3.0215,-2.4623,-2.4723,-2.4799,-2.513,-2.5219,-2.5248,0.0,0.0,-2.5308,0.0,0.0,0.0,0.0,0.0,0.0,0.0,0.0,0.0,0.0,0.0,0.0,0.0,0.0,0.0,0.0,0.0,0.0,0.0,0.0,0.0,-2.5644,-2.5678,-2.5692,-2.5703,-2.5703,-2.5703,-2.5703,-2.5703,-2.5703,-2.5703,-2.5683,-2.5683,-2.5703,-2.5683,-2.5683,-2.5703,-2.5703,-2.5703,-2.5703,-2.5703,-2.5703,-2.5703,-2.5703,-2.5703,-2.5683,-2.5564,-2.5558,-2.5702,-2.6389,-2.7091,-2.783,-2.8559,-2.9259,-2.9833,-3.0012,-3.0077,-3.0115,-3.0346,-3.0404,-3.0404,-3.0404,-3.0404,-3.0404,-3.0404,-3.0404,-3.0404,-3.0404,-3.0404,-3.0404,-3.0404,-3.0404,-3.0404,-3.0404,-3.0404,-3.0404,-3.0404,-3.0404,-3.0404,-3.0404,-3.0404,-3.0404,-3.0404,-3.0404,-3.0404,-3.0404,-3.0404,-3.0404,-3.0404,-3.0404,-3.0404,-3.0404,-3.0404,-3.0404,-3.0404,-3.0404,-3.0404,-3.0404,-3.0404,-3.0404,-3.0404,-3.0404,-3.0404,-2.4452,-2.452,0.0,-2.4937,-2.5016,-2.5077,0.0,0.0,0.0,0.0,0.0,0.0,0.0,0.0,0.0,0.0,0.0,0.0,0.0,0.0,0.0,0.0,0.0,0.0,0.0,0.0,0.0,0.0,0.0,0.0,-2.5508,-2.5639,-2.5692,-2.5703,-2.5703,-2.5703,-2.5703,-2.5703,-2.5703,-2.5703,-2.5635,-2.5636,-2.5703,-2.5634,-2.5636,-2.5703,-2.5703,-2.5703,-2.5703,-2.5703,-2.5703,-2.5703,-2.5703,-2.5703,-2.5683,-2.563,-2.5599,-2.5707,-2.6443,-2.6766,-2.698,-2.7721,-2.8049,-2.8268,-2.8967,-2.9165,-2.9338,-3.0173,-3.0404,-3.0404,-3.0404,-3.0404,-3.0404,-3.0404,-3.0404,-3.0404,-3.0404,-3.0404,-3.0404,-3.0404,-3.0404,-3.0404,-3.0404,-3.0404,-3.0404,-3.0404,-3.0404,-3.0404,-3.0404,-3.0404,-3.0404,-3.0404,-3.0404,-3.0404,-3.0404,-3.0404,-3.0404,-3.0404,-3.0404,-3.0404,-3.0404,-3.0404,-3.0404,-3.0404,-3.0404,-3.0404,-3.0404,-3.0404,-3.0404,-3.0404,-3.0404,-3.0404,-2.4462,-2.4591,0.0,-2.4949,-2.5099,-2.5214,-2.5279,-2.5308,0.0,0.0,0.0,0.0,0.0,0.0,0.0,0.0,0.0,0.0,0.0,0.0,0.0,0.0,0.0,0.0,0.0,0.0,0.0,0.0,0.0,0.0,-2.5376,-2.5588,-2.5681,-2.5634,-2.5682,-2.5703,-2.5703,-2.5703,-2.5683,-2.5635,-2.5606,-2.5607,-2.5634,-2.5606,-2.5635,-2.5703,-2.5703,-2.5703,-2.5703,-2.5703,-2.5703,-2.5703,-2.5703,-2.5703,-2.5683,-2.5611,-2.5632,-2.5696,-2.5865,-2.6347,-2.6898,-2.7071,-2.751,-2.8045,-2.8259,-2.8338,-2.8511,-2.9333,-2.9563,-2.9698,-3.025,-3.0404,-3.0404,-3.0404,-3.0404,-3.0404,-3.0404,-3.0404,-3.0404,-3.0404,-3.0404,-3.0404,-3.0404,-3.0404,-3.0404,-3.0404,-3.0404,-3.0404,-3.0404,-3.0404,-3.0404,-3.0404,-3.0404,-3.0404,-3.0404,-3.0404,-3.0404,-3.0404,-3.0404,-3.0404,-3.0404,-3.0404,-3.0404,-3.0404,-3.0404,-3.0404,-3.0404,-3.0404,-3.0404,-3.0404,-3.0404,-3.0404,-2.4357,-2.4553,-2.4746,0.0,0.0,-2.5214,-2.5279,0.0,0.0,0.0,0.0,0.0,0.0,0.0,0.0,0.0,0.0,0.0,0.0,0.0,0.0,0.0,0.0,0.0,0.0,0.0,0.0,0.0,0.0,0.0,-2.4489,-2.4672,-2.492,-2.5184,-2.5233,-2.5391,-2.5703,-2.5703,-2.5682,-2.5634,-2.5595,-2.557,-2.5601,-2.5588,-2.5603,-2.5661,-2.5683,-2.5703,-2.5703,-2.5703,-2.5703,-2.5703,-2.5703,-2.5703,-2.5683,-2.5658,-2.5661,-2.5683,-2.5567,-2.5957,-2.648,-2.6335,-2.6685,-2.721,-2.7431,-2.7484,-2.764,-2.8453,-2.8896,-2.9223,-2.9813,-3.0173,-3.0404,-3.0404,-3.0404,-3.0404,-3.0404,-3.0404,-3.0404,-3.0404,-3.0404,-3.0404,-3.0404,-3.0404,-3.0404,-3.0404,-3.0404,-3.0404,-3.0404,-3.0404,-3.0404,-3.0404,-3.0404,-3.0404,-3.0404,-3.0404,-3.0404,-3.0404,-3.0404,-3.0404,-3.0404,-3.0404,-3.0404,-3.0404,-3.0404,-3.0404,-3.0404,-3.0404,-3.0404,-3.0404,-3.0404,-3.0404,0.0,0.0,0.0,0.0,0.0,0.0,-2.5259,0.0,0.0,0.0,0.0,0.0,0.0,0.0,0.0,0.0,0.0,0.0,0.0,0.0,0.0,0.0,0.0,0.0,0.0,0.0,0.0,0.0,0.0,-2.4585,-2.2965,-2.2946,-2.3389,-2.4316,-2.4375,-2.4805,-2.5644,-2.5684,-2.5703,-2.5703,-2.5561,-2.5541,-2.5601,-2.5537,-2.5543,-2.5604,-2.5662,-2.5703,-2.5703,-2.5703,-2.5703,-2.5703,-2.5703,-2.5703,-2.5703,-2.5703,-2.5703,-2.5683,-2.5632,-2.5657,-2.5682,-2.5549,-2.5493,-2.5654,-2.6435,-2.662,-2.676,-2.7626,-2.8434,-2.9088,-2.9127,-2.9775,-3.0404,-3.0404,-3.0404,-3.0404,-3.0404,-3.0404,-3.0404,-3.0404,-3.0404,-3.0404,-3.0404,-3.0404,-3.0404,-3.0404,-3.0404,-3.0404,-3.0404,-3.0404,-3.0404,-3.0404,-3.0404,-3.0404,-3.0404,-3.0404,-3.0404,-3.0404,-3.0404,-3.0404,-3.0404,-3.0404,-3.0404,-3.0404,-3.0404,-3.0404,-3.0404,-3.0404,-3.0404,-3.0404,-3.0404,-3.0404,-2.4631,0.0,0.0,0.0,0.0,0.0,0.0,0.0,0.0,0.0,0.0,0.0,0.0,0.0,0.0,0.0,0.0,0.0,0.0,0.0,0.0,0.0,0.0,0.0,0.0,0.0,0.0,0.0,-2.5308,-2.5101,-2.463,-2.322,-2.2552,-2.2871,-2.3867,-2.4512,-2.4766,-2.5371,-2.5682,-2.5632,-2.5545,-2.5541,-2.5601,-2.5537,-2.5561,-2.5662,-2.5683,-2.5703,-2.5703,-2.5703,-2.5703,-2.5703,-2.5703,-2.5703,-2.5703,-2.5703,-2.5703,-2.5703,-2.5683,-2.5683,-2.5683,-2.5602,-2.5567,-2.5591,-2.5725,-2.5755,-2.5908,-2.6723,-2.7563,-2.8511,-2.9737,-3.0212,-3.0404,-3.0404,-3.0404,-3.0404,-3.0404,-3.0404,-3.0404,-3.0404,-3.0404,-3.0404,-3.0404,-3.0404,-3.0404,-3.0404,-3.0404,-3.0404,-3.0404,-3.0404,-3.0404,-3.0404,-3.0404,-3.0404,-3.0404,-3.0404,-3.0404,-3.0404,-3.0404,-3.0404,-3.0404,-3.0404,-3.0404,-3.0404,-3.0404,-3.0404,-3.0404,-3.0404,-3.0404,-3.0404,-3.0404,-3.0404,-2.4678,-2.478,-2.4923,-2.4923,0.0,0.0,0.0,-2.5308,0.0,0.0,0.0,0.0,0.0,0.0,0.0,0.0,0.0,0.0,0.0,0.0,0.0,0.0,0.0,0.0,0.0,0.0,0.0,0.0,-2.5308,-2.4691,-2.3288,-2.2774,-2.2242,-2.1601,-2.2852,-2.375,-2.4238,-2.5215,-2.5507,-2.5109,-2.5373,-2.5541,-2.5601,-2.5537,-2.5558,-2.566,-2.5683,-2.5703,-2.5703,-2.5703,-2.5703,-2.5703,-2.5703,-2.5703,-2.5703,-2.5703,-2.5703,-2.5703,-2.5703,-2.5703,-2.5683,-2.5659,-2.5611,-2.5594,-2.5517,-2.5454,-2.5531,-2.6014,-2.7005,-2.8246,-2.9517,-3.0135,-3.0404,-3.0404,-3.0404,-3.0404,-3.0404,-3.0404,-3.0404,-3.0404,-3.0404,-3.0404,-3.0404,-3.0404,-3.0404,-3.0404,-3.0404,-3.0404,-3.0404,-3.0404,-3.0404,-3.0404,-3.0404,-3.0404,-3.0404,-3.0404,-3.0404,-3.0404,-3.0404,-3.0404,-3.0404,-3.0404,-3.0404,-3.0404,-3.0404,-3.0404,-3.0404,-3.0404,-3.0404,-3.0404,-3.0404,-3.0404,-2.4591,-2.4731,-2.4861,-2.4861,-2.5086,0.0,-2.5192,-2.5173,0.0,0.0,0.0,0.0,0.0,0.0,0.0,0.0,0.0,0.0,0.0,0.0,0.0,0.0,0.0,0.0,0.0,0.0,-2.5308,-2.5308,-2.5308,-2.3998,-2.101,-2.2403,-2.2477,-2.0664,-2.1582,-2.2695,-2.3887,-2.4902,-2.5059,-2.4355,-2.5015,-2.5331,-2.5332,-2.5366,-2.5389,-2.5432,-2.5623,-2.5703,-2.5703,-2.5703,-2.5703,-2.5703,-2.5703,-2.5703,-2.5703,-2.5703,-2.5703,-2.5703,-2.5703,-2.5703,-2.5703,-2.5703,-2.566,-2.5605,-2.5603,-2.5558,-2.5537,-2.562,-2.6709,-2.8034,-2.8779,-2.9555,-3.0152,-3.0237,-3.025,-3.0288,-3.0385,-3.0327,-3.0288,-3.0385,-3.0404,-3.0404,-3.0404,-3.0404,-3.0404,-3.0404,-3.0404,-3.0404,-3.0404,-3.0404,-3.0404,-3.0404,-3.0404,-3.0404,-3.0404,-3.0404,-3.0404,-3.0404,-3.0404,-3.0404,-3.0404,-3.0404,-3.0404,-3.0404,-3.0404,-3.0404,-3.0404,-3.0404,-3.0404,-3.0404,-3.0404,-3.0404,-2.5149,-2.5171,-2.5212,-2.5212,0.0,0.0,-2.449,-2.4336,-2.4144,0.0,0.0,0.0,0.0,0.0,0.0,0.0,0.0,0.0,0.0,0.0,0.0,0.0,0.0,0.0,0.0,0.0,-2.5308,-2.5308,-2.5293,-2.5008,-2.4367,-2.4856,-2.3769,-2.0703,-2.082,-2.1699,-2.3262,-2.3555,-2.3828,-2.4082,-2.4178,-2.4022,-2.369,-2.4271,-2.4454,-2.4354,-2.5293,-2.5703,-2.5703,-2.5703,-2.5703,-2.5703,-2.5703,-2.5703,-2.5703,-2.5703,-2.5703,-2.5703,-2.5703,-2.5703,-2.5703,-2.5703,-2.5683,-2.5662,-2.5628,-2.5597,-2.5692,-2.6301,-2.6741,-2.7207,-2.7933,-2.8295,-2.8627,-2.9206,-2.9352,-2.9544,-3.025,-2.9852,-2.9563,-3.0269,-3.0404,-3.0404,-3.0404,-3.0404,-3.0404,-3.0404,-3.0404,-3.0404,-3.0404,-3.0404,-3.0404,-3.0404,-3.0404,-3.0404,-3.0404,-3.0404,-3.0404,-3.0404,-3.0404,-3.0404,-3.0404,-3.0404,-3.0404,-3.0404,-3.0404,-3.0404,-3.0404,-3.0404,-3.0404,-3.0404,-3.0404,-3.0404,-2.5152,-2.5152,-2.5152,-2.5152,0.0,0.0,0.0,-2.4697,-2.4562,0.0,0.0,0.0,0.0,0.0,0.0,0.0,0.0,0.0,0.0,0.0,0.0,0.0,0.0,0.0,0.0,0.0,-2.5308,-2.5308,-2.5303,-2.5307,-2.5308,-2.5556,-2.4907,-2.3196,-2.1484,-2.0996,-2.1836,-2.2715,-2.2871,-2.2305,-2.3124,-2.3362,-2.3105,-2.3475,-2.4088,-2.4883,-2.5449,-2.5703,-2.5703,-2.5703,-2.5703,-2.5703,-2.5703,-2.5703,-2.5703,-2.5703,-2.5703,-2.5703,-2.5703,-2.5703,-2.5703,-2.5703,-2.5703,-2.5683,-2.566,-2.5658,-2.5729,-2.6054,-2.6451,-2.6889,-2.7215,-2.7615,-2.814,-2.8912,-2.9107,-2.9223,-2.966,-2.941,-2.9107,-2.9159,-2.9486,-2.989,-3.0327,-3.0404,-3.0404,-3.0404,-3.0404,-3.0404,-3.0404,-3.0404,-3.0404,-3.0404,-3.0404,-3.0404,-3.0404,-3.0404,-3.0404,-3.0404,-3.0404,-3.0404,-3.0404,-3.0404,-3.0404,-3.0404,-3.0404,-3.0404,-3.0404,-3.0404,-3.0404,-3.0404,-3.0404,-3.0404,0.0,0.0,0.0,0.0,0.0,-2.5269,0.0,0.0,0.0,-2.4846,0.0,0.0,0.0,0.0,0.0,0.0,0.0,0.0,0.0,0.0,0.0,0.0,0.0,0.0,0.0,0.0,-2.5308,-2.5308,-2.5308,-2.5302,-2.5298,-2.551,-2.5656,-2.5698,-2.2379,-2.0605,-2.0605,-2.1934,-2.1934,-2.0625,-2.1971,-2.2581,-2.25,-2.2498,-2.3306,-2.4746,-2.541,-2.5703,-2.5703,-2.5703,-2.5703,-2.5703,-2.5703,-2.5703,-2.5703,-2.5703,-2.5703,-2.5703,-2.5703,-2.5703,-2.5703,-2.5703,-2.5703,-2.5703,-2.5703,-2.5703,-2.5683,-2.5629,-2.6087,-2.6569,-2.6498,-2.6953,-2.7673,-2.8669,-2.8758,-2.8761,-2.9242,-2.8953,-2.8569,-2.8409,-2.8646,-2.9146,-3.0,-3.0288,-3.0346,-3.0173,-3.0288,-3.0346,-3.0173,-3.0308,-3.0404,-3.0404,-3.0404,-3.0404,-3.0404,-3.0404,-3.0404,-3.0404,-3.0404,-3.0404,-3.0404,-3.0404,-3.0404,-3.0404,-3.0404,-3.0404,-3.0404,-3.0404,-3.0404,-3.0404,-3.0404,-3.0404,0.0,0.0,0.0,0.0,-2.5279,0.0,0.0,0.0,-2.4009,-2.324,0.0,0.0,0.0,0.0,0.0,0.0,0.0,0.0,0.0,0.0,0.0,0.0,0.0,0.0,0.0,0.0,0.0,-2.5308,-2.5308,-2.5306,-2.5305,-2.5335,-2.5459,-2.5698,-2.2379,-2.0605,-2.0605,-2.0781,-2.0781,-2.0605,-2.0783,-2.0826,-2.0703,-2.0703,-2.0866,-2.1348,-2.4375,-2.5703,-2.5703,-2.5703,-2.5703,-2.5703,-2.5703,-2.5703,-2.5703,-2.5703,-2.5703,-2.5703,-2.5703,-2.5703,-2.5703,-2.5703,-2.5703,-2.5703,-2.5703,-2.5703,-2.5683,-2.5629,-2.5713,-2.5794,-2.5665,-2.5707,-2.6164,-2.7741,-2.7489,-2.7505,-2.975,-2.8481,-2.7525,-2.9692,-2.8986,-2.8299,-2.9107,-2.989,-3.0135,-2.9352,-2.991,-3.0115,-2.9357,-2.9929,-3.0404,-3.0404,-3.0404,-3.0404,-3.0404,-3.0404,-3.0404,-3.0404,-3.0404,-3.0404,-3.0404,-3.0404,-3.0404,-3.0404,-3.0404,-3.0404,-3.0404,-3.0404,-3.0404,-3.0404,-3.0404,-3.0404,0.0,0.0,0.0,0.0,0.0,0.0,-2.487,0.0,-2.3995,0.0,0.0,0.0,0.0,0.0,0.0,0.0,0.0,0.0,0.0,0.0,0.0,0.0,0.0,0.0,0.0,0.0,0.0,0.0,0.0,-2.5293,-2.5309,-2.5308,-2.5425,-2.5683,-2.4309,-2.2617,-2.0625,-2.0605,-2.0605,-2.0605,-2.0606,-2.0511,-2.0352,-2.0469,-2.0551,-2.0781,-2.4219,-2.5703,-2.5703,-2.5703,-2.5703,-2.5703,-2.5703,-2.5703,-2.5703,-2.5703,-2.5703,-2.5703,-2.5703,-2.5703,-2.5703,-2.5703,-2.5703,-2.5703,-2.5703,-2.5703,-2.5683,-2.5661,-2.5658,-2.5633,-2.5567,-2.5537,-2.5801,-2.6966,-2.6949,-2.6935,-2.7978,-2.7755,-2.7525,-2.8096,-2.8409,-2.8703,-2.905,-2.9813,-2.9942,-2.8607,-2.9102,-2.9506,-2.9146,-2.941,-2.9833,-3.0346,-2.9948,-2.964,-2.964,-2.9217,-2.8948,-2.8948,-2.8948,-2.8948,-2.8948,-2.941,-2.964,-2.964,-3.0135,-3.0404,-3.0404,-3.0404,-3.0404,-3.0404,-3.0404,-3.0404,-2.5308,0.0,0.0,0.0,0.0,0.0,0.0,0.0,0.0,0.0,0.0,0.0,0.0,0.0,0.0,0.0,0.0,0.0,0.0,0.0,0.0,0.0,0.0,0.0,0.0,0.0,0.0,0.0,0.0,0.0,-2.5297,-2.5299,-2.542,-2.5691,-2.5694,-2.4062,-2.0625,-2.0605,-2.0605,-2.0605,-2.0596,-2.0519,-2.0391,-2.0537,-2.0598,-2.0742,-2.3223,-2.4297,-2.4375,-2.5312,-2.5703,-2.5703,-2.5703,-2.5703,-2.5703,-2.5703,-2.5703,-2.5703,-2.5703,-2.5703,-2.5703,-2.5703,-2.5703,-2.5703,-2.5703,-2.5703,-2.5703,-2.5703,-2.5661,-2.5632,-2.5632,-2.559,-2.5736,-2.6553,-2.656,-2.6475,-2.6911,-2.7287,-2.7508,-2.7318,-2.828,-2.9107,-2.9107,-2.9813,-2.9904,-2.8453,-2.8723,-2.9107,-2.9107,-2.8915,-2.9102,-2.9942,-2.9275,-2.878,-2.878,-2.8242,-2.7895,-2.7895,-2.7895,-2.7895,-2.7895,-2.8665,-2.8992,-2.878,-2.9846,-3.0288,-3.0038,-3.0288,-3.0404,-3.0404,-3.0404,-3.0404,0.0,0.0,0.0,-2.5308,0.0,0.0,0.0,0.0,-2.4985,0.0,0.0,0.0,0.0,0.0,-2.3425,-2.331,0.0,0.0,0.0,0.0,0.0,0.0,0.0,0.0,0.0,0.0,0.0,0.0,0.0,0.0,-2.531,-2.529,-2.542,-2.5697,-2.57,-2.4062,-2.0625,-2.0605,-2.0605,-2.0605,-2.0596,-2.0597,-2.0586,-2.0596,-2.0598,-2.0605,-2.0723,-2.0762,-2.1016,-2.4336,-2.5703,-2.5703,-2.5703,-2.5703,-2.5703,-2.5703,-2.5703,-2.5703,-2.5703,-2.5703,-2.5703,-2.5703,-2.5703,-2.5703,-2.5703,-2.5703,-2.5703,-2.5703,-2.5703,-2.5703,-2.5703,-2.5657,-2.5813,-2.6685,-2.6205,-2.5971,-2.7617,-2.7307,-2.7196,-2.8725,-2.9069,-2.9107,-2.9107,-2.9813,-3.0096,-2.9204,-2.9088,-2.9107,-2.9107,-2.8415,-2.8261,-2.9069,-2.8415,-2.7934,-2.7934,-2.7915,-2.7895,-2.7895,-2.7895,-2.7895,-2.7895,-2.8665,-2.8723,-2.7953,-2.9558,-2.9981,-2.9146,-2.9981,-3.0404,-3.0404,-3.0404,-3.0404,0.0,0.0,-2.4601,-2.5007,0.0,0.0,0.0,0.0,0.0,0.0,0.0,0.0,0.0,0.0,-2.3434,-2.3247,-2.3026,0.0,0.0,0.0,0.0,0.0,0.0,0.0,0.0,0.0,0.0,0.0,0.0,0.0,0.0,-2.5471,-2.5615,-2.5698,-2.57,-2.4062,-2.0625,-2.0605,-2.0605,-2.0605,-2.0604,-2.0604,-2.0605,-2.0604,-2.0604,-2.0605,-2.0605,-2.0605,-2.0879,-2.4297,-2.5254,-2.4648,-2.541,-2.5703,-2.5703,-2.5703,-2.5703,-2.5703,-2.5703,-2.5703,-2.5703,-2.5703,-2.5703,-2.5703,-2.5703,-2.5703,-2.5703,-2.5703,-2.5703,-2.5703,-2.5703,-2.5683,-2.5737,-2.5975,-2.5806,-2.5705,-2.6224,-2.6992,-2.7724,-2.8269,-2.9233,-2.9967,-2.9967,-3.0192,-2.9731,-2.7736,-2.8396,-2.8915,-2.8376,-2.8068,-2.8203,-2.9011,-2.7852,-2.7044,-2.7044,-2.6505,-2.6173,-2.6173,-2.6173,-2.6173,-2.6173,-2.6986,-2.7313,-2.7044,-2.8159,-2.8602,-2.8319,-2.914,-2.9544,-2.9544,-2.9544,-2.9544,-2.4342,-2.3923,0.0,0.0,-2.3501,0.0,-2.3342,0.0,0.0,0.0,0.0,0.0,0.0,0.0,-2.3786,-2.3596,-2.3597,-2.3386,0.0,0.0,0.0,0.0,0.0,0.0,0.0,0.0,-2.5309,-2.5293,0.0,0.0,0.0,0.0,-2.5703,-2.5693,-2.5702,-2.4648,-2.2441,-2.1211,-2.0605,-2.0605,-2.0605,-2.0605,-2.0605,-2.0605,-2.0605,-2.0605,-2.0605,-2.0605,-2.082,-2.3613,-2.4707,-2.4687,-2.541,-2.5703,-2.5703,-2.5703,-2.5703,-2.5703,-2.5703,-2.5703,-2.5703,-2.5703,-2.5703,-2.5703,-2.5703,-2.5703,-2.5703,-2.5703,-2.5703,-2.5703,-2.5703,-2.5703,-2.5683,-2.5657,-2.5635,-2.5707,-2.5944,-2.7081,-2.8162,-2.8445,-2.9549,-3.0449,-3.0449,-3.0419,-2.9846,-2.8192,-2.8602,-2.8915,-2.8396,-2.8088,-2.8107,-2.8626,-2.7428,-2.6467,-2.6154,-2.5615,-2.5308,-2.5308,-2.5308,-2.5308,-2.5308,-2.6135,-2.6447,-2.6135,-2.7294,-2.7761,-2.7448,-2.828,-2.8665,-2.8665,-2.8665,-2.8511]},{"header":{"parameterUnit":"m.s-1","parameterCategory":1,"la1":30.6,"la2":29.2853,"lo1":-89.7004,"lo2":-87.6739,"dy":0.0162,"dx":0.0183,"nx":112,"ny":82,"refTime":"2024-07-14T18:00:00:Z","depth":0,"parameterNumber":3,"parameterNumberName":"V-component_of_WINDS"},"data":[0.0,0.0,0.0,0.0,0.0,0.0,0.0,0.0,0.0,0.0,0.0,0.0,0.0,0.0,0.0,0.0,0.0,0.0,0.0,0.0,0.0,0.0,0.0,0.0,0.0,0.0,0.0,0.0,0.0,0.0,0.0,0.0,0.0,0.0,0.0,0.0,0.0,0.0,0.0,0.0,0.0,0.0,0.0,0.0,0.0,0.0,0.0,0.0,0.0,0.0,0.0,0.0,0.0,0.0,0.0,0.0,0.0,0.0,0.0,0.0,0.0,0.0,0.0,0.0,0.0,0.0,0.0,0.0,0.0,0.0,0.0,0.0,0.0,0.0,0.0,0.0,0.0,0.0,0.0,0.0,0.0,0.0,0.0,0.0,0.0,0.0,0.0,0.0,0.0,0.0,-0.7179,-0.7451,-0.7675,-0.7811,-0.7811,-0.8891,-0.9741,-1.0001,0.0,0.0,0.0,0.0,0.0,0.0,0.0,0.0,0.0,0.0,0.0,0.0,0.0,0.0,0.0,0.0,0.0,0.0,0.0,0.0,0.0,0.0,0.0,0.0,0.0,0.0,0.0,0.0,0.0,0.0,0.0,0.0,0.0,0.0,0.0,0.0,0.0,0.0,0.0,0.0,0.0,0.0,0.0,0.0,0.0,0.0,0.0,0.0,0.0,0.0,0.0,0.0,0.0,0.0,0.0,0.0,0.0,0.0,0.0,0.0,0.0,0.0,0.0,0.0,0.0,0.0,0.0,0.0,0.0,0.0,0.0,0.0,0.0,0.0,0.0,0.0,0.0,0.0,0.0,0.0,0.0,0.0,0.0,0.0,0.0,0.0,0.0,0.0,0.0,0.0,0.0,0.0,0.0,0.0,0.0,0.0,0.0,0.0,0.0,0.0,0.0,0.0,0.0,0.0,-0.7301,-0.7833,-0.7862,-0.7811,-0.7811,-0.9776,-1.0731,-1.0043,0.0,0.0,0.0,0.0,0.0,0.0,0.0,0.0,0.0,0.0,0.0,0.0,0.0,0.0,0.0,0.0,0.0,0.0,0.0,0.0,0.0,0.0,0.0,0.0,0.0,0.0,0.0,0.0,0.0,0.0,0.0,0.0,0.0,0.0,0.0,0.0,0.0,0.0,0.0,0.0,0.0,0.0,0.0,0.0,0.0,0.0,0.0,0.0,0.0,0.0,0.0,0.0,0.0,0.0,0.0,0.0,0.0,0.0,0.0,0.0,0.0,0.0,0.0,0.0,0.0,0.0,0.0,0.0,0.0,0.0,0.0,0.0,0.0,0.0,0.0,0.0,0.0,0.0,0.0,0.0,0.0,0.0,0.0,0.0,0.0,0.0,0.0,0.0,0.0,0.0,0.0,0.0,0.0,0.0,0.0,0.0,0.0,0.0,0.0,0.0,0.0,0.0,0.0,-0.7672,-0.8053,-0.7984,-0.8356,-0.8627,-0.8627,-1.0608,-1.1548,-1.084,-1.141,0.0,0.0,0.0,0.0,0.0,0.0,0.0,0.0,0.0,0.0,0.0,0.0,0.0,0.0,0.0,0.0,0.0,0.0,0.0,0.0,0.0,0.0,0.0,0.0,0.0,0.0,0.0,0.0,0.0,0.0,0.0,0.0,0.0,0.0,0.0,0.0,0.0,0.0,0.0,0.0,0.0,0.0,0.0,0.0,0.0,0.0,0.0,0.0,0.0,0.0,0.0,0.0,0.0,0.0,0.0,0.0,0.0,0.0,0.0,0.0,0.0,0.0,0.0,0.0,0.0,0.0,0.0,0.0,0.0,0.0,0.0,0.0,0.0,0.0,0.0,0.0,0.0,0.0,0.0,0.0,0.0,0.0,0.0,0.0,0.0,0.0,0.0,0.0,0.0,0.0,0.0,0.0,0.0,0.0,0.0,0.0,0.0,0.0,0.0,0.0,0.0,0.0,-0.8142,-0.8563,-0.8335,-0.8902,-0.9418,-0.9648,-1.1221,-1.2004,-1.1513,-1.1948,0.0,0.0,0.0,0.0,0.0,0.0,0.0,0.0,0.0,0.0,0.0,0.0,0.0,0.0,0.0,0.0,0.0,0.0,0.0,0.0,0.0,0.0,0.0,0.0,0.0,0.0,0.0,0.0,0.0,0.0,0.0,0.0,0.0,0.0,0.0,0.0,0.0,0.0,0.0,0.0,0.0,0.0,0.0,0.0,0.0,0.0,0.0,0.0,0.0,0.0,0.0,0.0,0.0,0.0,0.0,0.0,0.0,0.0,0.0,0.0,0.0,0.0,0.0,0.0,0.0,0.0,0.0,0.0,0.0,0.0,0.0,0.0,0.0,0.0,0.0,0.0,0.0,0.0,0.0,0.0,0.0,0.0,0.0,0.0,0.0,0.0,0.0,0.0,0.0,0.0,0.0,0.0,0.0,0.0,0.0,0.0,0.0,0.0,0.0,0.0,0.0,0.0,-0.7491,-0.8211,-0.9116,-0.9266,-0.9686,-1.0631,-1.1454,-1.1817,-1.1502,-1.1764,0.0,0.0,0.0,0.0,0.0,0.0,0.0,0.0,0.0,0.0,0.0,0.0,0.0,0.0,0.0,0.0,0.0,0.0,0.0,0.0,0.0,0.0,0.0,0.0,0.0,0.0,0.0,0.0,0.0,0.0,0.0,0.0,0.0,0.0,0.0,0.0,0.0,0.0,0.0,0.0,0.0,0.0,0.0,0.0,0.0,0.0,0.0,0.0,0.0,0.0,0.0,0.0,0.0,0.0,0.0,0.0,0.0,0.0,0.0,0.0,0.0,0.0,0.0,0.0,0.0,0.0,0.0,0.0,0.0,0.0,0.0,0.0,0.0,0.0,0.0,0.0,0.0,0.0,0.0,0.0,0.0,0.0,0.0,0.0,0.0,0.0,0.0,0.0,0.0,0.0,0.0,0.0,0.0,0.0,0.0,0.0,0.0,0.0,0.0,0.0,0.0,0.0,-0.9096,-0.9663,0.0,-1.0965,-1.1529,-1.1888,-1.2747,-1.2994,-1.2356,0.0,0.0,0.0,0.0,0.0,0.0,0.0,0.0,0.0,0.0,0.0,0.0,0.0,0.0,0.0,0.0,0.0,0.0,0.0,0.0,0.0,0.0,0.0,0.0,0.0,0.0,0.0,0.0,0.0,0.0,0.0,0.0,0.0,0.0,0.0,0.0,0.0,0.0,0.0,0.0,0.0,0.0,0.0,0.0,0.0,0.0,0.0,0.0,0.0,0.0,0.0,0.0,0.0,0.0,0.0,0.0,0.0,0.0,0.0,0.0,0.0,0.0,0.0,0.0,0.0,0.0,0.0,0.0,0.0,0.0,0.0,0.0,0.0,0.0,0.0,0.0,0.0,0.0,0.0,0.0,0.0,0.0,0.0,0.0,0.0,0.0,0.0,0.0,0.0,0.0,0.0,0.0,0.0,0.0,0.0,0.0,0.0,0.0,0.0,0.0,0.0,0.0,-0.9577,-1.0152,-1.0764,0.0,-1.2154,-1.2736,-1.3057,-1.351,-1.3507,-1.2831,0.0,0.0,0.0,0.0,0.0,0.0,0.0,0.0,0.0,0.0,0.0,0.0,0.0,0.0,0.0,0.0,0.0,0.0,0.0,0.0,0.0,0.0,0.0,0.0,0.0,0.0,0.0,0.0,0.0,0.0,0.0,0.0,0.0,0.0,0.0,0.0,0.0,0.0,0.0,0.0,0.0,0.0,0.0,0.0,0.0,0.0,0.0,0.0,0.0,0.0,0.0,0.0,0.0,0.0,0.0,0.0,0.0,0.0,0.0,0.0,0.0,0.0,0.0,0.0,0.0,0.0,0.0,0.0,0.0,0.0,0.0,0.0,0.0,0.0,0.0,0.0,0.0,0.0,0.0,0.0,0.0,0.0,0.0,0.0,0.0,0.0,0.0,0.0,0.0,0.0,0.0,0.0,0.0,0.0,0.0,0.0,0.0,0.0,0.0,0.0,0.0,0.0,-0.9501,-1.0261,-1.1206,-1.2223,-1.2519,-1.302,-1.4024,-1.3547,-1.308,0.0,0.0,0.0,0.0,0.0,0.0,0.0,0.0,0.0,0.0,0.0,0.0,0.0,0.0,0.0,0.0,0.0,0.0,0.0,0.0,0.0,0.0,0.0,0.0,0.0,0.0,0.0,0.0,0.0,0.0,0.0,0.0,0.0,0.0,0.0,0.0,0.0,0.0,0.0,0.0,0.0,0.0,0.0,0.0,0.0,0.0,0.0,0.0,0.0,0.0,0.0,0.0,0.0,0.0,0.0,0.0,0.0,0.0,0.0,0.0,0.0,0.0,0.0,0.0,0.0,0.0,0.0,0.0,0.0,0.0,0.0,0.0,0.0,0.0,0.0,0.0,0.0,0.0,0.0,0.0,0.0,0.0,0.0,0.0,0.0,0.0,0.0,0.0,0.0,0.0,0.0,0.0,0.0,0.0,0.0,0.0,0.0,0.0,0.0,0.0,0.0,0.0,0.0,-1.1303,-1.1526,-1.2089,-1.3415,-1.3632,-1.3786,-1.4053,-1.3734,-1.3206,-1.2478,0.0,0.0,0.0,0.0,0.0,0.0,0.0,0.0,0.0,0.0,0.0,0.0,0.0,0.0,0.0,0.0,0.0,0.0,0.0,0.0,0.0,0.0,0.0,0.0,0.0,0.0,0.0,0.0,0.0,0.0,0.0,0.0,0.0,0.0,0.0,0.0,0.0,0.0,0.0,0.0,0.0,0.0,0.0,0.0,0.0,0.0,0.0,0.0,0.0,0.0,0.0,0.0,0.0,0.0,0.0,0.0,0.0,0.0,0.0,0.0,0.0,0.0,0.0,0.0,0.0,0.0,0.0,0.0,0.0,0.0,0.0,0.0,0.0,0.0,0.0,0.0,0.0,0.0,0.0,0.0,0.0,0.0,0.0,0.0,0.0,0.0,0.0,0.0,0.0,0.0,0.0,0.0,0.0,0.0,0.0,0.0,0.0,0.0,0.0,0.0,0.0,0.0,-1.2012,-1.2311,-1.2741,-1.3632,-1.3841,-1.3861,-1.3748,-1.3574,-1.3086,-1.2184,0.0,0.0,0.0,0.0,0.0,0.0,0.0,0.0,0.0,0.0,0.0,0.0,0.0,0.0,0.0,0.0,0.0,0.0,0.0,0.0,0.0,0.0,0.0,0.0,0.0,0.0,0.0,0.0,0.0,0.0,0.0,0.0,0.0,0.0,0.0,0.0,0.0,0.0,0.0,0.0,0.0,0.0,0.0,0.0,0.0,0.0,0.0,0.0,0.0,0.0,0.0,0.0,0.0,0.0,0.0,0.0,0.0,0.0,0.0,0.0,0.0,0.0,0.0,0.0,0.0,0.0,0.0,0.0,0.0,0.0,0.0,0.0,0.0,0.0,0.0,0.0,0.0,0.0,0.0,0.0,0.0,0.0,0.0,0.0,0.0,0.0,0.0,0.0,0.0,0.0,0.0,0.0,0.0,0.0,0.0,0.0,0.0,0.0,0.0,0.0,0.0,0.0,-1.1899,-1.2625,-1.318,-1.3206,-1.3407,-1.3453,-1.3233,-1.3186,-1.2806,-1.2,0.0,0.0,0.0,0.0,0.0,0.0,0.0,0.0,0.0,0.0,0.0,0.0,0.0,0.0,0.0,0.0,0.0,0.0,0.0,0.0,0.0,0.0,0.0,0.0,0.0,0.0,0.0,0.0,0.0,0.0,0.0,0.0,0.0,0.0,0.0,0.0,0.0,0.0,0.0,0.0,0.0,0.0,0.0,0.0,0.0,0.0,0.0,0.0,0.0,0.0,0.0,0.0,0.0,0.0,0.0,0.0,0.0,0.0,0.0,0.0,-0.5874,0.0,0.0,0.0,0.0,0.0,0.0,0.0,0.0,0.0,0.0,0.0,0.0,0.0,0.0,0.0,0.0,0.0,0.0,0.0,0.0,0.0,0.0,0.0,0.0,0.0,0.0,0.0,0.0,0.0,0.0,0.0,0.0,0.0,0.0,0.0,0.0,0.0,0.0,0.0,0.0,0.0,-1.1846,-1.2482,-1.2978,-1.3186,-1.3267,-1.328,-1.3213,-1.3025,-1.2703,-1.2238,-1.1717,0.0,0.0,0.0,0.0,0.0,0.0,0.0,0.0,0.0,0.0,0.0,0.0,0.0,0.0,0.0,0.0,0.0,0.0,0.0,0.0,0.0,0.0,0.0,0.0,0.0,0.0,0.0,0.0,0.0,0.0,0.0,0.0,0.0,0.0,0.0,0.0,0.0,0.0,0.0,0.0,0.0,0.0,0.0,0.0,0.0,0.0,0.0,0.0,0.0,0.0,0.0,0.0,0.0,0.0,0.0,0.0,0.0,0.0,0.0,0.0,-0.6103,0.0,0.0,0.0,0.0,0.0,0.0,0.0,0.0,0.0,0.0,0.0,0.0,0.0,0.0,0.0,0.0,0.0,0.0,0.0,0.0,0.0,0.0,0.0,0.0,0.0,0.0,0.0,0.0,0.0,0.0,0.0,0.0,0.0,0.0,0.0,0.0,0.0,0.0,0.0,0.0,-1.1617,-1.2208,-1.2599,-1.2759,-1.2899,-1.2933,-1.2786,-1.2797,-1.2596,-1.2124,-1.181,0.0,0.0,0.0,0.0,0.0,0.0,0.0,0.0,0.0,0.0,0.0,0.0,0.0,0.0,0.0,0.0,0.0,0.0,0.0,0.0,0.0,0.0,0.0,0.0,0.0,0.0,0.0,0.0,0.0,0.0,0.0,0.0,0.0,0.0,0.0,0.0,0.0,0.0,0.0,0.0,0.0,0.0,0.0,0.0,0.0,0.0,0.0,0.0,0.0,0.0,0.0,0.0,0.0,0.0,-0.6577,-0.677,-0.6774,-0.6764,-0.6771,-0.6644,-0.6485,-0.6324,0.0,0.0,0.0,0.0,0.0,0.0,0.0,0.0,0.0,0.0,0.0,0.0,0.0,0.0,0.0,0.0,0.0,0.0,0.0,0.0,0.0,0.0,0.0,0.0,0.0,-1.0592,-1.0313,0.0,0.0,0.0,0.0,0.0,0.0,0.0,0.0,0.0,0.0,0.0,0.0,-1.1389,-1.1937,-1.2305,-1.2305,-1.2556,-1.2603,-1.2325,-1.2563,-1.2496,-1.2013,-1.1933,-1.1578,0.0,0.0,0.0,0.0,0.0,0.0,0.0,0.0,0.0,0.0,0.0,0.0,0.0,0.0,0.0,0.0,0.0,0.0,0.0,0.0,0.0,0.0,0.0,0.0,0.0,0.0,0.0,0.0,0.0,0.0,0.0,0.0,-0.1352,-0.1268,0.0,0.0,0.0,0.0,0.0,0.0,0.0,0.0,0.0,0.0,0.0,0.0,0.0,0.0,-0.4835,-0.3942,-0.4617,-0.6839,-0.5976,-0.6098,-0.7038,-0.7044,-0.7068,-0.7041,-0.702,0.0,-0.6452,-0.6348,0.0,0.0,0.0,0.0,0.0,0.0,0.0,0.0,0.0,0.0,0.0,0.0,0.0,0.0,0.0,0.0,0.0,0.0,0.0,0.0,0.0,0.0,-0.9666,-1.0527,-1.0108,-0.9535,0.0,-1.0839,-1.1969,-1.1686,0.0,0.0,0.0,0.0,0.0,0.0,0.0,0.0,-1.1389,-1.1937,-1.2305,-1.2305,-1.2338,-1.2345,-1.2305,-1.2338,-1.2325,-1.2251,-1.2047,-1.1852,-1.1739,-1.1035,0.0,0.0,0.0,0.0,0.0,0.0,0.0,0.0,0.0,0.0,0.0,0.0,0.0,0.0,0.0,0.0,0.0,0.0,0.0,0.0,0.0,0.0,0.0,0.0,0.0,0.0,0.0,0.0,0.0,-0.1202,-0.0489,-0.0495,-0.1118,-0.1738,0.0,0.0,0.0,0.0,0.0,0.0,0.0,0.0,0.0,-0.2023,-0.1994,-0.2707,-0.414,-0.3046,-0.4005,-0.701,-0.5934,-0.6015,-0.7095,-0.7095,-0.7095,-0.7095,-0.7095,-0.6959,-0.6713,-0.6646,-0.6531,-0.6378,0.0,0.0,0.0,0.0,0.0,-0.5956,-0.6122,0.0,0.0,0.0,0.0,0.0,0.0,0.0,0.0,0.0,0.0,0.0,0.0,0.0,0.0,-1.0904,-1.0752,-1.0726,-1.1519,-1.2272,-1.2566,0.0,-1.1851,-1.1971,-1.1469,0.0,0.0,0.0,0.0,-1.167,-1.167,-1.2037,-1.2305,-1.2305,-1.2305,-1.2305,-1.2305,-1.2305,-1.2305,-1.2305,-1.2184,-1.2074,-1.1913,-1.1531,-1.1249,0.0,0.0,0.0,0.0,0.0,0.0,0.0,0.0,0.0,0.0,0.0,0.0,0.0,0.0,0.0,0.0,0.0,0.0,0.0,0.0,0.0,0.0,0.0,0.0,0.0,0.0,0.0,0.0,-0.1008,-0.0241,-0.0035,-0.0472,-0.092,0.0,0.0,0.0,0.0,0.0,0.0,-0.2408,-0.2172,-0.1672,-0.1008,-0.0955,-0.1808,-0.3564,-0.2414,-0.3567,-0.7064,-0.5938,-0.598,-0.7095,-0.7095,-0.7095,-0.7095,-0.7095,-0.7051,-0.6959,-0.6915,-0.6804,-0.6684,-0.6589,-0.6481,-0.6358,-0.6399,-0.6274,-0.6179,-0.6441,-0.6474,-0.6354,-0.6354,0.0,-0.7278,-0.7186,0.0,0.0,0.0,0.0,-0.9986,-0.9429,0.0,-1.1027,-1.139,-1.16,-1.1945,-1.2888,-1.3033,-1.2693,0.0,-1.203,-1.2251,-1.1702,0.0,0.0,0.0,0.0,-1.1906,-1.1906,-1.2124,-1.2305,-1.2305,-1.2305,-1.2305,-1.2305,-1.2305,-1.2305,-1.2305,-1.2305,-1.2204,-1.2027,-1.1946,-1.1764,-1.1543,0.0,0.0,0.0,0.0,0.0,0.0,0.0,0.0,0.0,0.0,0.0,0.0,0.0,0.0,0.0,0.0,0.0,0.0,0.0,0.0,0.0,0.0,0.0,0.0,0.0,0.0,0.0,0.0,0.0,-0.0113,-0.0039,0.0,0.0,0.0,0.0,-0.2807,-0.1936,-0.1443,-0.1635,-0.0692,-0.0132,-0.0046,-0.0046,-0.1196,-0.358,-0.2417,-0.3597,-0.7101,-0.595,-0.5981,-0.7095,-0.7095,-0.7095,-0.7095,-0.7095,-0.7095,-0.7095,-0.6959,-0.684,-0.6694,-0.6687,-0.66,-0.6518,-0.6624,-0.658,-0.6511,-0.6634,-0.659,-0.6501,-0.6501,-0.6872,-0.7298,-0.729,-0.7979,0.0,0.0,-0.8328,-0.9333,-0.9319,-1.0066,-1.1064,-1.2013,-1.2261,-1.2348,-1.2737,-1.2589,-1.2425,0.0,-1.2732,-1.2663,-1.2311,0.0,-1.1879,-1.1866,-1.1886,-1.1906,-1.1906,-1.2124,-1.2305,-1.2305,-1.2305,-1.2305,-1.2305,-1.2305,-1.2305,-1.2305,-1.2305,-1.2291,-1.2278,-1.2053,-1.1899,-1.1886,-1.1283,0.0,0.0,0.0,0.0,0.0,0.0,0.0,0.0,0.0,0.0,0.0,0.0,0.0,0.0,0.0,0.0,0.0,0.0,0.0,0.0,0.0,0.0,0.0,0.0,0.0,0.0,0.0,0.0,-0.004,0.0,0.0,-0.0443,-0.0448,-0.0618,-0.0995,-0.0674,-0.0473,-0.0576,-0.0225,-0.041,-0.1247,-0.1278,-0.2475,-0.4973,-0.3711,-0.4496,-0.7296,-0.5992,-0.5983,-0.7095,-0.7095,-0.7095,-0.7095,-0.7095,-0.7095,-0.7085,-0.6957,-0.6937,-0.6934,-0.6852,-0.6753,-0.6624,-0.6681,-0.6603,-0.6549,-0.6759,-0.6681,-0.6497,-0.6405,-0.6493,-0.6665,-0.6665,-0.6889,-0.7265,-0.7526,-0.843,-0.9465,-1.0105,-1.1019,-1.1846,-1.2218,-1.2305,-1.2331,-1.2438,-1.2378,-1.2331,-1.2476,-1.2496,-1.2402,-1.2078,-1.2091,-1.2084,-1.1933,-1.2067,-1.2144,-1.2144,-1.2238,-1.2305,-1.2305,-1.2305,-1.2305,-1.2305,-1.2305,-1.2225,-1.2037,-1.2024,-1.1937,-1.1744,-1.1824,-1.1906,-1.1906,-1.1698,-1.1404,0.0,0.0,0.0,0.0,0.0,0.0,0.0,0.0,0.0,0.0,0.0,0.0,0.0,0.0,0.0,0.0,0.0,0.0,0.0,0.0,0.0,0.0,0.0,0.0,0.0,0.0,-0.088,-0.0655,-0.0257,0.0,0.0,0.0,0.0,0.0,0.0,0.0,0.0,-0.0412,-0.1066,-0.1959,-0.2453,-0.3686,-0.5776,-0.4867,-0.5426,-0.737,-0.6421,-0.637,-0.7095,-0.7095,-0.7095,-0.7095,-0.7095,-0.7095,-0.7085,-0.6997,-0.7021,-0.7082,-0.694,-0.6825,-0.6776,-0.6776,-0.6681,-0.6569,-0.6722,-0.6644,-0.6491,-0.6347,-0.63,-0.63,-0.63,-0.63,-0.6451,-0.7099,-0.8275,-0.9448,-1.0121,-1.1285,-1.2305,-1.2305,-1.2305,-1.2305,-1.2305,-1.2305,-1.2305,-1.2305,-1.2305,-1.2238,-1.2087,-1.2178,-1.2238,-1.2044,-1.2178,-1.2305,-1.2305,-1.2305,-1.2305,-1.2305,-1.2305,-1.2305,-1.2305,-1.2305,-1.2218,-1.2067,-1.2011,-1.1884,-1.159,-1.1764,-1.1859,-1.1724,-1.1724,-1.1483,-1.0995,0.0,0.0,0.0,0.0,0.0,0.0,0.0,0.0,0.0,0.0,0.0,0.0,0.0,0.0,0.0,0.0,0.0,0.0,0.0,0.0,0.0,0.0,0.0,-0.3026,-0.2871,-0.2572,-0.1843,-0.0699,0.0,0.0,0.0,0.0,0.0,0.0,0.0,-0.0045,-0.1281,-0.2053,-0.2142,-0.3393,-0.4633,-0.5861,-0.5713,-0.6251,-0.7398,-0.7197,-0.7095,-0.7095,-0.7095,-0.7095,-0.7095,-0.7095,-0.7095,-0.7095,-0.7092,-0.7088,-0.7078,-0.6943,-0.6889,-0.6886,-0.6886,-0.6831,-0.6678,-0.6566,-0.6511,-0.6491,-0.6347,-0.63,-0.63,-0.63,-0.63,-0.63,-0.6338,-0.7783,-0.9324,-0.9353,-1.0834,-1.2305,-1.2305,-1.2305,-1.2305,-1.2305,-1.2305,-1.2305,-1.2305,-1.2305,-1.2305,-1.2305,-1.2305,-1.2305,-1.2305,-1.2305,0.0,-1.2305,-1.2305,-1.2305,-1.2305,-1.2305,-1.2305,-1.2305,-1.2305,-1.2298,-1.2285,-1.2278,-1.2151,-1.1899,-1.1893,-1.173,-1.1422,-1.1409,-1.1303,-1.1022,0.0,0.0,0.0,0.0,0.0,0.0,0.0,0.0,0.0,0.0,0.0,0.0,0.0,0.0,0.0,0.0,0.0,0.0,0.0,0.0,0.0,-0.4908,-0.4795,-0.3132,-0.2434,-0.1706,-0.0614,-0.022,0.0,0.0,0.0,0.0,0.0,0.0,-0.0407,-0.142,-0.1822,-0.2903,-0.4844,-0.5234,-0.6077,-0.7359,-0.7158,-0.7208,-0.7539,-0.7255,-0.7095,-0.7095,-0.7095,-0.7095,-0.7095,-0.7095,-0.7095,-0.7088,-0.6987,-0.6943,-0.695,-0.7014,-0.6974,-0.6886,-0.6886,-0.6831,-0.6678,-0.6566,-0.6511,-0.6491,-0.6347,-0.63,-0.63,-0.63,-0.63,-0.6451,-0.7173,-0.8313,-0.948,-1.0211,-1.1347,-1.2305,-1.2305,-1.2305,-1.2305,-1.2305,-1.2305,-1.2305,-1.2305,-1.2305,-1.2305,-1.2305,-1.2305,-1.2305,-1.2305,0.0,0.0,-1.2305,-1.2305,-1.2305,-1.2305,-1.2305,-1.2305,-1.2305,-1.2305,-1.2211,-1.2004,-1.1784,-1.1595,-1.155,-1.155,-1.171,-1.2051,-1.1857,-1.1745,0.0,0.0,0.0,0.0,0.0,0.0,0.0,0.0,0.0,0.0,0.0,0.0,0.0,0.0,0.0,0.0,0.0,0.0,0.0,0.0,0.0,0.0,-0.5439,-0.5469,-0.3885,-0.3293,-0.2783,-0.2148,-0.16,-0.1301,-0.1308,-0.1364,-0.1371,-0.1371,-0.1471,-0.1845,-0.2639,-0.3273,-0.4294,-0.5883,-0.6538,-0.7185,-0.7889,-0.7683,-0.756,-0.7513,-0.7215,-0.7095,-0.7095,-0.7095,-0.7095,0.0,-0.7095,-0.7095,-0.7085,-0.6943,-0.6886,0.0,0.0,0.0,0.0,0.0,-0.6698,-0.6505,-0.6453,-0.6422,-0.6409,-0.6327,-0.63,-0.63,-0.63,-0.63,-0.6416,-0.7022,-0.8199,-0.9448,-1.0002,-1.1248,-1.2305,-1.2305,-1.2305,-1.2305,-1.2305,-1.2305,-1.2305,-1.2305,0.0,0.0,-1.2305,-1.2305,-1.2305,-1.2305,-1.2305,-1.2305,0.0,-1.2305,-1.2305,-1.2305,-1.2305,-1.2305,-1.2305,-1.2305,0.0,0.0,0.0,-1.1737,-1.1617,-1.1455,0.0,0.0,0.0,0.0,0.0,0.0,0.0,0.0,-1.2824,-1.3018,0.0,0.0,0.0,0.0,0.0,0.0,0.0,0.0,0.0,0.0,0.0,0.0,0.0,0.0,0.0,0.0,-0.6007,-0.5972,-0.5007,-0.4885,-0.4823,-0.4705,-0.3768,-0.3103,-0.3114,-0.3252,-0.3295,-0.3344,-0.349,-0.3662,-0.3807,0.0,0.0,0.0,0.0,-0.7939,-0.7786,-0.768,-0.7541,-0.7415,-0.7187,-0.7095,-0.7095,-0.7095,-0.7095,-0.7095,-0.7095,-0.7095,-0.7085,-0.696,-0.69,-0.6883,-0.6866,-0.6859,-0.6842,-0.6729,-0.6498,0.0,0.0,0.0,0.0,-0.63,-0.63,-0.63,-0.63,-0.63,-0.63,-0.63,-0.7668,-0.9145,-0.9258,-1.072,-1.215,-1.2268,-1.2305,-1.2305,-1.2305,-1.2278,-1.2251,-1.2251,-1.2225,-1.2204,-1.2204,-1.2258,-1.2305,-1.2305,-1.2305,0.0,-1.2305,-1.2305,-1.2305,-1.2305,0.0,0.0,-1.2305,-1.2305,-1.2305,-1.2305,-1.2305,-1.2171,-1.1913,-1.1643,-1.165,-1.1946,-1.1953,-1.2228,-1.2784,-1.306,-1.336,-1.3593,-1.3133,-1.318,0.0,0.0,0.0,0.0,0.0,0.0,0.0,0.0,0.0,0.0,0.0,0.0,0.0,0.0,0.0,-0.5912,-0.6136,-0.6242,-0.6005,-0.5983,-0.5362,-0.3645,-0.3259,-0.3154,-0.3345,-0.3326,-0.3357,-0.3544,-0.3561,-0.4092,-0.517,-0.5572,0.0,-0.7376,-0.7796,-0.7939,-0.7786,-0.768,-0.7541,-0.7415,0.0,0.0,-0.7095,-0.7095,-0.7095,-0.7095,-0.7095,-0.7095,-0.7095,-0.7065,-0.6991,-0.6873,-0.6793,-0.6746,-0.6725,-0.6573,-0.645,-0.63,-0.63,-0.63,-0.63,-0.63,-0.63,-0.63,-0.63,-0.63,0.0,-0.63,-0.7176,-0.8275,-0.9074,-1.019,-1.1279,-1.2114,-1.2305,-1.2305,-1.2305,-1.2118,-1.1986,-1.1986,-1.1757,-1.1555,-1.1555,-1.1991,-1.2305,-1.2305,-1.2305,-1.2305,-1.2305,-1.2305,-1.2305,-1.2305,-1.2305,-1.2305,-1.2305,-1.2305,-1.2305,-1.2305,-1.2305,-1.2171,-1.1913,-1.2037,-1.2158,-1.2218,-1.2218,-1.2392,-1.2784,-1.306,-1.336,-1.3606,-1.3768,-1.3888,0.0,0.0,0.0,0.0,0.0,0.0,0.0,0.0,0.0,0.0,0.0,-0.5276,-0.5368,0.0,-0.5914,-0.5983,-0.618,-0.63,-0.63,-0.63,-0.5902,-0.483,-0.4692,-0.4756,-0.4921,-0.4989,-0.5067,-0.5221,-0.532,-0.5646,-0.6301,-0.6517,-0.6911,-0.7574,-0.7746,-0.7736,-0.7577,-0.7528,-0.7394,-0.7234,-0.7143,-0.7095,-0.7095,-0.652,-0.6567,-0.7051,-0.6517,-0.6561,-0.7085,-0.6937,-0.6878,-0.6793,-0.6569,-0.6522,-0.6576,-0.6542,-0.6422,-0.63,-0.63,-0.63,-0.63,-0.63,-0.63,-0.63,-0.63,-0.63,-0.63,-0.63,-0.7022,-0.805,-0.9031,-1.004,-1.105,-1.207,-1.2305,-1.2265,-1.2118,-1.2007,-1.1859,-1.1677,-1.1523,-1.1389,-1.1389,-1.1635,-1.1917,-1.2064,-1.2084,-1.2138,-1.2285,-1.2178,-1.2138,-1.2285,-1.2171,-1.2144,-1.2291,-1.2305,-1.2305,-1.2305,-1.2305,-1.2238,-1.2091,-1.2225,-1.2305,-1.2305,-1.2305,-1.2525,-1.3018,-1.3133,-1.3434,-1.3868,-1.4015,-1.4088,0.0,0.0,0.0,0.0,0.0,0.0,0.0,0.0,-0.5493,-0.5026,-0.5213,-0.5439,-0.5483,-0.578,-0.6018,-0.606,-0.618,-0.63,-0.63,-0.63,-0.63,-0.63,-0.63,-0.6368,-0.6542,-0.6627,-0.6776,-0.6913,-0.7031,-0.7095,-0.7095,-0.7288,-0.739,-0.7392,-0.752,-0.7521,-0.7425,-0.7419,-0.7284,-0.7095,-0.7095,-0.6962,-0.6741,-0.5816,-0.5766,-0.6378,-0.5645,-0.599,-0.7034,-0.681,-0.6681,-0.663,-0.6433,-0.6395,-0.647,-0.647,-0.6399,-0.63,-0.63,-0.63,-0.63,-0.63,-0.63,-0.63,-0.63,-0.63,-0.63,-0.63,-0.7022,-0.805,-0.9031,-1.004,-1.105,-1.207,-1.2305,-1.2225,-1.1966,-1.1859,-1.1697,-1.1362,-1.1296,-1.1256,-1.1256,-1.1256,-1.1376,-1.1765,-1.1784,-1.1864,-1.2104,-1.1931,-1.1897,-1.2184,-1.2047,-1.2027,-1.2278,-1.2305,-1.2305,-1.2305,-1.2305,-1.2305,-1.2305,-1.2305,-1.2305,-1.2305,-1.2305,-1.2572,-1.312,-1.318,-1.3487,-1.4001,-1.4062,-1.4088,-1.0902,-0.9351,-0.7755,-0.7024,-0.6296,-0.5615,0.0,0.0,-0.501,-0.5055,-0.5347,-0.5614,-0.5717,-0.5899,-0.606,-0.6219,-0.63,-0.63,-0.63,-0.63,-0.63,-0.63,-0.63,-0.6409,-0.6647,-0.6692,-0.6817,-0.7051,-0.7088,-0.7095,-0.7095,-0.7288,-0.739,-0.7392,-0.7553,-0.7555,-0.7422,-0.7413,-0.73,-0.7095,-0.7095,-0.6564,-0.5594,-0.546,-0.4872,-0.4055,-0.4812,-0.5815,-0.6896,-0.677,-0.662,-0.6535,-0.6501,-0.6419,-0.6323,-0.6323,-0.6313,-0.63,-0.63,-0.63,-0.63,-0.63,-0.63,-0.63,-0.63,-0.63,-0.63,-0.63,-0.7022,-0.805,-0.9031,-1.004,-1.105,-1.207,-1.2305,-1.2225,-1.1966,-1.1663,-1.1355,-1.1096,-1.0835,-1.0687,-1.0687,-1.0687,-1.0874,-1.1396,-1.1476,-1.1455,-1.1489,-1.1462,-1.159,-1.1919,-1.1926,-1.2027,-1.2278,-1.2305,-1.2305,-1.2305,-1.2305,-1.2305,-1.2305,-1.2305,-1.2305,-1.2305,-1.2305,-1.2465,-1.2837,-1.3073,-1.338,-1.366,-1.3968,-1.4088,-1.0433,-0.8975,-0.7632,-0.7322,-0.6367,-0.5467,-0.5364,-0.5053,-0.4848,-0.5054,-0.5292,-0.5541,-0.5761,-0.5908,-0.606,0.0,-0.63,-0.63,-0.63,-0.63,-0.63,-0.63,-0.6371,-0.6508,-0.6678,-0.6702,-0.6824,-0.7071,-0.7095,-0.7095,-0.7095,-0.7204,-0.7244,-0.722,-0.7264,-0.7295,-0.723,-0.722,-0.7187,-0.7095,-0.6415,-0.588,-0.5371,-0.3944,-0.3025,-0.2629,-0.4365,-0.5386,-0.5888,-0.6381,-0.6569,-0.6504,-0.6419,-0.6354,-0.63,-0.63,-0.63,-0.63,-0.63,-0.63,-0.63,-0.63,-0.63,-0.63,-0.63,-0.63,-0.63,-0.63,-0.7022,-0.805,-0.9031,-1.004,-1.105,-1.207,-1.2305,-1.2171,-1.171,-1.1516,-1.1255,-1.0861,-1.0673,-1.0593,-1.0593,-1.0593,-1.0673,-1.0882,-1.1062,-1.1236,-1.1369,-1.1242,-1.1283,-1.1583,-1.1917,-1.2171,-1.2291,-1.2305,-1.2305,-1.2305,-1.2305,-1.2305,-1.2305,-1.2305,-1.2305,-1.2305,-1.2305,-1.2452,-1.2784,-1.2918,-1.31,-1.336,-1.3653,-1.3828,-1.0037,-0.8615,-0.7393,-0.7411,-0.6308,-0.5262,-0.5463,-0.5077,-0.4753,-0.4981,-0.5175,-0.5359,-0.5634,-0.5814,-0.598,-0.618,-0.6261,-0.63,-0.63,-0.63,-0.632,-0.6335,-0.646,-0.6549,-0.6746,-0.6725,-0.6824,-0.7071,-0.7058,-0.7055,-0.7095,-0.7095,-0.7095,-0.7095,-0.7095,-0.7095,-0.7095,-0.7095,-0.6959,-0.6643,-0.5805,-0.5046,-0.4344,-0.2231,-0.15,-0.1903,-0.3444,-0.4477,-0.509,-0.5743,-0.6172,-0.6443,-0.634,-0.63,-0.63,-0.63,-0.63,-0.63,-0.63,-0.63,-0.63,-0.63,-0.63,-0.63,-0.63,-0.63,-0.63,-0.63,-0.7022,-0.805,-0.9031,-1.004,-1.105,-1.207,-1.2238,-1.2044,-1.1502,-1.1329,-1.1156,-1.0687,-1.0593,-1.0593,-1.0593,-1.0593,-1.0593,-1.0593,-1.0774,-1.0949,-1.1156,-1.1142,-1.1189,-1.1369,-1.1951,-1.2305,-1.2305,-1.2305,-1.2305,-1.2305,-1.2305,-1.2305,-1.2305,-1.2305,-1.2305,-1.2305,-1.2305,-1.2412,-1.2663,-1.2744,-1.2898,-1.3093,-1.3347,-1.3487,-1.0001,-0.8265,-0.6648,-0.6641,-0.5578,-0.4574,-0.4691,-0.4705,-0.4744,-0.489,-0.4921,-0.502,-0.5359,-0.5518,-0.5702,-0.598,-0.618,-0.63,-0.63,-0.63,-0.6332,-0.6485,-0.6502,-0.659,0.0,-0.6787,-0.6824,-0.7071,-0.697,-0.6953,-0.7088,-0.7095,-0.7095,-0.7095,-0.7095,-0.7095,-0.7095,-0.7095,-0.6552,-0.5468,-0.5394,-0.4193,-0.1887,-0.0616,-0.0696,-0.1816,-0.174,-0.2921,-0.4894,-0.4778,-0.5359,-0.6306,-0.6303,-0.63,-0.63,-0.63,-0.63,-0.63,-0.63,-0.63,-0.63,-0.63,-0.63,-0.63,-0.63,-0.63,-0.63,-0.63,-0.7022,-0.805,-0.9031,-1.004,-1.105,-1.207,-1.2084,-1.1832,-1.1455,-1.1209,-1.0915,-1.0646,-1.0593,-1.0593,-1.0593,-1.0593,-1.0593,-1.0593,-1.06,-1.0613,-1.062,-1.1069,-1.1382,-1.1389,-1.1951,-1.2305,-1.2305,-1.2305,-1.2305,-1.2305,-1.2305,-1.2305,-1.2305,-1.2305,-1.2305,-1.2305,-1.2305,-1.2305,-1.2318,-1.2643,-1.279,-1.2804,-1.308,-1.3227,-0.8626,-0.7395,-0.6478,-0.6,-0.5175,-0.4519,-0.4546,-0.4177,-0.4009,-0.4632,-0.4387,-0.431,-0.5221,-0.4922,-0.4875,-0.5838,-0.5583,-0.5503,-0.6219,-0.6387,-0.6458,-0.6505,-0.6664,0.0,-0.6876,0.0,0.0,-0.7071,-0.6964,-0.6947,-0.7088,-0.7095,-0.7095,-0.7095,-0.7095,-0.7095,-0.7095,-0.7095,-0.6529,-0.5392,-0.3793,-0.2146,-0.0571,-0.017,-0.0208,-0.0623,-0.1327,-0.2021,-0.2809,-0.4155,-0.4921,-0.5315,-0.6025,-0.63,-0.63,-0.63,-0.63,-0.63,-0.63,-0.63,-0.63,-0.63,-0.63,-0.63,-0.63,-0.63,-0.63,-0.63,-0.7022,-0.805,-0.9031,-1.004,-1.105,-1.207,-1.2225,-1.2078,-1.1784,-1.1678,-1.1483,-1.1189,-1.1136,-1.1136,-1.1136,-1.0975,-1.0814,-1.062,-1.0593,-1.0593,-1.0593,-1.1062,-1.1389,-1.1389,-1.1951,-1.2305,-1.2305,-1.2305,-1.2305,-1.2305,-1.2305,-1.2305,-1.2305,-1.2305,-1.2305,-1.2305,-1.2305,-1.2305,-1.2305,-1.2405,-1.2489,-1.2496,-1.2797,-1.2945,-0.793,-0.685,-0.6103,-0.5612,-0.5002,-0.4432,-0.4177,-0.3751,-0.3475,-0.3744,-0.3649,-0.3754,-0.466,-0.4338,-0.4245,-0.521,-0.5002,-0.4971,-0.5714,-0.6199,-0.6521,-0.6637,-0.681,-0.6906,-0.6957,-0.6868,0.0,-0.7078,-0.6964,-0.6947,-0.7088,-0.7095,-0.7095,-0.7051,-0.7095,-0.7095,-0.7051,-0.6688,-0.5681,-0.4098,-0.2102,-0.0766,0.0,0.0,0.0,-0.0041,-0.0713,-0.1254,-0.1724,-0.3439,-0.4373,-0.4805,-0.5867,-0.63,-0.63,-0.63,-0.63,-0.63,-0.63,-0.63,-0.63,-0.63,-0.63,-0.63,-0.63,-0.63,-0.63,-0.63,-0.6756,-0.748,-0.8504,-0.9518,-1.0527,-1.1502,-1.1961,-1.2098,-1.1946,-1.1819,-1.1657,-1.1429,-1.1389,-1.1362,-1.1255,-1.1029,-1.0841,-1.076,-1.0747,-1.0747,-1.0747,-1.1129,-1.147,-1.1577,-1.2011,-1.2305,-1.2305,-1.2305,-1.2305,-1.2305,-1.2305,-1.2305,-1.2305,-1.2305,-1.2305,-1.2305,-1.2305,-1.2305,-1.2305,-1.2305,-1.2305,-1.2305,-1.2536,-1.2623,-0.7827,-0.6578,-0.5495,-0.5463,-0.4947,-0.4263,-0.3555,-0.3332,-0.3088,-0.2357,-0.2736,-0.3304,-0.3671,-0.369,-0.3773,-0.4067,-0.4419,-0.4687,-0.4877,-0.5816,-0.6616,0.0,0.0,0.0,-0.7085,0.0,0.0,-0.7085,0.0,-0.6947,-0.7088,-0.7095,-0.7051,-0.6915,-0.7037,-0.7034,-0.6912,-0.5819,-0.4134,-0.1805,-0.0579,0.0,0.0,0.0,0.0,0.0,0.0,-0.0588,-0.1606,-0.2657,-0.3709,-0.4727,-0.5867,-0.63,-0.63,-0.63,-0.63,-0.63,-0.63,-0.63,-0.63,-0.63,-0.63,-0.63,-0.63,-0.63,-0.63,-0.63,-0.63,-0.6528,-0.7557,-0.8504,-0.948,-1.0559,-1.1345,-1.1855,-1.1926,-1.167,-1.1435,-1.1435,-1.1435,-1.1342,-1.1089,-1.0841,-1.0747,-1.0955,-1.1009,-1.1009,-1.0995,-1.1263,-1.1557,-1.1873,-1.2131,-1.2291,-1.2278,-1.2278,-1.2278,-1.2278,-1.2278,-1.2285,-1.2305,-1.2305,-1.2305,-1.2305,-1.2305,-1.2305,-1.2305,-1.2305,-1.2305,-1.2305,-1.2305,-1.2305,-0.6977,-0.6041,-0.5376,-0.4888,-0.4177,-0.3555,-0.336,-0.2478,-0.1792,-0.2135,-0.1906,-0.1902,-0.2691,-0.2272,0.0,-0.3062,-0.3404,0.0,-0.4619,-0.584,0.0,-0.6759,-0.691,-0.7055,-0.7092,-0.7061,0.0,0.0,-0.6964,-0.6947,-0.7088,-0.7095,-0.7051,-0.6915,-0.7018,-0.7008,-0.6776,-0.4858,-0.318,-0.1802,-0.0568,0.0,0.0,0.0,0.0,0.0,0.0,-0.0157,-0.0549,-0.2345,-0.3279,-0.3709,-0.555,-0.63,-0.63,-0.63,-0.63,-0.63,-0.63,-0.63,-0.63,-0.63,-0.63,-0.63,-0.63,-0.63,-0.63,-0.63,-0.63,-0.6528,-0.7557,-0.7974,-0.8613,-1.0372,-1.0922,-1.1292,-1.2045,-1.2131,-1.2078,-1.2078,-1.2078,-1.1984,-1.1732,-1.1618,-1.1444,-1.1049,-1.1176,-1.1236,-1.1022,-1.1443,-1.1819,-1.1899,-1.2131,-1.2218,-1.2033,-1.202,-1.202,-1.202,-1.202,-1.2078,-1.2291,-1.2305,-1.2305,-1.2305,-1.2305,-1.2305,-1.2305,-1.2305,-1.2305,-1.2305,-1.2305,-1.2305,-0.6636,-0.5724,-0.4974,-0.4605,-0.3923,-0.3252,-0.2899,-0.193,-0.1122,-0.1206,-0.115,-0.129,-0.1853,-0.1492,-0.1333,0.0,0.0,0.0,-0.4128,-0.5641,-0.6765,0.0,-0.6997,0.0,-0.7095,-0.7095,-0.7095,0.0,-0.7021,-0.7011,-0.7092,-0.7038,-0.6943,-0.682,-0.6897,-0.6386,-0.5199,-0.4016,-0.2586,-0.1021,-0.0319,0.0,0.0,0.0,0.0,0.0,0.0,0.0,-0.0118,-0.1761,-0.2696,-0.3279,-0.496,-0.5867,-0.63,-0.63,-0.63,-0.63,-0.63,-0.63,-0.63,-0.63,-0.63,-0.63,-0.63,-0.63,-0.63,-0.63,-0.63,-0.6416,-0.6984,-0.748,-0.8194,-0.9777,-1.049,-1.1087,-1.2077,-1.2305,-1.2305,-1.2305,-1.2091,-1.1911,-1.1913,-1.1584,-1.1256,-1.1022,-1.1236,-1.1335,-1.1202,-1.1583,-1.1953,-1.2044,-1.2091,-1.2044,-1.1919,-1.1906,-1.1906,-1.1906,-1.2027,-1.2131,-1.2291,-1.2305,-1.2305,-1.2305,-1.2305,-1.2305,-1.2305,-1.2305,-1.2305,-1.2305,-1.2305,-1.2305,-0.6435,-0.5463,-0.446,-0.446,-0.3837,-0.3058,-0.2355,-0.1543,-0.0785,-0.014,-0.0505,-0.0982,-0.1094,-0.1029,-0.0984,-0.1119,0.0,-0.3056,-0.3505,-0.5264,-0.6632,-0.7034,-0.7085,-0.7088,-0.7068,-0.7068,-0.7058,-0.7041,-0.7038,-0.7048,-0.7065,-0.6953,-0.6844,-0.6718,-0.6667,-0.5549,-0.331,-0.3347,-0.2242,0.0,0.0,0.0,0.0,0.0,0.0,0.0,0.0,0.0,-0.0079,-0.1176,-0.219,-0.3202,-0.4295,-0.5354,-0.63,-0.63,-0.63,-0.63,-0.63,-0.63,-0.63,-0.63,-0.63,-0.63,-0.63,-0.63,-0.63,-0.63,-0.63,-0.63,-0.63,-0.6949,-0.7851,-0.8845,-0.9868,-1.0852,-1.1877,-1.2198,-1.2291,-1.2251,-1.183,-1.1557,-1.177,-1.1209,-1.078,-1.0962,-1.1236,-1.1375,-1.1335,-1.1697,-1.2024,-1.2278,-1.2044,-1.1893,-1.1852,-1.1812,-1.1785,-1.1785,-1.1991,-1.2144,-1.2184,-1.2184,-1.2204,-1.2245,-1.2245,-1.2265,-1.2305,-1.2305,-1.2305,-1.2305,-1.2305,-1.2305,-0.5508,-0.4833,-0.4263,-0.4263,-0.3329,-0.236,-0.2244,-0.115,-0.0168,-0.0028,-0.0112,-0.0196,-0.0224,-0.0217,-0.0201,-0.0238,-0.1151,-0.2219,-0.3192,-0.4506,-0.5745,0.0,-0.7024,-0.7051,-0.6933,-0.6923,0.0,0.0,0.0,-0.6831,-0.6916,-0.69,-0.6839,-0.6692,-0.6491,-0.5373,-0.3308,-0.3188,-0.2083,0.0,0.0,0.0,0.0,0.0,0.0,0.0,0.0,0.0,-0.0079,-0.1176,-0.219,-0.3202,-0.4295,-0.5354,-0.63,-0.63,-0.63,-0.63,-0.63,-0.63,-0.63,-0.63,-0.63,-0.63,-0.63,-0.63,-0.63,-0.63,-0.63,-0.63,-0.63,-0.6416,-0.6758,-0.7617,-0.8707,-0.9804,-1.0713,-1.1651,-1.2231,-1.2027,-1.1899,-1.173,-1.1536,-1.1376,-1.1209,-1.1022,-1.1236,-1.1302,-1.1096,-1.1744,-1.2245,-1.2298,-1.2044,-1.1806,-1.1523,-1.1283,-1.1149,-1.1149,-1.1196,-1.1323,-1.1535,-1.1542,-1.1697,-1.198,-1.198,-1.2064,-1.2305,-1.2305,-1.2305,-1.2305,-1.2305,-1.2305,-0.5269,-0.4618,-0.4102,-0.4189,-0.3146,-0.2122,-0.2186,-0.1064,0.0,0.0,0.0,0.0,0.0,0.0,0.0,0.0,-0.1289,-0.257,-0.3327,-0.4816,-0.608,-0.6816,-0.6947,-0.693,-0.6824,-0.681,-0.678,0.0,0.0,-0.6732,-0.6807,-0.6723,-0.6622,-0.6478,-0.581,-0.4727,-0.3214,-0.2631,-0.1533,0.0,0.0,0.0,0.0,0.0,0.0,0.0,0.0,0.0,-0.0039,-0.0549,-0.1371,-0.2425,-0.3476,-0.453,-0.555,-0.6103,-0.63,-0.63,-0.63,-0.63,-0.63,-0.63,-0.63,-0.63,-0.63,-0.63,-0.63,-0.63,-0.63,-0.6282,-0.6162,-0.6139,-0.6362,-0.7212,-0.8577,-0.9971,-1.0814,-1.1462,-1.1804,-1.1663,-1.1516,-1.1369,-1.1223,-1.1076,-1.0929,-1.0821,-1.1015,-1.1149,-1.1009,-1.1496,-1.1844,-1.1844,-1.1724,-1.1516,-1.1223,-1.1069,-1.0995,-1.0995,-1.1136,-1.1283,-1.1382,-1.1389,-1.149,-1.1637,-1.1826,-1.1973,-1.2078,-1.2231,-1.2305,-1.2305,-1.2305,-1.2305,-0.4967,-0.4383,-0.3981,-0.4121,-0.3074,-0.2021,-0.2156,-0.1064,0.0,0.0,0.0,0.0,0.0,0.0,0.0,0.0,-0.1289,-0.2583,-0.3455,-0.4899,-0.6113,-0.6766,-0.6866,0.0,-0.6668,-0.6651,0.0,0.0,0.0,0.0,-0.6668,-0.6545,-0.6418,-0.6306,-0.5265,-0.4174,-0.3129,-0.2118,-0.1061,0.0,0.0,0.0,0.0,0.0,0.0,0.0,0.0,0.0,0.0,0.0,-0.0628,-0.1685,-0.2696,-0.3748,-0.4844,-0.5906,-0.63,-0.6293,-0.6262,-0.6272,-0.6289,-0.6221,-0.6245,-0.63,-0.63,-0.6276,-0.6248,-0.6248,-0.6228,-0.6173,-0.6013,-0.5942,-0.6166,-0.7071,-0.8549,-0.9995,-1.0923,-1.1286,-1.1375,-1.1349,-1.1149,-1.0975,-1.0909,-1.0747,-1.0593,-1.0593,-1.0787,-1.0902,-1.0902,-1.1156,-1.1275,-1.1243,-1.1296,-1.1243,-1.1009,-1.0935,-1.0902,-1.0902,-1.1116,-1.1243,-1.1243,-1.1243,-1.1269,-1.1295,-1.1563,-1.1745,-1.177,-1.2064,-1.2204,-1.2211,-1.2271,-1.2305,-0.4039,-0.3784,-0.3839,-0.3984,-0.2991,-0.2021,-0.2156,-0.1064,0.0,0.0,0.0,0.0,0.0,0.0,0.0,0.0,0.0,-0.0997,-0.3113,-0.366,-0.4557,-0.6507,0.0,0.0,-0.6562,-0.6532,0.0,0.0,0.0,0.0,0.0,-0.64,-0.6327,-0.63,-0.5265,-0.4181,-0.3108,-0.2123,-0.1061,0.0,0.0,0.0,0.0,0.0,0.0,0.0,0.0,0.0,0.0,0.0,-0.0628,-0.1685,-0.2696,-0.3748,-0.4844,-0.5906,-0.63,-0.6279,-0.6098,-0.6142,-0.6252,-0.5935,-0.6071,-0.63,-0.63,-0.6162,-0.6013,-0.6013,-0.5952,-0.584,-0.5827,-0.5823,-0.6065,-0.7074,-0.7944,-0.8853,-0.9978,-1.0833,-1.1349,-1.1082,-1.1009,-1.0909,-1.068,-1.0613,-1.0593,-1.0593,-1.0613,-1.0633,-1.0633,-1.0888,-1.0929,-1.07,-1.0875,-1.1022,-1.0995,-1.0787,-1.0633,-1.0633,-1.066,-1.0673,-1.0673,-1.0673,-1.0794,-1.1029,-1.1062,-1.1202,-1.147,-1.1764,-1.1946,-1.1953,-1.2178,-1.2305,-0.3899,-0.3692,-0.3843,-0.3964,-0.3003,-0.204,-0.2179,-0.1063,0.0,0.0,0.0,0.0,0.0,0.0,0.0,0.0,-0.0917,-0.2054,-0.3249,-0.4353,-0.5407,-0.6461,-0.6617,0.0,0.0,0.0,0.0,0.0,0.0,0.0,0.0,-0.6344,-0.6018,-0.5345,-0.4281,-0.3224,-0.2196,-0.1148,-0.0413,0.0,0.0,0.0,0.0,0.0,0.0,0.0,0.0,0.0,0.0,0.0,-0.0265,-0.0729,-0.18,-0.2767,-0.3747,-0.4828,-0.5566,-0.5976,-0.5915,-0.5932,-0.5962,-0.584,-0.5884,-0.5986,-0.5986,-0.5942,-0.5891,-0.5891,-0.5847,-0.5783,-0.5694,-0.5606,-0.5805,-0.6709,-0.7555,-0.8415,-0.9417,-1.0305,-1.0901,-1.0787,-1.0767,-1.0727,-1.0613,-1.0593,-1.0593,-1.0593,-1.0593,-1.0593,-1.0593,-1.0693,-1.072,-1.06,-1.0854,-1.0922,-1.078,-1.066,-1.0593,-1.0593,-1.0593,-1.0593,-1.0593,-1.0593,-1.0646,-1.076,-1.0935,-1.1136,-1.1389,-1.1724,-1.1993,-1.2131,-1.2245,-1.2305,-0.4317,-0.3943,-0.389,-0.4021,-0.3013,-0.2037,-0.2174,-0.1062,0.0,0.0,0.0,0.0,0.0,0.0,0.0,0.0,-0.1321,-0.2602,-0.3209,-0.4698,-0.5931,-0.6451,0.0,-0.6532,0.0,0.0,0.0,0.0,0.0,0.0,0.0,-0.598,-0.5464,-0.4714,-0.3638,-0.2569,-0.162,-0.053,0.0,0.0,0.0,0.0,0.0,0.0,0.0,0.0,0.0,0.0,0.0,0.0,0.0,-0.0112,-0.1196,-0.1957,-0.2693,-0.3994,-0.4893,-0.5431,-0.5681,-0.5766,-0.5786,-0.5698,-0.5701,-0.5732,-0.5684,-0.5701,-0.5739,-0.5739,-0.5705,-0.5647,-0.5583,-0.5477,-0.5557,-0.617,-0.6985,-0.7859,-0.8716,-0.9588,-1.0301,-1.0561,-1.0593,-1.0593,-1.0593,-1.0593,-1.0593,-1.0593,-1.0593,-1.0593,-1.0593,-1.0593,-1.0593,-1.0593,-1.0774,-1.0814,-1.0613,-1.0593,-1.0593,-1.0593,-1.0593,-1.0593,-1.0593,-1.0593,-1.0633,-1.072,-1.0841,-1.1009,-1.1262,-1.151,-1.1717,-1.1917,-1.2004,-1.2044,-0.5252,-0.4544,-0.4027,-0.4171,-0.3095,-0.2041,-0.2176,-0.1062,0.0,0.0,0.0,0.0,0.0,0.0,0.0,0.0,-0.0916,-0.196,-0.298,-0.4263,-0.5468,0.0,0.0,-0.6803,-0.6542,0.0,0.0,0.0,0.0,0.0,0.0,-0.5187,-0.4714,-0.4712,-0.3528,-0.2469,-0.1619,-0.0524,0.0,0.0,0.0,0.0,0.0,0.0,0.0,0.0,0.0,0.0,0.0,0.0,0.0,-0.0109,-0.1164,-0.16,-0.1854,-0.377,-0.4493,-0.4621,-0.5358,-0.5684,-0.5752,-0.5494,-0.5501,-0.5562,-0.5446,-0.5504,-0.5593,-0.5593,-0.5518,-0.5399,-0.5399,-0.5395,-0.5395,-0.5395,-0.6075,-0.6948,-0.7832,-0.8716,-0.9562,-1.0428,-1.0593,-1.0593,-1.0593,-1.0593,-1.0593,-1.0593,-1.0593,-1.0593,-1.0593,-1.0593,-1.0593,-1.0593,-1.0593,-1.0593,-1.0593,-1.0593,-1.0593,-1.0593,-1.0593,-1.0593,-1.0593,-1.0593,-1.0727,-1.0982,-1.074,-1.074,-1.0995,-1.1002,-1.1002,-1.1015,-1.1303,-1.1395,-0.5255,-0.4622,-0.415,-0.4177,-0.3153,-0.2153,-0.2176,-0.1062,0.0,0.0,0.0,0.0,0.0,0.0,0.0,0.0,-0.1414,0.0,-0.3036,0.0,0.0,-0.6318,-0.6453,-0.6474,0.0,0.0,0.0,0.0,0.0,0.0,0.0,-0.4753,-0.424,-0.3496,-0.2524,-0.1518,-0.0506,-0.0171,0.0,0.0,0.0,0.0,0.0,0.0,0.0,0.0,0.0,0.0,0.0,0.0,0.0,-0.0036,-0.0391,-0.0877,-0.1552,-0.2805,-0.3663,-0.4288,-0.5174,-0.5498,-0.5518,-0.5426,-0.5429,-0.5457,-0.5409,-0.5429,-0.5467,-0.5467,-0.5433,-0.5395,-0.5395,-0.5395,-0.5395,-0.5395,-0.6075,-0.6948,-0.7795,-0.8678,-0.9562,-1.0428,-1.0593,-1.0593,-1.0593,-1.0593,-1.0593,-1.0593,-1.0593,-1.0593,-1.0593,-1.0593,-1.0593,-1.0593,-1.0593,-1.0593,-1.0593,-1.0593,-1.0593,-1.0593,-1.0593,-1.068,-1.0881,-1.0855,-1.0995,-1.1283,-1.1002,-1.1002,-1.1255,-1.1089,-1.1096,-1.1289,-1.1349,-1.1389,-0.585,-0.5002,-0.4319,-0.4319,-0.3458,-0.2541,-0.2259,-0.1284,-0.0339,-0.0059,0.0,0.0,0.0,0.0,0.0,0.0,-0.1357,0.0,0.0,0.0,0.0,-0.637,0.0,0.0,0.0,0.0,0.0,0.0,0.0,0.0,0.0,0.0,-0.356,-0.2846,-0.1951,-0.1012,0.0,0.0,0.0,0.0,0.0,0.0,0.0,0.0,0.0,0.0,0.0,0.0,0.0,0.0,0.0,0.0,0.0,-0.0342,-0.0908,-0.1844,-0.2751,-0.3647,-0.4553,-0.509,-0.5395,-0.5395,-0.5395,-0.5395,-0.5395,-0.5395,-0.5395,-0.5395,-0.5395,-0.5395,-0.5395,-0.5395,-0.5395,-0.5395,-0.5815,-0.6465,-0.7307,-0.8188,-0.9069,-0.9945,-1.0364,-1.0593,-1.0593,-1.0593,-1.0593,-1.0593,-1.0593,-1.0593,-1.0593,-1.0593,-1.0593,-1.0593,-1.0593,-1.0593,-1.0593,-1.0593,-1.0593,-1.0593,-1.0593,-1.0673,-1.0854,-1.0861,-1.0969,-1.1256,-1.0982,-1.0969,-1.1263,-1.0969,-1.0922,-1.1096,-1.1096,-1.1096,0.0,-0.5601,-0.457,-0.4519,-0.3901,-0.3093,-0.2369,-0.1619,0.0,-0.0147,0.0,0.0,0.0,0.0,0.0,0.0,-0.0904,0.0,0.0,-0.4185,0.0,0.0,-0.6546,0.0,0.0,0.0,0.0,0.0,0.0,0.0,0.0,0.0,-0.2774,-0.2507,-0.1653,-0.0809,0.0,0.0,0.0,0.0,0.0,0.0,0.0,0.0,0.0,0.0,0.0,0.0,0.0,0.0,0.0,0.0,0.0,0.0,-0.0101,-0.0973,-0.1909,-0.2811,-0.3713,-0.4619,-0.5395,-0.5395,-0.5395,-0.5395,-0.5395,-0.5395,-0.5395,-0.5395,-0.5395,-0.5395,-0.5395,-0.5395,-0.5395,-0.5395,-0.5395,-0.5657,-0.6527,-0.7372,-0.8253,-0.9139,-1.0009,-1.0593,-1.0593,-1.0593,-1.0593,-1.0593,-1.0593,-1.0593,-1.0593,-1.0593,-1.0593,-1.0593,-1.0593,-1.0593,-1.0593,-1.0593,-1.0593,-1.0593,-1.0593,-1.06,-1.062,-1.0626,-1.076,-1.1015,-1.0774,-1.0747,-1.0962,-1.072,-1.0593,-1.0593,-1.0593,-1.0593,-0.6792,0.0,-0.5152,-0.4622,-0.3901,-0.3093,0.0,-0.1619,-0.0882,-0.0151,0.0,0.0,0.0,0.0,0.0,0.0,0.0,-0.1959,-0.2949,0.0,0.0,-0.6359,0.0,0.0,0.0,0.0,0.0,0.0,0.0,0.0,0.0,0.0,-0.2195,-0.0674,-0.0404,-0.0202,0.0,0.0,0.0,0.0,0.0,0.0,0.0,0.0,0.0,0.0,0.0,0.0,0.0,0.0,0.0,0.0,0.0,0.0,-0.0101,-0.0973,-0.1909,-0.2811,-0.3713,-0.4619,-0.5395,-0.5395,-0.5395,-0.5395,-0.5395,-0.5395,-0.5395,-0.5395,-0.5395,-0.5395,-0.5395,-0.5395,-0.5395,-0.5395,-0.5395,-0.5657,-0.6527,-0.7372,-0.8253,-0.9139,-1.0009,-1.0593,-1.0593,-1.0593,-1.0593,-1.0593,-1.0593,-1.0593,-1.0593,-1.0593,-1.0593,-1.0593,-1.0593,-1.0593,-1.0593,-1.0593,-1.0593,-1.0593,-1.0593,-1.0693,-1.0914,-1.0928,-1.1029,-1.1282,-1.1042,-1.0847,-1.0693,-1.0626,-1.0593,-1.0593,-1.0593,-1.0593,-0.7306,-0.6308,-0.5363,-0.4741,-0.4228,-0.3666,-0.2984,-0.2199,-0.1389,-0.0657,-0.0244,0.0,0.0,0.0,0.0,0.0,-0.0894,0.0,0.0,0.0,-0.63,-0.63,0.0,0.0,0.0,0.0,0.0,0.0,0.0,0.0,0.0,0.0,-0.1677,-0.064,-0.0202,0.0,0.0,0.0,0.0,0.0,0.0,0.0,0.0,0.0,0.0,0.0,0.0,0.0,0.0,0.0,0.0,-0.0034,-0.0437,-0.0605,-0.0706,-0.1608,-0.2511,-0.338,-0.3846,-0.4619,-0.5395,-0.5395,-0.5395,-0.5395,-0.5395,-0.5395,-0.5395,-0.5395,-0.5395,-0.5395,-0.5395,-0.5395,-0.5395,-0.5395,-0.5395,-0.5657,-0.6527,-0.7372,-0.8253,-0.9139,-1.0009,-1.0593,-1.0593,-1.0593,-1.0593,-1.0593,-1.0593,-1.0593,-1.0593,-1.0593,-1.0593,-1.0593,-1.0593,-1.0593,-1.0593,-1.0593,-1.0593,-1.0593,-1.0593,-1.0667,-1.0821,-1.0827,-1.0868,-1.1022,-1.0875,-1.0754,-1.0593,-1.0593,-1.0593,-1.0593,-1.0593,-1.0593,-0.7889,-0.6713,-0.5525,-0.4958,-0.4668,-0.4327,-0.3699,-0.293,-0.2168,-0.1427,-0.0693,-0.0219,-0.0389,-0.0171,-0.0071,0.0,0.0,0.0,-0.4441,-0.5628,-0.63,0.0,0.0,0.0,0.0,0.0,0.0,0.0,0.0,0.0,0.0,0.0,0.0,-0.1113,-0.0371,0.0,0.0,0.0,0.0,0.0,0.0,0.0,0.0,0.0,0.0,0.0,0.0,0.0,0.0,0.0,0.0,-0.0101,-0.0973,-0.1307,-0.1407,-0.2342,-0.3247,-0.4015,-0.4151,-0.4722,-0.5395,-0.5395,-0.5395,-0.5395,-0.5395,-0.5395,-0.5395,-0.5395,-0.5395,-0.5395,-0.5395,-0.5395,-0.5395,-0.5395,-0.5395,-0.5657,-0.6527,-0.7372,-0.8253,-0.9139,-1.0009,-1.0593,-1.0593,-1.0593,-1.0593,-1.0593,-1.0593,-1.0593,-1.0593,-1.0593,-1.0593,-1.0593,-1.0593,-1.0593,-1.0593,-1.0593,-1.0593,-1.0593,-1.0593,-1.0593,-1.0593,-1.0593,-1.0593,-1.0593,-1.0593,-1.0593,-1.0593,-1.0593,-1.0593,-1.0593,-1.0593,-1.0593,-0.7889,-0.7074,-0.6268,-0.5553,-0.4939,-0.4298,-0.3535,-0.3244,-0.2925,-0.2183,-0.1444,-0.1199,-0.2109,-0.1027,-0.0294,0.0,0.0,-0.3306,0.0,0.0,0.0,0.0,0.0,0.0,0.0,0.0,0.0,0.0,0.0,0.0,0.0,0.0,0.0,-0.0236,-0.0067,0.0,0.0,0.0,0.0,0.0,0.0,0.0,0.0,0.0,0.0,0.0,0.0,0.0,0.0,0.0,0.0,-0.0101,-0.0973,-0.1307,-0.1407,-0.2342,-0.3247,-0.4115,-0.4924,-0.5292,-0.5395,-0.5395,-0.5395,-0.5395,-0.5395,-0.5395,-0.5395,-0.5395,-0.5395,-0.5395,-0.5395,-0.5395,-0.5395,-0.5395,-0.5395,-0.5657,-0.6527,-0.7372,-0.8253,-0.9139,-1.0009,-1.0593,-1.0593,-1.0593,-1.0593,-1.0593,-1.0593,-1.0593,-1.0593,-1.0593,-1.0593,-1.0593,-1.0593,-1.0593,-1.0593,-1.0593,-1.0593,-1.0593,-1.0593,-1.0593,-1.0593,-1.0593,-1.0593,-1.0593,-1.0593,-1.0593,-1.0593,-1.0593,-1.0593,-1.0593,-1.0593,-1.0593,-0.8401,-0.7477,-0.6532,-0.6309,-0.5418,-0.454,-0.4338,-0.3897,-0.3485,-0.3147,-0.2465,-0.2145,-0.2703,0.0,-0.1958,-0.3103,0.0,-0.4334,0.0,0.0,0.0,0.0,0.0,0.0,0.0,0.0,0.0,0.0,0.0,0.0,0.0,0.0,0.0,0.0,0.0,0.0,0.0,0.0,0.0,0.0,0.0,0.0,0.0,0.0,0.0,0.0,0.0,0.0,0.0,0.0,0.0,-0.0101,-0.0973,-0.1608,-0.2242,-0.3647,-0.4417,-0.4821,-0.5259,-0.5395,-0.5395,-0.5395,-0.5395,-0.5395,-0.5395,-0.5395,-0.5395,-0.5395,-0.5395,-0.5395,-0.5395,-0.5395,-0.5395,-0.5395,-0.5395,-0.5657,-0.6527,-0.7372,-0.8253,-0.9139,-1.0009,-1.0593,-1.0593,-1.0593,-1.0593,-1.0593,-1.0593,-1.0593,-1.0593,-1.0593,-1.0593,-1.0593,-1.0593,-1.0593,-1.0593,-1.0593,-1.0593,-1.0593,-1.0593,-1.0593,-1.0593,-1.0593,-1.0593,-1.0593,-1.0593,-1.0593,-1.0593,-1.0593,-1.0593,-1.0593,-1.0593,-1.0593,-0.8704,-0.7815,-0.6856,-0.6882,-0.5767,-0.4714,-0.4982,-0.4528,-0.4058,-0.4058,-0.3508,-0.3097,0.0,-0.3379,0.0,-0.4505,-0.467,0.0,0.0,0.0,0.0,0.0,0.0,0.0,0.0,0.0,0.0,0.0,0.0,0.0,0.0,0.0,0.0,0.0,0.0,0.0,0.0,0.0,0.0,0.0,0.0,0.0,0.0,0.0,0.0,0.0,0.0,0.0,0.0,0.0,0.0,-0.0101,-0.0973,-0.2009,-0.3178,-0.4553,-0.5226,-0.5395,-0.5395,-0.5395,-0.5395,-0.5395,-0.5395,-0.5395,-0.5395,-0.5395,-0.5395,-0.5395,-0.5395,-0.5395,-0.5395,-0.5395,-0.5395,-0.5395,-0.5395,-0.5657,-0.6527,-0.7372,-0.8253,-0.9139,-1.0009,-1.0593,-1.0593,-1.0593,-1.0593,-1.0593,-1.0593,-1.0593,-1.0593,-1.0593,-1.0593,-1.0593,-1.0593,-1.0593,-1.0593,-1.0593,-1.0593,-1.0593,-1.0593,-1.0593,-1.0593,-1.0593,-1.0593,-1.0593,-1.0593,-1.0593,-1.0593,-1.0593,-1.0593,-1.0593,-1.0593,-1.0593,-0.8435,-0.8048,-0.7512,-0.7023,-0.5694,-0.4586,-0.4863,-0.4867,-0.4826,-0.4826,-0.4336,-0.4174,-0.5054,-0.4749,-0.4398,-0.4488,-0.4617,0.0,0.0,0.0,0.0,0.0,0.0,0.0,0.0,0.0,0.0,0.0,0.0,0.0,0.0,0.0,0.0,0.0,0.0,0.0,0.0,0.0,0.0,0.0,0.0,0.0,0.0,0.0,0.0,0.0,0.0,0.0,0.0,0.0,0.0,-0.0101,-0.0973,-0.2376,-0.3915,-0.4048,-0.4652,-0.5395,-0.5395,-0.5395,-0.5395,-0.5395,-0.5395,-0.5395,-0.5395,-0.5395,-0.5395,-0.5395,-0.5395,-0.5395,-0.5395,-0.5395,-0.5395,-0.5395,-0.5395,-0.5657,-0.6527,-0.7372,-0.8253,-0.9139,-1.0009,-1.0593,-1.0593,-1.0593,-1.0593,-1.0593,-1.0593,-1.0593,-1.0593,-1.0593,-1.0593,-1.0593,-1.0593,-1.0593,-1.0593,-1.0593,-1.0593,-1.0593,-1.0593,-1.0593,-1.0593,-1.0593,-1.0593,-1.0593,-1.0593,-1.0593,-1.0593,-1.0593,-1.0593,-1.0593,-1.0593,-1.0593,-0.8402,-0.8213,-0.7926,-0.7616,-0.6473,-0.5362,-0.5071,-0.5125,-0.5223,-0.5318,-0.5151,-0.5089,-0.5467,0.0,-0.5295,-0.5295,0.0,0.0,0.0,0.0,0.0,0.0,0.0,0.0,0.0,0.0,0.0,0.0,0.0,0.0,0.0,0.0,0.0,0.0,0.0,0.0,0.0,0.0,0.0,0.0,0.0,0.0,0.0,0.0,0.0,0.0,0.0,0.0,0.0,0.0,0.0,-0.0135,-0.1609,-0.2577,-0.3311,-0.4453,-0.509,-0.5395,-0.5395,-0.5395,-0.5395,-0.5395,-0.5395,-0.5395,-0.5395,-0.5395,-0.5395,-0.5395,-0.5395,-0.5395,-0.5395,-0.5395,-0.5395,-0.5395,-0.5395,-0.5519,-0.5914,-0.6701,-0.764,-0.8657,-0.9563,-1.0326,-1.0757,-1.0861,-1.0801,-1.062,-1.0593,-1.0593,-1.0593,-1.0593,-1.0593,-1.0593,-1.0593,-1.0593,-1.0593,-1.0593,-1.0593,-1.0593,-1.0593,-1.0593,-1.0593,-1.0593,-1.0593,-1.0593,-1.0593,-1.0593,-1.0593,-1.0593,-1.0593,-1.0593,-1.0593,-1.0593,-0.8375,-0.8383,-0.826,-0.7706,-0.6927,-0.6064,-0.5279,-0.5213,-0.5332,-0.5521,-0.5552,-0.5552,-0.5552,0.0,0.0,0.0,0.0,0.0,0.0,0.0,0.0,0.0,0.0,0.0,0.0,0.0,0.0,0.0,0.0,0.0,0.0,0.0,0.0,0.0,0.0,0.0,0.0,0.0,0.0,0.0,0.0,0.0,0.0,0.0,0.0,0.0,0.0,0.0,0.0,0.0,0.0,-0.0135,-0.1376,-0.2211,-0.2845,-0.4084,-0.4924,-0.5395,-0.5395,-0.5395,-0.5395,-0.5395,-0.5395,-0.5395,-0.5395,-0.5395,-0.5395,-0.5395,-0.5395,-0.5395,-0.5395,-0.5395,-0.5395,-0.5395,-0.5395,-0.5436,-0.5555,-0.6299,-0.7147,-0.7903,-0.9056,-1.0017,-1.0384,-1.0765,-1.0895,-1.0633,-1.0593,-1.0593,-1.0593,-1.0593,-1.0593,-1.0593,-1.0593,-1.0593,-1.0593,-1.0593,-1.0593,-1.0593,-1.0593,-1.0593,-1.0593,-1.0593,-1.0593,-1.0593,-1.0593,-1.0593,-1.0593,-1.0593,-1.0593,-1.0593,-1.0593,-1.0593,-0.8322,-0.8584,-0.8498,-0.7219,-0.6909,-0.6591,-0.5373,-0.51,-0.5143,-0.5365,-0.5395,-0.5395,-0.5395,-0.5521,0.0,0.0,0.0,0.0,0.0,0.0,0.0,0.0,0.0,0.0,0.0,0.0,0.0,0.0,0.0,0.0,0.0,0.0,0.0,0.0,0.0,0.0,0.0,0.0,0.0,0.0,0.0,0.0,0.0,0.0,0.0,0.0,0.0,0.0,0.0,0.0,0.0,0.0,0.0,-0.1109,-0.2711,-0.2711,-0.3849,-0.5395,-0.5395,-0.5395,-0.5395,-0.5395,-0.5395,-0.5395,-0.5395,-0.5395,-0.5395,-0.5395,-0.5395,-0.5395,-0.5395,-0.5395,-0.5395,-0.5395,-0.5395,-0.5436,-0.5555,-0.6268,-0.6903,-0.6907,-0.8502,-0.9764,-0.9362,-1.0243,-1.0895,-1.0633,-1.0593,-1.0593,-1.0593,-1.0593,-1.0593,-1.0593,-1.0593,-1.0593,-1.0593,-1.0593,-1.0593,-1.0593,-1.0593,-1.0593,-1.0593,-1.0593,-1.0593,-1.0593,-1.0593,-1.0593,-1.0593,-1.0593,-1.0593,-1.0593,-1.0593,-1.0593,-0.8375,-0.839,-0.826,-0.7734,-0.6991,-0.6322,-0.595,-0.5596,-0.5368,-0.5525,-0.5556,-0.5525,-0.5416,-0.5433,0.0,0.0,0.0,0.0,0.0,0.0,0.0,0.0,0.0,0.0,0.0,0.0,0.0,0.0,0.0,0.0,0.0,0.0,0.0,0.0,0.0,0.0,0.0,0.0,0.0,0.0,0.0,0.0,0.0,0.0,0.0,0.0,0.0,0.0,0.0,0.0,0.0,-0.0067,-0.0672,-0.1642,-0.2778,-0.338,-0.4384,-0.5395,-0.5395,-0.5395,-0.5395,-0.5395,-0.5395,-0.5395,-0.5395,-0.5395,-0.5395,-0.5395,-0.5395,-0.5395,-0.5395,-0.5395,-0.5395,-0.5395,-0.5395,-0.5436,-0.5555,-0.5874,-0.633,-0.7061,-0.7857,-0.8653,-0.9455,-0.9946,-1.0306,-1.0564,-1.0593,-1.0593,-1.0593,-1.0593,-1.0593,-1.0593,-1.0593,-1.0593,-1.0593,-1.0593,-1.0593,-1.0593,-1.0593,-1.0593,-1.0593,-1.0593,-1.0593,-1.0593,-1.0593,-1.0593,-1.0593,-1.0593,-1.0593,-1.0593,-1.0593,-1.0593,-0.8543,-0.8289,-0.7944,-0.7653,-0.6841,-0.6064,-0.581,-0.5571,-0.5402,-0.5399,-0.5406,-0.5362,-0.5213,-0.5186,0.0,0.0,0.0,0.0,0.0,0.0,0.0,0.0,0.0,0.0,0.0,0.0,0.0,0.0,0.0,0.0,0.0,0.0,0.0,0.0,0.0,0.0,0.0,0.0,0.0,0.0,0.0,0.0,0.0,0.0,0.0,0.0,0.0,0.0,0.0,0.0,0.0,-0.0066,-0.0595,-0.1328,-0.2242,-0.3145,-0.4048,-0.4891,-0.5259,-0.5395,-0.5395,-0.5395,-0.5395,-0.5395,-0.5395,-0.5395,-0.5395,-0.5395,-0.5395,-0.5395,-0.5395,-0.5395,-0.5395,-0.5395,-0.5395,-0.5436,-0.5555,-0.5657,-0.5891,-0.6514,-0.717,-0.7798,-0.8394,-0.895,-0.949,-1.0008,-1.0079,-0.9945,-0.9614,-0.9582,-0.9716,-1.0047,-1.0079,-1.0206,-1.0561,-1.0593,-1.0593,-1.0593,-1.0593,-1.0593,-1.0593,-1.0593,-1.0593,-1.0593,-1.0593,-1.0593,-1.0593,-1.0593,-1.0593,-1.0593,-1.0593,-1.0593,-0.8738,-0.8209,-0.7509,-0.7163,-0.6485,-0.5765,-0.5203,-0.522,-0.5313,-0.5106,0.0,-0.5042,-0.4911,-0.4887,0.0,0.0,0.0,0.0,0.0,0.0,0.0,0.0,0.0,0.0,0.0,0.0,0.0,0.0,0.0,0.0,0.0,0.0,0.0,0.0,0.0,0.0,0.0,0.0,0.0,0.0,0.0,0.0,0.0,0.0,0.0,0.0,0.0,0.0,0.0,0.0,0.0,0.0,0.0,-0.0587,-0.1529,-0.2365,-0.3301,-0.4234,-0.5087,-0.5395,-0.5395,-0.5395,-0.5395,-0.5395,-0.5395,-0.5395,-0.5395,-0.5395,-0.5395,-0.5395,-0.5395,-0.5395,-0.5395,-0.5395,-0.5395,-0.5433,-0.5538,-0.5579,-0.5586,-0.5572,-0.6421,-0.7059,-0.675,-0.7574,-0.8482,-0.9077,-0.9236,-0.8973,-0.8124,-0.7994,-0.8285,-0.9107,-0.9172,-0.9498,-1.0301,-1.0364,-1.0364,-1.0364,-1.0364,-1.0396,-1.0466,-1.0466,-1.0466,-1.0466,-1.0466,-1.0428,-1.0364,-1.0428,-1.0428,-1.0364,-1.0428,-1.0466,-0.8791,-0.783,-0.6839,-0.6914,-0.6028,-0.5107,-0.4989,-0.4989,-0.5003,-0.4941,-0.4935,-0.4924,-0.4894,0.0,0.0,0.0,0.0,0.0,0.0,0.0,0.0,0.0,0.0,0.0,0.0,0.0,0.0,0.0,0.0,0.0,0.0,0.0,0.0,0.0,0.0,0.0,0.0,0.0,0.0,0.0,0.0,0.0,0.0,0.0,0.0,0.0,0.0,0.0,0.0,0.0,0.0,0.0,0.0,-0.0906,-0.2293,-0.2601,-0.3623,-0.4903,-0.5285,-0.5395,-0.5395,-0.5395,-0.5395,-0.5395,-0.5395,-0.5395,-0.5395,-0.5395,-0.5395,-0.5395,-0.5395,-0.5395,-0.5395,-0.5395,-0.5395,-0.5402,-0.5436,-0.5539,-0.5555,-0.5467,-0.5794,-0.6261,-0.6622,-0.6978,-0.7476,-0.816,-0.8877,-0.8973,-0.8124,-0.7994,-0.8059,-0.8253,-0.8291,-0.835,-0.8544,-0.8544,-0.8544,-0.8544,-0.8544,-0.8871,-0.9562,-0.9594,-0.9594,-0.9594,-0.9594,-0.923,-0.8576,-0.923,-0.9236,-0.8576,-0.9268,-0.9594,-0.8804,-0.7723,-0.6475,-0.5982,-0.5358,-0.487,-0.4826,-0.4809,-0.4789,-0.4714,-0.4758,-0.4789,0.0,0.0,0.0,0.0,0.0,0.0,0.0,0.0,0.0,0.0,0.0,0.0,0.0,0.0,0.0,0.0,0.0,0.0,0.0,0.0,0.0,0.0,0.0,0.0,0.0,0.0,0.0,0.0,0.0,0.0,0.0,0.0,0.0,0.0,0.0,0.0,0.0,0.0,0.0,0.0,0.0,-0.0548,-0.1419,-0.2281,-0.3141,-0.4005,-0.4939,-0.525,-0.5264,-0.5371,-0.5395,-0.5395,-0.5395,-0.5395,-0.5395,-0.5395,-0.5395,-0.5395,-0.5395,-0.5395,-0.5395,-0.5395,-0.5395,-0.5395,-0.5395,-0.5457,-0.5491,-0.5412,-0.5521,-0.571,-0.6006,-0.6473,-0.6801,-0.6778,-0.7507,-0.7735,-0.6859,-0.6761,-0.6924,-0.734,-0.7372,-0.7535,-0.7962,-0.7994,-0.7994,-0.7994,-0.7994,-0.8188,-0.8651,-0.8291,-0.8452,-0.9274,-0.8877,-0.8452,-0.7994,-0.8452,-0.8452,-0.8027,-0.8452,-0.8678,-0.8804,-0.7723,-0.6274,-0.4987,-0.4748,-0.4806,-0.468,-0.4653,-0.4644,-0.4515,-0.459,0.0,0.0,0.0,0.0,0.0,0.0,0.0,0.0,0.0,0.0,0.0,0.0,0.0,0.0,0.0,0.0,0.0,0.0,0.0,0.0,0.0,0.0,0.0,0.0,0.0,0.0,0.0,0.0,0.0,0.0,0.0,0.0,0.0,0.0,0.0,0.0,0.0,0.0,0.0,0.0,0.0,0.0,-0.0089,-0.0365,-0.1918,-0.2591,-0.2909,-0.453,-0.51,-0.5123,-0.5344,-0.5395,-0.5395,-0.5395,-0.5395,-0.5395,-0.5395,-0.5395,-0.5395,-0.5395,-0.5395,-0.5395,-0.5395,-0.5395,-0.5395,-0.5395,-0.5395,-0.5395,-0.5395,-0.5395,-0.5395,-0.5395,-0.6108,-0.6396,-0.5524,-0.6137,-0.6396,-0.5524,-0.5395,-0.5686,-0.6396,-0.6461,-0.6756,-0.7507,-0.754,-0.754,-0.754,-0.754,-0.7605,-0.7762,-0.6953,-0.7209,-0.8812,-0.8156,-0.7697,-0.754,-0.7697,-0.7702,-0.754,-0.7697,-0.7762,-0.8804,-0.7723,-0.6268,-0.4871,-0.4535,-0.4545,0.0,0.0,-0.4515,0.0,0.0,0.0,0.0,0.0,0.0,0.0,0.0,0.0,0.0,0.0,0.0,0.0,0.0,0.0,0.0,0.0,0.0,0.0,0.0,0.0,0.0,-0.0393,0.0,0.0,0.0,0.0,0.0,0.0,0.0,0.0,0.0,0.0,0.0,0.0,0.0,0.0,0.0,0.0,0.0,0.0,0.0,0.0,0.0,-0.0396,-0.108,-0.2132,-0.289,-0.3599,-0.4721,-0.51,-0.5123,-0.5344,-0.5395,-0.5395,-0.5395,-0.5395,-0.5395,-0.5395,-0.5395,-0.5395,-0.5395,-0.5395,-0.5395,-0.5395,-0.5395,-0.5395,-0.5395,-0.5395,-0.5395,-0.5395,-0.5395,-0.5395,-0.5395,-0.6108,-0.6396,-0.5524,-0.6137,-0.6396,-0.5524,-0.5395,-0.5462,-0.5557,-0.5591,-0.5624,-0.5719,-0.5756,-0.5756,-0.5756,-0.5756,-0.6075,-0.685,-0.6042,-0.6042,-0.7013,-0.6948,-0.6494,-0.5756,-0.6494,-0.6494,-0.5752,-0.6527,-0.6883,-0.7803,-0.7101,-0.6263,-0.4846,-0.4491,-0.4491,-0.4491,-0.4491,-0.4491,0.0,0.0,0.0,0.0,0.0,0.0,0.0,0.0,0.0,0.0,0.0,0.0,0.0,0.0,0.0,0.0,0.0,0.0,0.0,0.0,0.0,-0.1768,-0.101,-0.0421,0.0,0.0,0.0,0.0,0.0,0.0,0.0,0.0,0.0,0.0,0.0,0.0,0.0,0.0,0.0,0.0,0.0,0.0,0.0,0.0,-0.0196,-0.0645,-0.1873,-0.2281,-0.2468,-0.4267,-0.466,-0.4469,-0.5054,-0.5324,-0.5395,-0.5395,-0.5395,-0.5395,-0.5395,-0.5395,-0.5395,-0.5395,-0.5395,-0.5395,-0.5395,-0.5395,-0.5395,-0.5395,-0.5395,-0.5395,-0.5395,-0.5395,-0.5395,-0.5395,-0.5719,-0.5848,-0.5458,-0.5719,-0.5848,-0.5458,-0.5395,-0.5395,-0.5395,-0.5395,-0.5395,-0.5395,-0.5395,-0.5395,-0.5395,-0.5395,-0.5557,-0.5947,-0.5591,-0.5587,-0.598,-0.5976,-0.5782,-0.5395,-0.5782,-0.5782,-0.5395,-0.5782,-0.5976,-0.7235,-0.6885,-0.6529,-0.5113,-0.4759,-0.4708,0.0,0.0,-0.4491,0.0,0.0,0.0,0.0,0.0,0.0,0.0,0.0,0.0,0.0,0.0,0.0,0.0,0.0,0.0,0.0,0.0,0.0,0.0,0.0,0.0,-0.2244,-0.1514,-0.0757,-0.0028,0.0,0.0,0.0,0.0,0.0,0.0,0.0196,0.0168,0.0,0.0196,0.0168,0.0,0.0,0.0,0.0,0.0,0.0,0.0,0.0,0.0,-0.0168,-0.1452,-0.1563,-0.1431,-0.365,-0.3988,-0.3633,-0.4715,-0.5028,-0.5026,-0.5258,-0.5337,-0.5344,-0.5385,-0.5395,-0.5395,-0.5395,-0.5395,-0.5395,-0.5395,-0.5395,-0.5395,-0.5395,-0.5395,-0.5395,-0.5395,-0.5395,-0.5395,-0.5395,-0.5395,-0.5395,-0.5395,-0.5395,-0.5395,-0.5395,-0.5395,-0.5395,-0.5395,-0.5395,-0.5395,-0.5395,-0.5395,-0.5395,-0.5395,-0.5395,-0.5395,-0.5395,-0.5395,-0.5395,-0.5395,-0.5395,-0.5395,-0.5395,-0.5395,-0.5395,-0.5395,-0.5395,-0.5395,-0.7857,-0.7643,0.0,-0.5814,-0.546,-0.5273,0.0,0.0,0.0,0.0,0.0,0.0,0.0,0.0,0.0,0.0,0.0,0.0,0.0,0.0,0.0,0.0,0.0,0.0,0.0,0.0,0.0,0.0,0.0,0.0,-0.2232,-0.1512,-0.0757,-0.0028,0.0,0.0,0.0,0.0,0.0,0.0,0.0699,0.0671,0.0028,0.0727,0.0671,0.0,0.0,0.0,0.0,0.0,0.0,0.0,0.0,0.0,-0.0084,-0.0867,-0.1146,-0.1347,-0.3071,-0.3168,-0.2836,-0.4391,-0.4442,-0.4036,-0.488,-0.511,-0.514,-0.5354,-0.5395,-0.5395,-0.5395,-0.5395,-0.5395,-0.5395,-0.5395,-0.5395,-0.5395,-0.5395,-0.5395,-0.5395,-0.5395,-0.5395,-0.5395,-0.5395,-0.5395,-0.5395,-0.5395,-0.5395,-0.5395,-0.5395,-0.5395,-0.5395,-0.5395,-0.5395,-0.5395,-0.5395,-0.5395,-0.5395,-0.5395,-0.5395,-0.5395,-0.5395,-0.5395,-0.5395,-0.5395,-0.5395,-0.5395,-0.5395,-0.5395,-0.5395,-0.5395,-0.5395,-0.7889,-0.7343,0.0,-0.576,-0.5164,-0.4787,-0.4543,-0.4491,0.0,0.0,0.0,0.0,0.0,0.0,0.0,0.0,0.0,0.0,0.0,0.0,0.0,0.0,0.0,0.0,0.0,0.0,0.0,0.0,0.0,0.0,-0.2947,-0.2211,-0.1458,-0.0727,-0.0252,0.0,0.0,0.0,0.0224,0.0699,0.0978,0.095,0.0727,0.0978,0.0699,0.0,0.0,0.0,0.0,0.0,0.0,0.0,0.0,0.0,-0.0084,-0.0838,-0.0811,-0.0617,-0.2178,-0.2276,-0.1999,-0.3564,-0.3958,-0.3941,-0.4729,-0.4965,-0.4995,-0.5172,-0.5213,-0.5237,-0.5368,-0.5395,-0.5395,-0.5395,-0.5395,-0.5395,-0.5395,-0.5395,-0.5395,-0.5395,-0.5395,-0.5395,-0.5395,-0.5395,-0.5395,-0.5395,-0.5395,-0.5395,-0.5395,-0.5395,-0.5395,-0.5395,-0.5395,-0.5395,-0.5395,-0.5395,-0.5395,-0.5395,-0.5395,-0.5395,-0.5395,-0.5395,-0.5395,-0.5395,-0.5395,-0.5395,-0.5395,-0.5395,-0.5395,-0.5395,-0.5395,-0.5395,-0.8209,-0.7536,-0.6804,0.0,0.0,-0.4787,-0.4543,0.0,0.0,0.0,0.0,0.0,0.0,0.0,0.0,0.0,0.0,0.0,0.0,0.0,0.0,0.0,0.0,0.0,0.0,0.0,0.0,0.0,0.0,0.0,-0.3278,-0.2566,-0.1743,-0.0769,-0.0248,0.0,0.0,0.0,0.0252,0.0727,0.1229,0.134,0.1118,0.1369,0.1062,0.0364,0.0112,0.0,0.0,0.0,0.0,0.0,0.0,0.0,-0.0056,-0.056,-0.042,-0.0168,-0.1396,-0.1417,-0.1127,-0.2623,-0.3188,-0.3401,-0.4222,-0.463,-0.4874,-0.4985,-0.5063,-0.512,-0.5257,-0.5354,-0.5395,-0.5395,-0.5395,-0.5395,-0.5395,-0.5395,-0.5395,-0.5395,-0.5395,-0.5395,-0.5395,-0.5395,-0.5395,-0.5395,-0.5395,-0.5395,-0.5395,-0.5395,-0.5395,-0.5395,-0.5395,-0.5395,-0.5395,-0.5395,-0.5395,-0.5395,-0.5395,-0.5395,-0.5395,-0.5395,-0.5395,-0.5395,-0.5395,-0.5395,-0.5395,-0.5395,-0.5395,-0.5395,-0.5395,-0.5395,0.0,0.0,0.0,0.0,0.0,0.0,-0.4653,0.0,0.0,0.0,0.0,0.0,0.0,0.0,0.0,0.0,0.0,0.0,0.0,0.0,0.0,0.0,0.0,0.0,0.0,0.0,0.0,0.0,0.0,-0.4086,-0.3176,-0.2538,-0.1507,-0.0053,0.0,0.0,0.0,0.0,0.0,0.0056,0.1507,0.1814,0.1118,0.187,0.1786,0.1034,0.0308,0.0,0.0,0.0,0.0,0.0,0.0,0.0,0.0,0.0,0.0,-0.0112,-0.0811,-0.0588,-0.0252,-0.1703,-0.2174,-0.2357,-0.3304,-0.4097,-0.4688,-0.484,-0.4982,-0.5096,-0.5103,-0.525,-0.5395,-0.5395,-0.5395,-0.5395,-0.5395,-0.5395,-0.5395,-0.5395,-0.5395,-0.5395,-0.5395,-0.5395,-0.5395,-0.5395,-0.5395,-0.5395,-0.5395,-0.5395,-0.5395,-0.5395,-0.5395,-0.5395,-0.5395,-0.5395,-0.5395,-0.5395,-0.5395,-0.5395,-0.5395,-0.5395,-0.5395,-0.5395,-0.5395,-0.5395,-0.5395,-0.5395,-0.5395,-0.5395,-0.5395,-0.5395,-0.7208,0.0,0.0,0.0,0.0,0.0,0.0,0.0,0.0,0.0,0.0,0.0,0.0,0.0,0.0,0.0,0.0,0.0,0.0,0.0,0.0,0.0,0.0,0.0,0.0,0.0,0.0,0.0,-0.4491,-0.4313,-0.3929,-0.2723,-0.1429,-0.005,0.0,0.0,0.0,0.0,0.028,0.0811,0.1758,0.1814,0.1118,0.187,0.1507,0.028,0.0084,0.0,0.0,0.0,0.0,0.0,0.0,0.0,0.0,0.0,0.0,-0.0028,-0.0224,-0.0168,-0.0168,-0.109,-0.1396,-0.1649,-0.2988,-0.3534,-0.3843,-0.4562,-0.486,-0.4995,-0.5243,-0.5361,-0.5395,-0.5395,-0.5395,-0.5395,-0.5395,-0.5395,-0.5395,-0.5395,-0.5395,-0.5395,-0.5395,-0.5395,-0.5395,-0.5395,-0.5395,-0.5395,-0.5395,-0.5395,-0.5395,-0.5395,-0.5395,-0.5395,-0.5395,-0.5395,-0.5395,-0.5395,-0.5395,-0.5395,-0.5395,-0.5395,-0.5395,-0.5395,-0.5395,-0.5395,-0.5395,-0.5395,-0.5395,-0.5395,-0.5395,-0.5395,-0.7047,-0.6524,-0.5955,-0.5955,0.0,0.0,0.0,-0.4491,0.0,0.0,0.0,0.0,0.0,0.0,0.0,0.0,0.0,0.0,0.0,0.0,0.0,0.0,0.0,0.0,0.0,0.0,0.0,0.0,-0.4491,-0.416,-0.3403,-0.2494,-0.1385,-0.0047,0.0,0.0,0.0,0.0,0.0223,0.0657,0.1691,0.1814,0.1118,0.187,0.1563,0.0448,0.014,0.0,0.0,0.0,0.0,0.0,0.0,0.0,0.0,0.0,0.0,0.0,0.0,0.0,-0.0084,-0.0504,-0.0838,-0.1257,-0.212,-0.2591,-0.2965,-0.3511,-0.4036,-0.4569,-0.5138,-0.5347,-0.5395,-0.5395,-0.5395,-0.5395,-0.5395,-0.5395,-0.5395,-0.5395,-0.5395,-0.5395,-0.5395,-0.5395,-0.5395,-0.5395,-0.5395,-0.5395,-0.5395,-0.5395,-0.5395,-0.5395,-0.5395,-0.5395,-0.5395,-0.5395,-0.5395,-0.5395,-0.5395,-0.5395,-0.5395,-0.5395,-0.5395,-0.5395,-0.5395,-0.5395,-0.5395,-0.5395,-0.5395,-0.5395,-0.5395,-0.5395,-0.7343,-0.6858,-0.6372,-0.6372,-0.5418,0.0,-0.447,-0.4467,0.0,0.0,0.0,0.0,0.0,0.0,0.0,0.0,0.0,0.0,0.0,0.0,0.0,0.0,0.0,0.0,0.0,0.0,-0.4491,-0.4491,-0.4491,-0.3801,-0.2278,-0.2083,-0.1375,-0.0045,0.0,0.0,0.0,0.0,0.0,0.0027,0.1475,0.1744,0.0995,0.1802,0.1748,0.0944,0.028,0.0,0.0,0.0,0.0,0.0,0.0,0.0,0.0,0.0,0.0,0.0,0.0,0.0,0.0,0.0,-0.0448,-0.1006,-0.1062,-0.1563,-0.2122,-0.2298,-0.2984,-0.3878,-0.4816,-0.5145,-0.5249,-0.5332,-0.5368,-0.5375,-0.5392,-0.5382,-0.5375,-0.5392,-0.5395,-0.5395,-0.5395,-0.5395,-0.5395,-0.5395,-0.5395,-0.5395,-0.5395,-0.5395,-0.5395,-0.5395,-0.5395,-0.5395,-0.5395,-0.5395,-0.5395,-0.5395,-0.5395,-0.5395,-0.5395,-0.5395,-0.5395,-0.5395,-0.5395,-0.5395,-0.5395,-0.5395,-0.5395,-0.5395,-0.5395,-0.5395,-0.5117,-0.5007,-0.4901,-0.4901,0.0,0.0,-0.4291,-0.4264,-0.423,0.0,0.0,0.0,0.0,0.0,0.0,0.0,0.0,0.0,0.0,0.0,0.0,0.0,0.0,0.0,0.0,0.0,-0.4491,-0.4491,-0.4346,-0.3654,-0.2266,-0.2065,-0.1376,-0.0045,0.0,0.0,0.0,0.0,0.0,0.0026,0.1399,0.139,0.0258,0.1484,0.1362,0.0213,0.0055,0.0,0.0,0.0,0.0,0.0,0.0,0.0,0.0,0.0,0.0,0.0,0.0,0.0,0.0,0.0,-0.0084,-0.0336,-0.0923,-0.1202,-0.16,-0.2939,-0.3047,-0.31,-0.4549,-0.4513,-0.4278,-0.4986,-0.5176,-0.5209,-0.5368,-0.5264,-0.5213,-0.5371,-0.5395,-0.5395,-0.5395,-0.5395,-0.5395,-0.5395,-0.5395,-0.5395,-0.5395,-0.5395,-0.5395,-0.5395,-0.5395,-0.5395,-0.5395,-0.5395,-0.5395,-0.5395,-0.5395,-0.5395,-0.5395,-0.5395,-0.5395,-0.5395,-0.5395,-0.5395,-0.5395,-0.5395,-0.5395,-0.5395,-0.5395,-0.5395,-0.5003,-0.5003,-0.5003,-0.5003,0.0,0.0,0.0,-0.4355,-0.4331,0.0,0.0,0.0,0.0,0.0,0.0,0.0,0.0,0.0,0.0,0.0,0.0,0.0,0.0,0.0,0.0,0.0,-0.4491,-0.4491,-0.4405,-0.3895,-0.2856,-0.2348,-0.1633,-0.0582,-0.0187,0.0,0.0,0.0,0.0,0.0024,0.1364,0.1301,0.005,0.1384,0.1262,0.0,0.0,0.0,0.0,0.0,0.0,0.0,0.0,0.0,0.0,0.0,0.0,0.0,0.0,0.0,0.0,0.0,0.0,-0.0056,-0.0448,-0.056,-0.0814,-0.2022,-0.2431,-0.2767,-0.3946,-0.4312,-0.4488,-0.4968,-0.51,-0.512,-0.523,-0.5186,-0.51,-0.5142,-0.5199,-0.527,-0.5382,-0.5395,-0.5395,-0.5395,-0.5395,-0.5395,-0.5395,-0.5395,-0.5395,-0.5395,-0.5395,-0.5395,-0.5395,-0.5395,-0.5395,-0.5395,-0.5395,-0.5395,-0.5395,-0.5395,-0.5395,-0.5395,-0.5395,-0.5395,-0.5395,-0.5395,-0.5395,-0.5395,-0.5395,-0.5395,0.0,0.0,0.0,0.0,0.0,-0.4484,0.0,0.0,0.0,-0.4409,0.0,0.0,0.0,0.0,0.0,0.0,0.0,0.0,0.0,0.0,0.0,0.0,0.0,0.0,0.0,0.0,-0.4491,-0.4491,-0.4491,-0.4177,-0.3415,-0.2625,-0.185,-0.1122,-0.0391,0.0,0.0,0.0,0.0,0.0022,0.1344,0.1282,0.0049,0.1351,0.1247,0.0,0.0,0.0,0.0,0.0,0.0,0.0,0.0,0.0,0.0,0.0,0.0,0.0,0.0,0.0,0.0,0.0,0.0,0.0,0.0,0.0,-0.014,-0.0895,-0.1538,-0.2208,-0.3107,-0.3848,-0.4445,-0.4765,-0.4942,-0.5039,-0.5123,-0.5073,-0.5005,-0.5009,-0.5019,-0.5106,-0.5324,-0.5375,-0.5385,-0.5354,-0.5375,-0.5385,-0.5354,-0.5378,-0.5395,-0.5395,-0.5395,-0.5395,-0.5395,-0.5395,-0.5395,-0.5395,-0.5395,-0.5395,-0.5395,-0.5395,-0.5395,-0.5395,-0.5395,-0.5395,-0.5395,-0.5395,-0.5395,-0.5395,-0.5395,-0.5395,0.0,0.0,0.0,0.0,-0.4543,0.0,0.0,0.0,-0.4206,-0.4072,0.0,0.0,0.0,0.0,0.0,0.0,0.0,0.0,0.0,0.0,0.0,0.0,0.0,0.0,0.0,0.0,0.0,-0.4491,-0.4491,-0.415,-0.336,-0.2607,-0.1864,-0.1122,-0.0391,0.0,0.0,0.0,0.0,0.0022,0.1248,0.1183,0.0045,0.1266,0.1162,0.0,0.0,0.0,0.0,0.0,0.0,0.0,0.0,0.0,0.0,0.0,0.0,0.0,0.0,0.0,0.0,0.0,0.0,0.0,0.0,0.0,-0.014,-0.0895,-0.0701,-0.0591,-0.1992,-0.2419,-0.275,-0.3714,-0.4354,-0.485,-0.5279,-0.5054,-0.4853,-0.5269,-0.5111,-0.4958,-0.51,-0.527,-0.5347,-0.5176,-0.5274,-0.5344,-0.5143,-0.5277,-0.5395,-0.5395,-0.5395,-0.5395,-0.5395,-0.5395,-0.5395,-0.5395,-0.5395,-0.5395,-0.5395,-0.5395,-0.5395,-0.5395,-0.5395,-0.5395,-0.5395,-0.5395,-0.5395,-0.5395,-0.5395,-0.5395,0.0,0.0,0.0,0.0,0.0,0.0,-0.4385,0.0,-0.4177,0.0,0.0,0.0,0.0,0.0,0.0,0.0,0.0,0.0,0.0,0.0,0.0,0.0,0.0,0.0,0.0,0.0,0.0,0.0,0.0,-0.4346,-0.4009,-0.2856,-0.2057,-0.174,-0.061,0.0,0.0,0.0,0.0,0.0,0.0877,0.0828,0.0022,0.0894,0.0807,0.0,0.0,0.0,0.0,0.0,0.0,0.0,0.0,0.0,0.0,0.0,0.0,0.0,0.0,0.0,0.0,0.0,0.0,0.0,0.0,0.0,-0.0056,-0.0364,-0.056,-0.0783,-0.1396,-0.187,-0.2456,-0.346,-0.3877,-0.4236,-0.487,-0.4894,-0.4853,-0.4986,-0.5009,-0.5029,-0.509,-0.5257,-0.5313,-0.5012,-0.5131,-0.5203,-0.5106,-0.5186,-0.526,-0.5385,-0.5281,-0.5226,-0.5226,-0.5152,-0.5104,-0.5104,-0.5104,-0.5104,-0.5104,-0.5186,-0.5226,-0.5226,-0.5347,-0.5395,-0.5395,-0.5395,-0.5395,-0.5395,-0.5395,-0.5395,-0.4491,0.0,0.0,0.0,0.0,0.0,0.0,0.0,0.0,0.0,0.0,0.0,0.0,0.0,0.0,0.0,0.0,0.0,0.0,0.0,0.0,0.0,0.0,0.0,0.0,0.0,0.0,0.0,0.0,0.0,-0.4205,-0.2938,-0.2112,-0.1909,-0.0673,0.0,0.0,0.0,0.0,0.0,0.0607,0.0582,0.0022,0.0627,0.0562,0.0,0.0,0.0,0.0,0.0,0.0,0.0,0.0,0.0,0.0,0.0,0.0,0.0,0.0,0.0,0.0,0.0,0.0,0.0,0.0,0.0,0.0,0.0,-0.0392,-0.0811,-0.0811,-0.1341,-0.2082,-0.2791,-0.3085,-0.3456,-0.4262,-0.4505,-0.4603,-0.4786,-0.4955,-0.51,-0.51,-0.5257,-0.5306,-0.4985,-0.5032,-0.51,-0.51,-0.5066,-0.5131,-0.5313,-0.5162,-0.5042,-0.5042,-0.4948,-0.4887,-0.4887,-0.4887,-0.4887,-0.4887,-0.5022,-0.5079,-0.5042,-0.5296,-0.5375,-0.533,-0.5375,-0.5395,-0.5395,-0.5395,-0.5395,0.0,0.0,0.0,-0.4491,0.0,0.0,0.0,0.0,-0.4631,0.0,0.0,0.0,0.0,0.0,-0.6524,-0.7127,0.0,0.0,0.0,0.0,0.0,0.0,0.0,0.0,0.0,0.0,0.0,0.0,0.0,0.0,-0.3473,-0.2658,-0.1861,-0.115,-0.0393,0.0,0.0,0.0,0.0,0.0,0.0607,0.0584,0.0022,0.0629,0.0562,0.0,0.0,0.0,0.0,0.0,0.0,0.0,0.0,0.0,0.0,0.0,0.0,0.0,0.0,0.0,0.0,0.0,0.0,0.0,0.0,0.0,0.0,0.0,-0.0028,-0.0028,-0.0028,-0.0588,-0.1183,-0.134,-0.1832,-0.2529,-0.3605,-0.3716,-0.3943,-0.4904,-0.5093,-0.51,-0.51,-0.5257,-0.5341,-0.5117,-0.5096,-0.51,-0.51,-0.4978,-0.4951,-0.5093,-0.4978,-0.4894,-0.4894,-0.4891,-0.4887,-0.4887,-0.4887,-0.4887,-0.4887,-0.5022,-0.5032,-0.4897,-0.5245,-0.532,-0.5106,-0.532,-0.5395,-0.5395,-0.5395,-0.5395,0.0,0.0,-0.4449,-0.5031,0.0,0.0,0.0,0.0,0.0,0.0,0.0,0.0,0.0,0.0,-0.6637,-0.733,-0.7315,0.0,0.0,0.0,0.0,0.0,0.0,0.0,0.0,0.0,0.0,0.0,0.0,0.0,0.0,-0.2621,-0.1875,-0.1122,-0.0393,0.0,0.0,0.0,0.0,0.0,0.0202,0.0202,0.0,0.0202,0.0202,0.0,0.0,0.0,0.0,0.0,0.0,0.0,0.0,0.0,0.0,0.0,0.0,0.0,0.0,0.0,0.0,0.0,0.0,0.0,0.0,0.0,0.0,0.0,0.0,0.0,0.0,-0.0196,-0.0505,-0.1049,-0.1324,-0.1713,-0.2554,-0.3254,-0.3835,-0.4162,-0.4826,-0.5284,-0.5284,-0.5358,-0.5276,-0.4891,-0.4975,-0.5066,-0.4972,-0.4918,-0.4941,-0.5083,-0.4911,-0.4769,-0.4769,-0.4674,-0.4644,-0.4644,-0.4644,-0.4644,-0.4644,-0.4758,-0.4816,-0.4769,-0.4965,-0.5043,-0.4961,-0.5138,-0.5209,-0.5209,-0.5209,-0.5209,-0.487,-0.4569,0.0,0.0,-0.4488,0.0,-0.459,0.0,0.0,0.0,0.0,0.0,0.0,0.0,-0.7102,-0.7838,-0.7895,-0.791,0.0,0.0,0.0,0.0,0.0,0.0,0.0,0.0,-0.5495,-0.4574,0.0,0.0,0.0,0.0,-0.1741,-0.0729,-0.0252,0.0,0.0,0.0,0.0,0.0,0.0,0.0,0.0,0.0,0.0,0.0,0.0,0.0,0.0,0.0,0.0,0.0,0.0,0.0,0.0,0.0,0.0,0.0,0.0,0.0,0.0,0.0,0.0,0.0,0.0,0.0,0.0,0.0,0.0,0.0,0.0,0.0,-0.0112,-0.0588,-0.0699,-0.0898,-0.1644,-0.2399,-0.2991,-0.3272,-0.4186,-0.4891,-0.4891,-0.5193,-0.5296,-0.5003,-0.5043,-0.5066,-0.4975,-0.4921,-0.4924,-0.5015,-0.4836,-0.4667,-0.4641,-0.4545,-0.4491,-0.4491,-0.4491,-0.4491,-0.4491,-0.4638,-0.4663,-0.4638,-0.4813,-0.4864,-0.484,-0.4955,-0.5022,-0.5022,-0.5022,-0.4995]}]]